GFSNW_850_rhum_000.txt.gz
RH
86 91 92 97 96 96 100 98 97 92 90 98 98 94 68 60 90 80 76 70 66 75 83 95 89 86 72 65 75 87 80 98 95 85 72 64 64 70 75 86 84 84 88 58
88 89 92 94 92 98 100 98 97 99 98 100 99 79 72 71 92 92 85 83 72 72 81 87 89 80 60 66 78 87 80 99 98 95 88 84 94 79 64 66 77 83 84 50
90 89 92 93 97 81 100 98 100 99 99 91 76 76 77 79 68 76 73 77 75 82 86 82 82 83 62 67 70 67 69 100 97 86 94 96 99 88 78 74 94 74 69 55
88 88 94 93 98 94 100 94 99 98 99 97 73 67 75 80 82 75 74 85 80 90 99 89 92 77 69 70 64 77 92 100 100 94 81 99 100 97 85 93 77 76 55 52
89 89 93 98 98 100 100 98 92 84 85 76 73 78 87 82 76 82 86 87 76 86 96 79 71 77 76 80 72 81 92 98 100 98 97 96 100 95 97 94 73 66 59 59
92 90 86 96 99 99 98 97 99 70 80 82 81 82 80 76 73 73 76 81 87 90 80 77 74 67 68 72 78 96 98 100 100 94 92 98 98 89 80 77 79 61 73 58
92 89 93 97 99 100 100 98 100 90 93 80 75 74 70 82 79 79 81 80 86 73 75 76 81 80 82 82 80 79 98 100 100 98 100 98 79 76 70 73 70 64 52 63
91 90 92 97 98 100 100 99 100 97 91 73 72 78 81 72 76 86 85 79 78 77 83 95 91 87 86 82 85 87 80 99 100 100 99 81 84 84 77 79 77 60 63 56
92 89 78 84 88 97 99 100 98 100 89 83 64 75 84 95 95 94 90 83 89 88 96 94 86 92 76 86 82 82 90 82 98 92 98 73 56 84 81 74 95 65 63 63
93 91 89 85 85 94 99 98 98 100 90 78 67 77 84 82 87 89 89 87 90 90 95 96 98 96 74 92 88 84 93 96 96 88 84 78 58 59 70 88 64 60 64 64
86 71 79 92 93 90 98 100 99 100 93 88 80 79 83 85 80 88 94 93 98 99 99 99 98 99 90 86 72 85 89 88 86 91 91 72 56 62 71 58 53 57 66 68
80 74 82 84 97 88 95 98 100 100 97 89 82 79 78 78 80 77 89 90 93 92 97 94 90 94 93 87 88 78 90 75 77 78 72 57 55 56 53 53 57 57 56 60
80 80 87 42 78 87 98 98 100 97 89 85 86 81 77 80 80 82 89 96 88 93 100 96 92 89 90 92 88 81 73 74 79 71 58 63 55 58 54 54 59 59 54 53
81 87 46 31 61 79 87 87 97 99 100 98 86 85 83 77 82 88 92 87 97 98 99 98 94 88 79 86 80 84 79 70 73 74 66 57 54 56 54 56 60 60 60 58
47 44 65 58 70 80 75 63 91 98 100 99 96 94 90 91 89 92 96 96 100 99 99 98 97 89 88 93 88 89 77 76 74 80 62 57 56 55 54 54 58 57 55 67
89 91 92 80 56 74 78 95 86 99 100 100 93 95 96 88 91 98 100 100 99 100 98 98 95 84 82 95 95 72 60 58 59 64 54 53 57 56 56 52 56 58 56 58
93 95 94 86 46 59 87 97 100 100 100 99 100 96 99 100 100 99 99 100 99 98 90 99 98 94 86 94 95 68 60 59 54 56 52 62 62 58 56 51 55 57 56 56
90 90 71 59 53 55 54 60 84 99 100 100 100 100 98 99 99 99 99 99 99 100 98 98 98 91 90 98 83 68 66 64 58 57 54 53 53 58 58 56 55 53 48 39
73 72 90 99 100 98 92 91 98 100 99 98 99 99 99 99 99 96 100 100 99 99 98 98 98 95 98 82 76 70 66 61 63 61 57 59 58 62 62 57 52 41 37 38
71 87 84 100 100 99 97 100 100 100 100 100 99 91 96 94 99 100 97 97 99 100 96 94 99 97 72 60 56 54 58 59 60 63 78 72 73 64 62 54 44 35 35 40
86 86 98 82 94 98 100 100 100 98 100 99 97 90 92 96 97 96 95 99 100 99 92 98 98 94 86 67 58 57 57 56 55 51 48 52 53 58 58 52 42 38 40 40
100 99 96 98 98 100 100 100 100 97 96 98 98 97 83 94 87 92 95 97 98 91 92 99 97 88 71 70 72 67 59 55 55 52 49 52 55 56 53 46 42 40 36 32
90 96 99 98 98 98 99 98 99 100 100 99 98 98 83 87 84 95 92 95 91 87 98 96 93 80 65 68 69 72 63 57 56 54 56 56 58 58 51 45 42 35 32 29
96 100 93 98 97 99 99 99 100 96 99 100 85 92 94 83 93 92 96 93 90 99 100 90 90 61 58 67 70 76 68 62 58 56 58 59 59 57 50 41 34 32 28 28
96 99 96 98 100 99 99 100 100 98 100 96 82 84 75 95 95 90 95 97 98 97 90 89 61 60 68 74 77 78 73 67 62 59 60 61 58 52 42 36 34 29 24 31
97 98 98 96 98 97 97 99 99 91 100 91 77 91 90 88 93 96 98 98 97 83 92 60 56 59 71 76 79 78 73 66 62 62 62 61 54 43 38 38 32 28 28 34
96 98 99 100 99 99 98 99 98 99 100 100 96 89 81 91 99 96 91 88 84 73 57 53 53 64 73 76 78 77 71 67 64 63 63 56 46 41 36 32 39 38 42 41

GFSNW_850_rhum_003.txt.gz
RH
73 76 92 93 93 95 100 100 98 91 98 98 99 100 69 65 83 78 78 69 71 76 73 85 84 81 68 64 79 93 78 90 98 83 70 65 64 72 72 90 88 88 83 60
79 87 90 98 97 95 97 99 96 92 93 99 100 88 78 75 90 88 78 80 75 74 81 90 86 83 63 70 75 87 85 99 97 88 87 77 97 80 71 69 77 86 84 58
83 87 89 95 96 99 100 100 100 100 96 94 90 80 82 81 73 86 78 81 76 84 87 75 87 87 66 67 72 69 72 94 94 77 78 98 99 82 85 96 94 74 72 60
89 88 91 85 99 98 99 99 100 96 99 98 76 72 73 85 85 74 75 82 76 81 93 88 97 89 76 74 70 74 84 98 97 93 79 94 100 95 86 98 81 79 57 57
96 91 87 81 98 100 98 100 96 88 94 83 70 79 78 78 78 81 87 83 74 79 89 70 82 78 80 76 78 84 86 99 100 97 94 97 99 98 92 84 78 74 66 66
97 91 89 90 95 99 98 98 99 96 81 79 78 83 80 82 74 72 78 77 79 87 80 70 72 72 70 72 75 87 98 99 100 91 90 100 97 93 94 88 78 76 84 60
94 83 82 91 87 99 100 100 100 95 94 77 73 72 72 78 76 83 83 79 86 77 78 83 88 92 95 89 84 76 98 100 100 97 98 98 94 74 70 75 62 68 62 54
83 93 69 81 81 95 100 100 100 100 92 75 70 74 72 68 74 83 81 80 79 79 87 92 97 93 91 90 90 90 83 98 100 100 100 88 63 72 78 79 77 59 69 63
74 88 89 72 86 86 99 100 100 98 97 85 63 72 80 93 93 94 87 86 86 94 96 96 100 93 78 85 79 92 87 88 100 100 98 94 52 82 65 69 73 61 57 59
81 82 86 69 59 71 97 100 100 99 100 81 66 80 88 81 88 89 86 86 90 97 95 100 100 94 73 89 85 95 98 98 99 97 96 80 62 65 72 77 67 64 64 56
82 91 86 85 35 69 90 98 100 100 99 95 75 68 74 86 82 89 87 94 97 99 99 99 99 90 90 89 72 86 87 97 96 92 94 76 60 75 80 60 56 61 68 65
73 86 95 82 41 47 75 90 99 100 100 98 90 82 74 74 74 78 87 88 89 89 98 97 94 97 90 89 88 79 93 75 78 81 71 56 56 60 52 59 62 62 62 71
68 60 92 83 63 87 84 80 88 98 99 82 84 79 79 79 80 82 85 95 84 88 93 99 92 98 86 94 92 81 76 76 83 72 60 66 60 54 57 58 62 62 58 68
92 91 90 93 87 75 76 76 67 98 100 100 83 79 81 76 79 85 86 86 90 95 96 94 98 96 79 88 81 86 80 77 75 78 70 62 55 55 55 59 63 58 60 59
89 89 88 95 94 61 70 42 59 98 97 98 96 94 89 88 85 87 91 95 98 99 99 98 95 87 85 93 90 92 82 76 79 78 62 61 58 57 57 57 61 56 54 62
92 90 100 96 98 84 87 98 100 100 100 100 99 99 95 92 94 92 99 96 100 96 97 92 78 82 75 97 96 74 62 61 63 65 56 55 57 58 58 56 61 60 58 61
66 93 95 89 97 88 79 96 100 100 100 100 99 95 95 98 100 100 100 99 100 100 94 95 96 99 96 96 99 67 59 60 59 58 56 61 63 59 58 57 62 62 61 61
30 45 67 74 73 70 49 48 87 100 100 100 100 97 93 100 99 99 100 100 100 100 94 99 99 96 96 98 83 66 65 60 62 59 57 56 57 59 61 61 62 62 62 59
33 64 84 94 100 99 94 85 99 100 100 100 99 97 91 100 99 96 100 99 98 96 99 97 97 96 99 82 78 67 67 65 57 60 60 58 60 61 63 62 61 53 47 33
67 72 87 99 85 85 88 96 100 100 100 100 99 85 94 94 98 100 99 98 98 100 96 97 99 98 74 61 64 60 56 64 60 66 73 72 73 64 61 56 49 36 28 32
90 90 98 93 93 98 99 100 100 99 100 93 94 89 91 97 97 97 95 99 100 100 91 99 98 96 85 74 68 64 60 59 56 56 53 53 52 58 58 54 43 33 35 35
99 99 99 98 99 99 100 100 100 100 97 98 98 93 83 92 93 94 98 98 99 98 91 98 96 90 66 66 70 69 65 60 58 56 53 53 56 58 55 48 39 37 39 40
86 98 98 98 98 98 98 98 99 100 100 99 100 100 86 93 90 96 94 99 94 88 98 95 94 77 63 66 71 76 70 62 60 57 56 56 59 60 54 44 39 41 40 36
97 97 98 97 97 98 99 99 99 99 99 99 98 93 94 87 95 94 95 92 92 94 99 97 91 59 56 60 68 77 69 63 60 56 57 58 61 60 53 42 42 38 32 30
94 94 99 99 98 99 99 99 100 100 99 100 91 88 83 97 95 94 95 98 94 90 96 90 64 58 59 68 72 74 72 65 62 58 58 61 62 57 49 45 39 32 27 23
94 97 96 89 94 95 86 94 99 100 100 99 91 97 92 89 93 98 99 99 97 84 92 61 59 56 61 69 74 76 75 66 60 58 59 62 61 54 46 40 33 29 21 26
93 93 95 97 98 100 92 99 99 99 100 100 100 99 83 92 99 99 94 92 84 69 55 54 54 56 62 66 74 77 75 68 64 61 63 63 59 49 39 35 34 28 33 35

GFSNW_850_rhum_006.txt.gz
RH
75 86 91 98 96 97 99 98 100 96 99 98 98 100 93 69 68 74 63 54 55 57 62 68 64 64 53 50 62 76 59 72 88 71 44 45 45 57 62 94 88 88 62 50
90 95 87 94 98 98 100 100 99 97 99 99 100 89 86 78 75 74 66 68 58 56 62 73 60 60 53 59 58 61 62 97 87 69 70 60 73 59 59 92 92 88 80 47
88 96 89 92 96 99 98 100 100 99 94 85 79 68 74 80 74 76 68 69 64 64 65 61 70 69 60 58 56 64 60 68 87 66 68 61 100 73 87 97 93 65 64 52
95 94 88 84 93 98 98 99 99 97 100 81 60 60 68 73 75 71 66 70 62 64 70 72 73 67 64 63 64 62 65 100 91 76 69 78 92 91 95 99 76 79 53 45
93 88 81 76 87 96 97 100 99 86 85 70 60 72 67 68 76 66 72 69 67 64 64 65 69 69 69 62 60 66 70 92 99 97 79 77 96 94 96 96 84 64 57 57
87 83 78 80 89 96 98 98 100 99 93 79 61 69 64 64 62 70 75 64 71 73 70 63 62 62 60 62 63 72 88 100 100 89 64 70 97 96 95 95 83 67 73 54
76 87 66 87 84 96 99 100 100 95 97 73 60 61 64 63 59 78 75 78 76 75 75 76 79 80 89 82 68 62 86 100 100 98 86 94 73 77 80 84 82 66 57 51
80 74 62 73 68 94 99 99 100 99 85 66 62 60 59 70 73 72 72 79 76 77 84 89 90 91 88 74 76 75 68 84 100 99 98 65 55 63 82 76 62 51 59 51
81 76 55 86 42 68 88 99 99 99 99 73 61 64 63 64 66 78 76 85 88 86 90 90 96 75 62 68 78 80 76 80 98 98 96 79 53 55 62 60 66 51 55 51
92 84 74 74 36 46 80 96 99 99 99 86 73 65 72 78 76 89 89 92 91 96 84 97 92 83 63 68 69 86 92 98 97 97 94 63 51 55 73 62 61 55 60 52
45 89 53 52 36 30 71 85 99 98 99 92 83 67 76 83 74 72 83 89 96 98 98 91 84 89 68 74 60 69 66 81 88 77 77 77 52 62 56 50 56 60 65 72
59 88 91 87 92 69 68 92 86 98 100 99 92 84 72 68 66 71 86 86 84 82 93 91 93 84 76 70 66 62 74 60 58 60 52 46 53 53 56 62 62 63 68 70
35 89 87 88 93 94 71 82 86 95 100 95 88 84 84 80 78 76 81 90 81 90 82 94 94 96 88 76 70 65 63 62 67 65 50 53 52 57 60 61 71 67 68 72
94 91 90 89 96 96 94 78 76 82 99 100 85 78 80 79 79 79 81 82 86 91 96 91 89 95 70 72 67 68 60 67 64 63 52 52 56 60 60 59 64 68 77 68
98 93 96 88 90 91 82 48 36 55 95 97 97 92 85 80 79 82 86 90 95 99 96 97 93 77 88 71 76 70 61 56 55 49 53 52 53 63 61 60 66 69 63 68
96 93 93 93 97 88 86 100 100 100 99 100 95 99 100 99 96 94 94 99 100 98 94 91 80 74 83 83 77 55 56 62 59 48 56 56 60 61 60 60 65 69 64 68
90 88 91 96 97 89 92 98 100 100 99 100 99 92 97 100 100 100 100 99 98 98 95 97 88 85 97 96 80 55 61 61 58 60 60 61 62 62 60 58 66 67 67 68
39 92 73 92 98 90 87 47 64 100 100 100 100 94 91 96 97 94 98 98 100 100 97 95 99 95 100 98 70 64 64 63 61 62 61 58 58 61 62 62 65 65 64 62
68 72 82 93 86 85 94 100 92 100 100 99 99 96 93 97 98 98 100 98 100 93 100 97 98 86 97 79 68 66 68 66 63 66 63 61 63 63 64 65 66 61 62 56
69 66 81 100 81 80 94 93 100 100 100 100 98 82 90 93 96 98 93 99 98 100 91 97 99 97 74 66 69 66 64 60 68 67 72 71 72 65 64 63 62 57 50 39
90 84 90 91 89 98 100 100 100 99 100 99 94 85 83 92 91 90 94 94 99 100 89 96 96 84 71 68 69 68 67 67 61 65 61 59 54 60 61 64 61 50 35 34
91 98 99 94 98 100 100 100 100 97 93 98 97 91 90 98 98 91 97 99 97 100 84 97 94 74 67 63 66 69 69 68 61 62 59 59 58 59 60 60 54 37 36 38
89 96 94 94 93 93 94 96 99 100 98 100 100 100 92 96 93 93 93 100 95 83 97 90 81 72 63 60 70 77 77 67 60 60 57 59 60 61 56 54 43 36 39 40
95 95 92 95 95 94 96 99 98 98 100 100 100 96 94 91 96 88 95 84 85 96 98 93 84 60 54 54 67 81 76 67 60 57 56 59 63 64 58 48 36 37 40 38
92 92 97 94 91 98 96 96 99 100 100 100 100 93 88 96 98 86 95 97 94 85 85 82 62 55 57 65 68 76 75 69 62 57 56 61 65 63 55 45 41 42 36 31
93 98 96 91 93 90 88 92 98 100 99 100 100 100 99 98 93 98 97 95 94 83 97 65 56 53 58 67 68 71 76 69 63 60 60 62 65 60 50 47 48 39 31 27
92 94 94 93 98 98 96 87 91 93 100 100 100 100 100 96 97 99 91 92 90 90 70 65 60 58 60 62 67 72 75 71 66 64 66 67 65 57 49 49 43 35 31 29

GFSNW_850_rhum_009.txt.gz
RH
81 86 91 98 98 100 88 97 99 99 90 98 98 100 95 72 56 66 52 44 41 44 46 50 47 49 45 43 45 60 48 62 80 64 42 39 44 58 58 90 69 80 68 58
81 92 92 92 98 99 98 97 100 99 95 99 100 95 90 61 70 68 54 54 44 40 46 56 47 47 44 44 48 51 52 78 82 77 57 44 54 48 47 62 81 92 88 54
88 92 96 88 91 98 98 98 100 98 98 94 69 95 93 79 75 61 55 55 46 47 49 50 52 56 55 48 48 57 49 61 83 62 69 52 88 72 65 86 96 69 62 52
83 78 76 84 84 97 98 99 96 89 94 81 77 70 73 81 74 59 53 55 49 47 54 54 56 53 56 54 53 53 56 100 80 66 58 64 70 72 72 98 94 96 61 48
92 92 71 79 85 86 97 98 97 82 71 54 50 57 59 62 63 55 56 53 50 48 49 50 61 54 53 56 56 59 64 88 94 92 68 66 80 66 80 91 91 96 94 84
79 91 78 53 90 97 98 99 99 99 90 57 51 55 54 58 56 65 60 54 55 59 58 57 58 57 53 52 56 64 76 97 97 80 54 61 88 84 95 95 84 89 94 74
92 81 89 44 48 99 98 99 99 97 94 55 51 52 53 54 58 68 66 63 60 74 75 73 72 72 68 68 69 67 81 95 95 99 84 92 54 57 67 81 69 59 59 60
85 83 82 78 27 66 100 100 98 99 72 53 53 51 58 54 58 65 69 76 77 75 75 69 73 89 89 73 78 79 62 75 95 98 79 56 59 50 75 91 71 52 68 60
20 63 50 50 37 30 94 96 99 98 99 59 51 50 52 57 58 63 64 90 86 87 82 82 97 91 55 66 86 73 66 69 93 81 94 82 48 48 60 71 67 50 60 71
14 18 60 30 40 29 48 97 95 100 100 79 74 55 56 55 54 82 87 89 89 85 84 88 100 94 56 63 63 80 94 96 94 91 98 62 39 46 64 67 59 51 65 66
20 40 77 91 81 61 40 100 91 95 99 90 91 72 64 75 65 73 80 86 88 87 92 99 98 98 62 62 48 63 68 80 82 82 92 78 42 47 59 52 50 52 61 74
48 59 89 90 92 89 83 99 98 95 96 96 97 92 81 78 70 65 81 79 72 76 90 93 93 97 66 57 61 48 63 47 52 52 50 38 44 47 49 55 56 55 61 85
90 89 89 92 91 92 97 100 100 98 100 98 98 88 86 77 71 68 71 88 77 81 87 94 94 97 86 89 60 55 50 45 57 58 41 42 43 46 55 63 63 65 70 71
92 96 98 99 92 88 94 100 99 98 96 99 92 86 86 80 80 78 76 82 78 84 90 96 94 93 70 68 63 63 55 58 55 53 45 42 49 55 61 65 68 76 73 68
88 98 99 92 94 91 91 97 89 75 99 98 97 95 86 80 81 82 82 90 93 98 98 97 92 83 77 60 67 65 49 51 58 47 45 47 49 61 64 64 68 72 70 71
88 94 94 89 92 94 98 100 90 90 92 100 98 98 98 98 89 88 94 100 100 96 95 93 84 75 82 89 72 43 40 42 43 41 53 56 61 64 66 65 67 69 66 68
81 85 96 99 100 99 98 89 100 100 100 100 99 93 97 100 100 99 99 99 100 98 97 97 90 83 97 88 75 45 47 52 52 58 59 59 64 60 65 64 67 68 70 71
33 81 82 90 97 99 100 90 99 99 100 100 100 90 91 92 99 91 97 98 98 99 97 95 94 94 92 93 64 59 57 54 62 62 62 60 61 63 66 67 67 68 70 71
31 73 91 97 90 95 99 89 67 99 100 99 98 98 91 92 95 96 98 97 94 90 98 95 98 92 95 70 65 62 59 66 63 66 68 64 63 67 65 67 69 66 69 70
53 72 88 98 96 79 87 91 99 100 99 100 95 80 88 93 87 85 85 95 93 100 79 92 100 95 68 61 60 62 69 67 65 71 76 72 72 68 69 67 67 63 62 62
86 93 98 91 91 96 99 100 100 99 100 99 93 70 71 89 82 78 89 90 98 100 84 85 86 77 59 69 61 64 72 74 70 66 66 61 58 62 65 70 68 62 55 45
92 98 97 91 100 100 100 100 100 98 100 95 84 81 77 96 95 86 90 98 96 99 76 92 93 70 64 64 56 61 68 76 72 65 63 59 63 62 63 66 64 59 43 36
91 98 96 99 98 95 92 92 97 100 97 100 99 99 93 95 93 91 89 100 96 77 95 88 76 66 64 56 54 63 79 80 74 66 61 59 64 66 61 60 60 48 33 38
100 97 90 96 94 87 94 97 98 98 100 99 100 99 95 91 97 84 99 85 80 94 94 90 88 72 60 58 64 74 81 76 72 66 60 59 62 67 66 61 53 33 35 39
94 97 91 88 89 99 97 97 99 100 100 100 100 97 87 98 100 81 94 96 94 82 82 85 83 73 69 70 74 77 78 75 68 64 61 63 65 67 65 60 44 37 36 39
94 96 96 90 93 92 94 96 98 99 97 100 100 100 100 100 98 97 91 90 92 88 99 90 85 73 70 76 77 79 81 74 67 64 64 66 70 68 63 56 42 42 41 39
93 88 97 90 95 93 86 77 76 88 97 100 100 100 89 100 99 98 88 94 94 94 96 89 76 75 71 67 72 78 81 79 71 65 65 68 71 68 60 50 48 48 44 36

GFSNW_850_rhum_012.txt.gz
RH
90 93 92 88 96 100 90 98 98 98 92 95 99 98 97 90 62 59 46 40 44 49 52 60 56 53 46 41 44 57 46 61 93 80 52 50 52 65 65 90 81 81 82 68
91 81 65 70 96 100 98 94 98 91 96 92 94 91 91 78 70 67 51 48 42 40 47 55 49 49 42 43 47 53 50 84 93 88 63 48 58 54 53 63 75 90 93 65
83 83 49 57 100 98 88 95 93 92 90 93 79 97 92 92 79 56 48 48 43 43 47 48 54 58 52 44 47 48 47 64 85 90 78 67 97 80 64 72 98 81 76 66
90 77 56 45 99 97 98 98 89 82 94 86 80 87 83 88 82 56 49 53 47 46 54 53 53 49 58 50 55 51 57 97 84 75 64 66 73 73 69 89 94 98 80 80
88 42 77 29 92 93 94 99 97 80 64 70 88 71 91 72 57 57 52 52 45 43 49 58 51 53 52 62 57 60 61 97 98 93 71 70 80 72 70 67 76 96 95 94
86 57 71 26 69 98 98 98 100 100 74 58 54 60 54 59 56 62 62 51 52 60 68 60 60 57 54 53 61 66 83 99 96 90 64 73 87 74 79 79 82 87 97 83
51 9 12 27 23 88 100 100 100 99 78 62 50 51 50 56 65 68 64 57 64 75 72 70 68 68 68 64 60 61 87 98 98 98 90 92 55 55 62 75 74 64 63 65
42 34 6 8 21 23 98 99 100 99 88 52 48 50 55 52 58 68 68 76 79 76 75 76 73 86 88 79 72 74 72 87 98 99 92 64 50 57 67 84 76 60 72 72
79 72 20 8 10 20 32 99 97 100 100 61 64 50 51 64 62 70 76 84 75 81 86 82 88 90 68 83 86 73 78 77 93 86 95 83 58 56 62 71 87 56 73 82
94 91 90 27 44 14 27 96 98 98 100 84 83 57 59 52 56 89 84 85 86 85 89 86 99 89 65 73 82 93 94 95 97 96 97 79 47 50 60 84 72 55 55 77
93 92 98 94 63 65 47 53 99 100 99 86 80 88 77 66 65 86 84 87 86 90 87 96 94 97 77 71 60 75 79 87 93 92 98 94 44 51 65 60 54 51 54 75
98 94 99 99 93 75 83 88 72 91 100 91 89 88 87 86 82 72 79 78 76 78 91 95 91 92 90 75 76 50 68 60 68 71 71 44 44 47 47 53 58 57 57 80
98 92 98 98 98 98 81 87 91 89 98 97 90 81 74 75 73 72 76 83 75 77 81 88 92 98 87 93 77 70 53 46 67 60 48 51 47 49 54 57 60 63 63 78
94 98 99 98 95 97 85 80 83 95 94 98 94 91 96 85 72 70 70 78 75 78 84 94 87 97 79 85 77 75 65 59 64 65 58 48 53 56 58 58 67 74 70 70
86 91 95 94 93 93 82 74 80 89 96 99 98 95 88 85 79 82 83 87 88 89 98 98 88 84 86 77 73 77 58 68 74 74 51 52 58 58 60 61 68 70 67 69
91 98 98 94 99 94 83 86 83 82 90 99 100 100 96 88 85 88 88 90 89 92 94 93 84 76 84 96 79 55 48 50 48 50 51 54 58 59 60 61 66 69 67 65
99 92 95 94 96 90 87 84 99 100 92 99 99 99 99 100 99 98 98 99 99 96 97 98 88 85 85 96 90 56 44 47 52 52 53 57 59 60 61 61 67 67 69 69
74 76 84 87 86 87 91 83 96 99 99 100 100 99 97 96 97 97 99 99 99 100 95 94 96 88 93 97 79 69 62 58 58 58 59 59 59 61 62 64 66 69 70 69
41 65 97 91 89 92 90 88 86 96 99 98 100 100 100 90 94 95 96 96 98 92 98 96 95 93 98 83 72 67 65 65 64 63 63 65 64 62 63 65 68 68 70 70
68 78 95 100 97 85 95 98 100 100 100 100 100 81 96 90 88 94 91 97 93 100 87 87 99 97 75 68 68 67 67 68 67 66 70 71 71 66 65 66 67 66 67 69
88 100 99 91 80 83 97 99 99 99 100 100 93 81 87 84 88 86 89 96 100 100 92 87 96 87 72 67 64 58 59 71 73 70 67 65 65 64 65 68 66 64 64 64
92 97 92 90 99 100 100 100 100 100 94 98 95 88 86 94 89 87 88 100 98 98 81 94 95 88 68 62 59 62 72 74 73 75 71 65 64 64 64 68 65 62 58 55
99 98 96 98 96 99 98 97 98 99 99 99 99 98 90 89 92 94 90 99 96 81 96 85 92 87 76 72 79 78 86 82 77 75 71 64 67 76 68 67 66 62 58 46
98 94 95 90 85 81 96 97 99 100 100 100 100 99 96 89 98 90 88 91 87 85 93 93 99 88 81 79 79 83 85 83 75 71 68 66 68 76 78 68 64 70 55 40
93 94 92 86 89 89 97 90 97 99 99 100 100 97 89 100 100 88 98 94 85 78 91 99 92 84 81 78 77 81 83 84 84 71 66 68 72 76 82 77 75 72 41 36
95 96 89 91 94 87 94 92 97 98 93 100 100 100 100 100 99 96 86 85 88 96 100 90 92 88 86 85 78 79 81 81 78 77 71 71 72 71 72 72 67 52 38 37
90 93 90 91 89 89 88 77 78 79 92 100 100 99 90 99 99 93 82 86 99 99 99 94 90 90 83 80 77 76 76 80 77 75 76 75 76 76 73 69 61 45 43 42

GFSNW_850_rhum_015.txt.gz
RH
84 94 94 74 100 84 76 80 98 99 100 97 99 100 98 92 81 81 67 47 52 62 76 72 68 67 54 47 47 62 48 71 96 80 62 57 61 71 75 92 81 92 94 69
87 88 73 78 94 78 74 90 93 90 96 100 99 96 88 86 83 67 54 54 46 50 58 69 56 56 46 44 48 60 50 76 92 81 73 59 69 66 64 70 81 84 90 65
88 97 56 65 87 78 78 83 93 78 86 86 92 98 92 92 70 67 54 51 44 50 52 51 58 70 51 48 54 48 46 76 81 85 81 73 88 76 67 72 98 82 76 64
57 28 32 36 90 77 83 91 87 85 96 87 86 87 91 83 80 58 50 55 50 52 60 58 63 66 61 52 56 53 66 92 90 80 76 77 79 76 73 83 80 97 69 73
54 5 15 22 78 82 96 100 99 96 81 82 85 84 86 79 70 75 58 56 60 64 66 63 62 59 67 68 64 63 66 87 96 98 80 80 87 75 73 75 75 74 74 80
50 13 5 18 29 84 96 98 99 100 79 81 83 74 72 66 63 62 67 61 76 83 78 69 66 56 56 58 65 68 83 98 96 92 73 82 92 79 70 76 77 77 96 76
32 35 13 7 17 41 99 98 99 99 94 79 58 55 54 73 70 73 71 67 79 76 72 70 61 64 67 63 62 64 92 95 97 98 90 89 62 56 65 77 76 76 71 70
92 37 34 23 9 17 48 98 96 100 98 82 56 56 59 64 69 72 77 82 82 74 73 83 82 85 85 79 71 75 74 85 98 97 99 71 57 68 74 88 77 61 71 84
97 99 62 72 48 12 30 100 96 98 98 88 92 68 55 73 75 71 88 81 73 75 90 86 89 96 73 96 90 76 78 77 94 98 98 89 60 54 65 73 87 58 67 80
99 99 99 90 91 34 25 96 95 91 100 92 88 87 72 53 70 87 82 76 80 82 91 92 94 86 72 91 93 98 94 95 97 94 97 82 59 53 66 80 62 58 56 72
98 95 98 97 100 88 58 48 99 96 99 90 81 81 98 90 71 88 82 83 87 93 92 92 90 94 81 80 75 89 88 93 97 98 99 92 48 68 74 56 55 55 56 74
98 99 97 99 97 91 96 66 70 84 98 94 80 81 84 88 94 92 80 85 82 79 94 92 89 87 84 91 93 62 89 74 83 78 76 49 43 49 50 54 57 57 59 76
95 94 98 97 99 95 94 93 73 89 91 72 72 61 66 73 84 92 83 78 77 75 75 87 90 94 84 89 93 80 60 53 64 67 58 55 50 53 53 56 56 59 63 76
92 98 97 92 88 83 91 100 84 90 96 99 88 89 95 82 76 74 76 77 76 79 77 90 91 92 85 89 83 86 72 65 67 75 64 58 56 54 55 57 62 68 75 74
98 98 98 99 90 83 94 83 73 69 90 98 98 98 95 94 85 76 79 78 77 84 96 96 96 84 88 81 82 93 67 75 79 81 56 56 57 56 58 59 65 68 69 72
97 98 98 86 90 93 99 83 94 93 89 98 100 100 98 91 89 87 88 88 93 88 87 91 85 78 81 98 95 60 51 53 53 58 54 53 56 56 58 58 64 69 69 68
98 99 98 89 86 93 98 81 98 98 96 92 99 99 100 97 100 99 97 93 92 92 91 98 91 87 87 96 84 63 60 60 64 62 57 59 60 57 58 58 63 68 68 68
70 92 70 85 84 82 86 81 89 98 98 99 99 99 98 99 99 99 96 99 100 98 93 95 97 88 89 98 79 71 71 68 65 62 62 58 59 61 62 62 64 68 68 68
40 71 84 98 98 94 81 91 94 88 99 98 99 100 100 100 94 99 99 98 99 91 98 95 94 91 98 84 86 83 77 74 71 66 65 65 66 65 64 63 67 67 68 68
62 80 98 96 89 92 91 96 99 99 99 99 100 96 100 95 89 98 95 100 97 100 93 93 99 93 79 66 61 61 60 58 73 72 69 69 71 69 67 65 65 66 67 68
66 98 98 96 86 97 97 99 99 98 100 100 98 96 91 88 89 92 90 99 100 100 94 88 92 94 76 70 70 73 74 73 71 77 77 69 68 68 68 67 67 70 70 69
52 98 99 100 100 100 100 98 99 100 98 99 98 94 92 88 87 88 91 98 99 98 84 94 86 93 79 76 78 82 84 85 79 75 76 74 68 68 68 66 71 84 73 71
98 99 100 98 99 97 99 97 99 100 99 99 99 98 89 89 89 94 94 94 92 84 95 85 92 90 81 78 82 83 85 85 81 78 76 72 69 72 72 69 67 68 68 66
96 94 95 95 95 92 88 98 99 99 100 99 100 99 99 94 97 91 90 87 86 85 92 91 98 95 86 80 82 86 86 84 86 78 73 70 70 77 90 88 74 65 63 81
92 96 97 94 84 80 95 93 95 99 100 99 99 99 95 99 100 93 96 92 88 78 89 98 97 93 85 79 78 81 83 84 80 81 77 74 75 78 86 93 86 72 71 89
95 94 98 88 93 91 90 88 94 98 92 100 99 100 100 100 94 97 86 82 87 95 98 97 92 92 89 89 78 76 78 82 81 79 77 75 74 76 81 90 90 77 88 78
92 96 86 92 94 89 91 81 82 86 84 100 99 99 96 98 100 96 89 92 100 100 99 91 87 93 91 86 85 81 73 74 78 80 78 76 74 77 76 80 83 85 82 56

GFSNW_850_rhum_018.txt.gz
RH
68 30 57 82 72 63 56 77 96 83 94 98 99 100 100 94 82 80 82 52 63 76 72 76 70 82 63 50 54 68 51 78 93 81 60 59 65 74 76 90 79 95 92 79
8 15 42 80 65 63 64 85 86 86 90 98 100 94 87 89 82 83 56 54 50 60 69 73 61 58 49 50 53 62 52 76 92 82 74 67 74 71 69 73 85 94 92 71
10 5 20 80 73 74 75 78 90 71 85 94 95 87 90 83 66 65 56 56 52 50 55 53 70 64 53 50 50 45 49 79 78 86 76 77 87 77 72 77 98 84 79 62
22 7 7 38 81 70 73 87 93 99 98 87 87 80 81 84 85 68 52 53 48 55 64 64 76 66 60 60 58 60 63 87 91 84 78 80 79 78 77 89 74 90 65 68
29 18 7 11 71 85 84 98 98 96 97 83 86 83 84 85 75 77 72 79 68 56 72 65 74 69 67 64 63 65 66 90 89 93 83 88 92 81 78 73 70 69 67 71
56 22 18 9 26 75 89 96 92 96 81 89 85 76 68 74 66 64 72 66 79 85 78 72 62 50 51 60 70 76 77 94 89 94 72 85 93 84 77 76 76 76 90 71
80 59 28 24 14 34 86 90 99 98 89 91 75 57 66 71 71 69 75 73 78 78 73 68 60 64 66 58 59 64 87 90 95 98 87 92 60 53 61 68 70 77 80 71
98 87 67 48 26 15 88 96 93 99 91 91 79 87 68 69 70 75 79 85 84 75 69 83 84 82 77 75 69 76 71 85 98 98 98 73 58 65 67 77 75 66 77 64
98 98 98 86 78 21 38 98 97 99 98 93 95 94 69 79 78 76 84 82 72 75 90 85 89 91 76 99 96 77 74 75 95 95 99 90 56 57 68 68 91 66 62 68
96 98 98 98 97 85 37 58 65 91 99 97 94 92 87 72 76 84 82 78 77 78 90 94 94 90 76 97 90 99 95 96 98 97 96 85 59 54 67 74 60 56 58 61
88 96 99 98 99 96 87 68 70 63 98 97 82 85 89 93 88 85 76 79 85 94 91 90 90 90 82 86 75 92 88 96 99 97 98 93 51 72 73 57 55 57 59 63
92 90 96 94 90 100 94 96 79 80 93 60 65 85 90 90 84 97 89 77 84 80 92 93 91 91 86 89 73 71 89 74 83 84 78 50 48 52 50 55 58 59 62 66
97 97 100 97 85 88 91 99 99 93 93 62 65 16 40 66 80 87 99 83 78 77 78 86 91 91 84 85 81 83 67 58 71 70 59 57 51 48 53 53 54 56 61 66
98 98 98 97 99 87 95 100 92 99 79 90 66 88 82 72 81 85 94 97 78 77 77 87 93 92 82 89 84 91 79 71 68 74 71 59 58 54 53 54 56 64 66 74
98 94 98 95 93 84 91 98 94 97 93 89 91 59 74 81 97 90 86 90 80 79 90 95 94 86 88 86 81 90 73 81 84 78 60 60 56 53 54 56 57 63 72 76
95 96 93 96 92 97 100 95 100 92 98 93 93 97 98 99 100 93 81 82 84 82 84 90 86 81 79 97 94 72 63 63 62 67 59 61 58 56 53 56 57 62 68 71
85 83 93 94 86 95 99 80 91 93 98 96 98 99 99 100 100 100 99 92 92 86 86 93 90 88 86 94 92 60 73 86 79 72 70 66 59 57 58 58 58 63 69 70
39 52 69 83 77 80 84 81 76 90 91 96 99 98 98 100 100 99 96 98 92 92 87 93 96 90 90 99 80 79 82 70 72 72 68 68 63 60 61 62 61 63 66 67
34 75 90 93 84 95 96 88 94 90 99 98 99 100 100 97 92 99 96 97 99 91 97 95 91 92 98 84 73 71 73 74 69 60 76 68 66 66 66 66 64 64 67 69
54 94 97 92 96 94 87 97 99 99 99 99 99 99 96 99 87 99 94 97 95 100 97 98 99 93 82 69 71 78 85 87 87 84 77 74 71 69 69 68 65 65 66 67
50 86 96 90 81 97 96 99 99 98 100 99 99 100 97 90 91 98 93 100 100 100 94 91 97 94 74 75 70 75 86 91 86 84 81 75 80 74 71 70 67 67 68 75
46 77 99 99 99 99 99 98 98 100 99 99 99 100 100 94 88 91 94 97 99 98 87 94 91 91 82 76 74 77 87 89 88 81 82 80 79 74 70 72 67 66 73 87
92 99 99 98 99 99 100 96 98 99 99 99 99 99 97 91 85 94 92 93 94 86 95 87 90 90 84 82 80 76 84 85 88 81 78 75 73 71 69 72 70 67 89 91
94 94 97 98 98 97 94 98 100 100 100 100 100 100 99 98 97 92 89 90 86 93 82 84 97 97 88 85 83 81 81 83 82 94 86 73 70 73 76 79 87 74 78 83
92 96 98 96 83 88 88 90 87 98 100 100 100 99 98 100 97 93 95 96 93 77 88 97 98 93 91 90 90 86 81 79 79 79 90 81 73 81 86 96 97 90 82 78
92 93 99 87 92 93 89 89 87 94 99 100 100 100 100 100 96 97 93 83 88 94 99 98 89 89 84 74 74 84 80 79 80 81 78 77 77 79 90 95 99 94 92 91
96 97 91 90 95 98 86 88 94 95 96 100 100 99 91 98 96 99 88 92 98 99 98 84 79 83 84 71 52 57 73 76 74 76 80 79 76 79 81 82 91 97 93 90

GFSNW_850_rhum_021.txt.gz
RH
6 13 62 70 62 55 56 63 89 80 84 96 99 100 98 95 83 80 78 58 70 71 73 80 73 77 66 52 58 65 55 77 96 80 62 61 66 74 77 84 78 96 94 82
9 4 27 74 63 64 56 66 76 72 84 96 98 86 87 90 84 83 72 56 56 63 69 77 66 67 52 52 58 64 57 80 93 85 73 69 73 74 72 76 82 92 92 74
10 6 5 49 78 69 69 77 93 75 83 92 93 86 90 83 69 75 54 58 55 56 60 57 72 63 60 54 52 49 51 75 76 84 73 80 89 79 76 77 98 87 79 70
26 8 4 11 72 77 79 82 99 99 99 87 89 78 85 88 88 69 56 54 53 57 69 69 76 65 62 61 58 62 61 87 90 85 78 78 75 74 79 88 72 90 66 70
52 20 7 5 48 74 77 93 93 92 96 88 89 84 85 82 77 78 73 65 64 56 69 63 79 69 65 62 62 65 66 95 90 91 81 88 95 85 83 78 75 74 71 73
64 46 14 8 10 73 85 94 100 99 83 90 85 76 74 76 68 69 77 72 79 86 80 73 55 51 51 55 69 77 72 92 90 97 74 86 93 83 80 79 76 72 85 62
80 73 38 16 12 38 99 99 98 93 90 93 85 80 70 73 73 69 78 74 74 79 72 63 60 62 59 60 61 63 83 86 90 99 83 93 58 58 64 68 66 71 70 67
79 86 67 52 57 22 57 99 96 98 87 84 88 87 80 70 72 77 79 85 83 76 71 83 77 78 68 74 66 72 67 83 99 98 93 78 58 73 76 73 71 67 76 73
91 89 90 83 79 56 35 56 85 99 98 92 95 97 84 80 77 77 87 81 76 74 89 83 89 92 75 96 95 77 73 72 93 90 93 92 54 63 67 67 76 60 68 67
96 89 93 97 95 89 61 64 47 77 99 97 94 97 97 84 79 82 86 79 79 74 90 92 94 93 77 96 96 100 100 99 96 90 96 84 60 52 68 73 65 54 58 59
100 97 90 97 94 93 93 76 61 63 90 76 69 94 90 92 95 86 78 81 85 93 88 92 93 90 88 89 74 92 91 98 99 98 98 94 60 74 73 58 57 60 60 60
99 97 96 91 97 93 97 98 98 98 95 48 44 48 65 72 73 97 98 78 84 81 90 91 92 94 88 88 90 77 91 80 90 84 76 52 54 56 47 50 58 58 61 60
89 100 98 81 98 91 92 98 99 99 100 90 89 40 19 29 31 80 93 87 76 81 73 85 91 85 85 97 90 85 73 61 75 75 63 64 55 54 55 56 55 56 60 61
88 100 98 92 89 94 92 98 91 100 98 99 70 63 52 77 78 57 68 91 93 80 80 85 92 87 77 86 79 85 77 78 74 74 72 63 58 55 55 54 55 58 60 64
87 96 99 89 88 92 88 94 98 100 99 94 79 67 32 24 64 86 82 82 99 86 88 93 92 87 88 90 84 90 68 83 88 87 65 68 62 58 59 56 55 56 57 67
86 96 91 86 90 93 94 98 91 91 97 99 97 55 38 57 68 76 94 94 100 80 80 91 86 80 77 97 96 71 68 70 79 76 84 78 67 64 59 59 58 57 58 66
92 86 51 87 86 95 99 84 93 87 99 88 89 93 86 87 93 100 97 100 100 88 81 92 88 88 82 94 92 69 85 76 73 82 70 77 65 63 58 60 59 59 60 66
87 41 73 83 81 81 86 90 90 90 91 97 98 96 100 96 100 100 97 100 91 92 88 94 95 94 92 99 85 67 63 60 57 76 66 64 76 72 66 63 62 63 62 65
57 66 92 93 91 92 91 85 94 97 98 99 99 98 100 97 92 97 90 88 98 97 96 95 88 92 99 84 73 68 68 81 83 73 67 58 72 71 68 67 68 68 64 65
38 83 98 91 98 96 97 99 99 99 98 99 99 99 98 98 85 100 92 92 97 100 94 96 99 96 82 75 70 70 74 84 89 97 87 76 79 77 74 71 71 70 66 66
42 76 95 93 92 95 98 99 99 98 97 98 98 100 99 89 92 97 93 99 100 99 95 97 99 96 77 74 69 75 82 87 90 96 90 87 85 75 79 78 75 71 67 66
52 66 96 99 98 99 100 96 97 100 99 99 98 99 100 100 90 94 98 99 99 98 88 93 83 94 87 78 74 73 83 88 90 92 88 82 84 79 79 76 76 72 67 68
81 99 98 99 99 99 97 97 97 99 96 100 99 100 99 98 92 96 93 92 95 87 96 88 92 93 84 79 78 75 83 86 86 100 92 81 77 75 73 71 73 72 68 71
93 90 95 97 98 98 94 98 100 99 100 99 100 100 99 99 98 94 85 94 87 99 94 83 98 94 88 86 84 80 79 82 84 85 99 93 92 85 80 77 78 86 73 76
89 96 99 98 84 87 91 90 87 95 99 100 99 100 98 100 92 92 96 99 90 84 88 98 94 88 83 73 70 81 80 77 77 80 80 84 86 86 88 91 98 99 92 89
89 97 100 89 96 90 89 84 86 90 95 100 100 100 100 100 97 97 94 91 90 90 99 93 87 87 80 72 56 58 75 78 75 75 77 78 76 76 81 90 99 100 100 97
98 98 91 91 94 94 90 90 92 98 98 99 100 98 89 99 98 99 91 92 93 98 86 77 76 76 80 73 43 41 53 60 67 71 73 76 78 76 75 79 89 100 100 100

GFSNW_850_rhum_024.txt.gz
RH
12 7 6 51 53 47 49 65 86 70 78 93 99 99 98 90 84 80 72 63 68 74 74 77 70 80 61 54 56 64 56 80 97 77 64 63 66 74 75 82 76 94 94 76
19 9 5 13 62 54 65 67 63 67 74 99 95 85 87 89 83 78 73 59 58 61 69 73 66 67 55 54 54 60 61 79 94 85 71 69 74 74 70 74 82 97 88 65
21 13 8 4 58 61 68 73 94 76 73 85 92 84 91 82 70 71 56 61 55 58 61 66 70 66 63 57 52 49 52 74 76 83 72 81 92 82 78 76 96 84 84 71
42 18 10 5 26 70 72 83 98 98 98 90 91 87 87 84 85 72 60 56 56 61 72 72 75 67 65 61 58 62 62 88 88 83 77 79 76 76 84 85 77 82 69 74
73 31 24 9 9 73 78 95 95 91 92 89 89 80 81 86 79 81 68 69 72 59 67 64 79 70 66 66 62 66 68 96 93 93 75 88 97 87 81 82 76 73 69 73
90 47 43 36 7 49 88 96 99 98 84 88 82 80 77 78 71 72 82 73 79 83 82 76 58 53 54 58 71 76 73 92 92 96 77 84 90 87 82 81 77 70 83 60
97 81 72 69 46 27 94 100 99 92 94 94 87 86 80 78 79 71 81 75 71 79 68 66 59 58 62 60 66 64 80 83 91 98 82 86 54 61 64 70 65 71 66 62
99 80 88 92 88 62 45 60 99 96 90 78 88 94 94 74 73 80 79 85 82 75 71 79 76 74 68 75 67 72 67 84 98 97 87 76 58 78 74 71 64 67 67 61
99 95 76 94 86 95 69 50 48 95 92 89 92 84 94 86 79 75 84 82 81 78 86 82 88 79 77 90 95 77 73 79 94 83 81 95 52 64 68 61 75 56 70 72
99 99 93 85 88 85 82 77 66 53 93 83 99 97 95 96 85 83 88 81 79 77 89 90 90 92 79 91 98 99 100 100 92 93 94 83 60 54 66 74 65 52 60 61
90 98 100 99 86 85 91 86 73 82 67 46 47 81 96 90 96 92 82 84 85 91 87 89 92 92 91 89 83 90 90 93 96 89 99 92 61 75 70 60 57 57 60 60
95 95 98 100 97 80 94 98 99 94 97 66 55 49 53 60 74 97 98 85 82 79 90 92 91 92 94 87 94 78 92 82 90 87 79 52 55 62 53 50 53 57 58 58
98 83 99 100 99 96 91 100 96 98 100 94 97 60 45 45 34 42 99 96 87 80 72 85 90 88 91 99 95 82 75 64 73 79 67 70 57 54 60 60 57 57 58 59
99 98 97 99 99 88 92 98 97 98 96 98 72 60 57 60 53 78 39 77 99 100 85 82 91 86 78 88 78 87 79 77 80 75 69 63 58 62 59 60 58 58 58 58
99 98 98 98 88 82 88 82 82 97 99 97 88 88 59 56 65 52 64 52 82 98 98 93 92 88 88 91 89 94 78 79 86 84 68 77 73 64 64 65 63 61 60 58
99 98 99 92 66 84 92 98 88 94 90 98 98 70 56 48 38 44 41 73 95 98 97 87 86 78 75 92 96 72 68 70 75 82 81 80 75 70 70 70 64 62 60 59
98 98 88 58 80 83 90 87 85 87 89 98 93 92 84 97 66 83 84 94 99 99 93 90 89 90 81 91 84 82 84 78 67 65 71 82 72 70 74 76 69 63 62 62
99 92 56 83 79 79 81 78 90 90 97 94 98 94 99 98 90 89 96 100 98 100 91 95 94 97 90 96 80 74 68 64 61 73 71 70 65 63 68 75 72 66 65 65
98 60 90 90 96 90 91 92 95 100 97 98 98 98 97 99 95 99 96 98 100 99 96 96 89 96 96 87 79 71 71 69 67 61 65 73 75 71 71 74 72 71 70 68
80 53 98 90 95 96 94 100 99 99 98 99 100 98 98 100 99 97 96 96 98 94 92 95 99 96 86 77 74 70 70 72 77 81 82 82 77 79 79 81 79 76 73 70
61 53 91 94 98 95 100 99 99 98 99 98 98 99 98 99 94 97 88 99 99 95 99 96 97 93 88 81 73 71 74 75 82 89 94 94 93 88 87 75 79 82 77 69
96 66 76 94 97 94 100 97 96 99 96 98 98 100 100 98 90 94 97 99 98 97 93 99 96 94 88 77 77 77 78 82 85 89 97 95 89 87 87 82 80 77 77 70
83 94 97 98 95 99 99 95 96 94 99 100 99 99 100 98 92 97 98 95 97 90 98 91 92 95 88 87 83 77 79 83 83 86 99 100 97 88 82 78 74 74 73 69
72 92 96 98 96 92 96 96 98 98 98 99 100 100 100 99 100 96 90 96 90 98 99 86 99 91 90 83 82 79 78 78 82 85 86 99 100 97 90 84 79 80 83 74
64 94 97 97 85 90 87 90 95 86 94 100 98 99 99 100 97 94 99 100 97 88 87 96 95 90 79 65 59 66 76 79 80 80 82 81 84 92 95 93 97 99 99 86
79 99 99 86 97 90 88 88 87 94 98 98 100 100 100 99 99 96 92 89 88 87 97 92 87 84 75 75 48 49 61 58 64 74 76 80 81 80 81 86 93 100 99 100
96 94 93 94 95 94 88 92 90 94 98 98 100 99 94 99 99 98 96 92 90 86 89 83 82 81 80 70 38 32 29 27 28 36 59 70 76 80 81 82 89 97 100 100

GFSNW_850_rhum_027.txt.gz
RH
44 16 9 4 23 51 48 50 85 72 62 86 97 99 98 88 84 77 63 66 70 77 74 75 72 76 62 55 55 64 60 80 92 77 66 63 65 73 67 76 75 88 82 54
72 58 14 6 7 65 63 64 61 66 64 96 96 80 83 88 82 76 68 61 61 61 70 74 66 65 58 55 53 63 61 77 94 84 74 70 74 75 67 71 79 96 73 48
81 75 37 10 5 66 70 73 89 72 73 88 86 91 91 84 73 68 58 62 56 58 64 67 72 67 68 58 51 52 53 72 72 71 68 80 89 82 71 74 87 79 76 61
87 88 48 13 6 68 71 83 98 98 98 88 93 88 85 83 87 75 60 59 56 61 73 73 74 69 70 61 64 62 60 87 86 76 68 81 78 79 82 84 74 78 60 70
94 90 68 27 8 34 75 96 97 89 92 91 90 78 81 83 79 83 68 68 73 58 67 62 79 71 70 70 65 65 68 95 92 87 76 87 95 84 81 79 72 74 71 71
93 85 77 72 27 12 92 99 98 96 88 91 86 84 77 77 76 78 79 72 74 79 81 78 66 55 55 61 72 76 71 93 89 88 76 82 93 84 83 78 78 67 81 60
93 87 78 88 88 38 47 83 97 94 94 93 93 90 92 83 83 72 81 76 69 72 67 62 57 60 64 64 68 62 78 83 90 93 78 86 51 62 67 71 67 70 65 61
91 95 93 91 88 88 50 42 71 90 82 78 87 89 96 87 73 79 79 83 77 74 70 77 77 73 66 76 78 71 62 80 98 95 84 69 62 76 76 75 66 63 64 56
88 99 100 90 86 78 78 64 52 80 87 80 86 78 83 98 85 79 83 86 86 77 85 81 86 90 74 93 94 78 79 74 81 84 87 86 53 67 65 64 81 60 63 64
97 95 98 99 91 85 83 82 76 61 86 76 88 93 88 90 94 91 84 87 85 81 88 88 90 89 75 94 89 97 100 100 97 91 88 81 58 57 66 76 68 52 61 63
98 99 98 99 99 88 76 82 88 90 77 52 50 64 74 78 86 95 86 89 87 90 88 86 88 91 93 90 82 74 82 95 83 76 88 94 59 71 70 59 54 55 59 60
98 99 99 99 100 99 92 87 91 88 90 61 58 62 68 62 58 88 93 99 88 80 89 92 91 92 95 90 84 82 94 80 88 79 77 54 60 59 53 55 58 60 58 59
97 99 97 99 99 99 93 85 91 100 100 84 87 52 62 56 54 53 90 86 98 92 89 84 90 87 91 97 85 86 79 70 81 80 67 72 57 57 61 61 62 59 58 60
99 99 98 98 99 98 90 90 100 99 94 97 75 56 48 48 73 58 58 57 96 94 99 89 92 89 82 92 79 85 81 79 81 84 73 64 66 65 64 65 63 63 64 62
99 99 95 99 98 91 78 84 98 100 98 94 92 80 61 63 70 70 72 61 60 84 98 99 93 87 89 93 90 94 82 84 92 92 69 70 66 63 72 72 71 62 67 64
100 99 98 93 65 89 98 95 89 89 89 97 96 70 60 52 68 67 79 74 69 88 99 94 83 77 72 96 95 73 70 67 70 79 83 76 71 78 75 74 74 67 65 64
99 99 94 69 93 84 91 88 87 95 95 98 96 88 58 79 90 84 93 86 79 95 98 99 93 91 78 92 95 72 72 70 78 73 66 65 76 75 75 68 66 73 70 66
98 98 90 87 85 84 84 82 82 94 97 97 98 95 92 96 94 73 77 82 84 100 99 99 96 99 93 97 81 81 75 70 66 68 71 66 60 60 60 59 69 74 71 68
96 97 51 96 99 95 92 82 92 98 99 99 98 98 95 90 96 97 92 97 99 99 97 98 87 99 92 82 84 78 74 68 68 66 62 67 77 80 77 76 78 75 72 73
84 77 97 97 94 92 88 98 99 99 100 99 98 98 98 100 100 99 98 100 99 100 98 95 93 93 90 81 78 75 70 68 68 72 72 84 85 88 82 81 82 83 79 78
87 78 68 86 84 80 99 99 100 99 96 98 98 98 98 99 100 98 98 99 100 99 100 96 100 87 93 85 77 73 70 70 77 85 90 96 100 97 90 85 84 82 82 83
99 94 90 96 91 93 100 98 96 98 95 99 98 99 100 98 99 93 95 100 98 97 96 98 98 92 92 83 80 77 76 80 87 88 92 100 100 98 91 87 87 83 82 81
87 93 97 99 96 99 97 95 95 98 99 100 99 98 100 98 96 95 96 95 88 94 99 94 95 95 89 87 85 85 83 84 85 84 92 100 100 100 96 84 80 77 75 73
69 94 96 96 96 95 94 94 97 97 100 99 100 99 100 99 100 96 99 97 92 96 97 91 92 92 91 85 85 80 79 80 80 81 82 85 98 99 100 100 97 94 87 85
74 87 86 96 82 88 86 87 100 89 96 98 99 99 100 100 100 98 99 98 93 86 84 93 93 89 79 64 60 69 68 67 72 75 74 77 78 83 86 87 91 98 100 99
72 97 98 83 98 88 86 85 87 97 99 100 100 99 99 99 100 99 94 92 87 87 96 89 88 82 69 57 46 47 44 35 34 46 56 67 71 75 78 80 84 94 99 99
76 89 84 91 91 91 81 91 89 89 92 99 99 99 98 99 99 98 97 91 90 74 84 82 81 71 72 68 39 31 25 22 20 21 28 38 51 65 73 75 78 82 95 99

GFSNW_850_rhum_030.txt.gz
RH
50 46 63 14 6 39 50 53 81 66 60 82 86 94 89 84 73 73 55 56 60 60 62 64 63 53 54 50 46 51 53 65 80 69 58 54 53 53 44 49 69 62 57 31
46 43 61 21 7 62 67 63 63 64 55 78 78 68 70 75 66 64 55 56 54 54 58 63 57 58 55 54 47 50 49 66 88 85 66 60 65 58 52 54 62 77 49 33
64 57 65 28 10 52 71 80 86 71 69 90 71 76 73 69 72 60 55 55 49 50 53 51 58 59 62 56 49 54 46 58 67 54 70 63 80 65 57 58 69 54 44 37
75 73 75 30 12 25 76 89 94 89 87 78 76 79 76 71 70 68 58 54 51 48 56 56 58 60 59 56 62 54 50 91 80 58 60 70 66 65 65 77 55 60 41 46
88 82 76 43 15 21 82 97 93 88 86 85 74 72 72 75 71 75 58 56 54 50 50 45 57 55 55 56 60 53 56 92 85 81 69 72 80 64 61 62 58 55 49 50
86 86 84 76 46 22 60 97 96 92 84 75 70 73 72 72 72 72 76 62 59 60 61 66 60 52 48 48 54 58 59 87 83 76 64 66 74 65 63 62 59 55 62 44
89 91 97 92 73 62 42 80 92 87 76 73 74 77 84 77 78 77 73 75 60 68 61 60 57 56 57 54 56 50 61 76 83 81 69 77 52 51 51 57 51 53 48 45
86 86 96 96 93 71 66 49 56 97 66 70 68 76 86 83 74 72 78 83 83 73 71 58 60 61 61 68 66 56 50 61 85 82 72 53 49 63 60 62 59 48 50 43
88 90 93 98 97 86 72 73 56 60 82 58 78 69 74 86 76 65 79 89 86 79 68 65 71 65 56 73 77 64 61 54 60 70 78 59 46 60 61 54 68 53 49 49
90 90 92 96 100 98 83 79 78 72 74 58 83 70 70 85 94 82 75 88 87 81 72 71 69 65 54 73 79 88 78 80 76 73 68 50 38 54 64 67 60 52 59 59
93 94 96 97 99 99 96 84 81 82 87 59 53 62 72 58 73 84 87 86 88 86 85 78 72 66 64 67 58 63 66 75 82 74 78 79 50 60 54 50 55 55 61 62
89 94 93 95 99 99 98 86 80 94 100 77 67 72 69 59 53 78 84 97 89 78 79 75 73 72 73 66 72 60 73 57 56 54 52 41 55 54 58 59 63 64 62 59
89 97 95 97 98 99 99 99 88 97 100 83 91 83 59 61 60 56 66 81 97 99 99 83 78 74 69 77 66 66 65 61 61 64 47 51 53 60 60 61 62 62 62 62
92 92 98 96 98 97 99 99 91 90 95 96 87 77 60 52 56 62 62 65 95 87 96 96 82 74 69 68 59 60 61 65 60 60 57 61 63 63 65 67 65 61 62 63
97 95 97 98 99 91 70 90 94 98 99 89 83 78 59 59 60 78 67 73 86 89 95 100 92 77 75 72 69 68 66 65 66 59 55 52 56 68 69 72 71 70 68 61
93 98 98 96 98 86 93 92 86 80 99 99 93 75 63 59 71 65 78 79 93 92 90 97 99 78 69 78 73 56 64 68 68 58 64 70 68 65 66 76 72 68 71 68
97 98 96 95 79 87 87 90 82 95 96 97 88 80 55 70 97 98 88 98 90 80 84 94 98 89 77 80 69 53 64 69 70 73 75 69 67 74 75 72 59 61 67 72
98 95 92 95 86 88 83 82 84 93 99 100 92 88 78 94 96 80 86 91 88 88 86 95 97 100 87 87 67 74 77 76 75 72 69 68 66 60 60 66 63 63 71 74
85 85 85 91 98 94 90 90 95 99 100 98 92 91 88 98 99 98 85 84 79 76 97 94 95 98 97 72 74 75 76 72 72 73 72 65 63 72 78 78 76 76 75 74
81 74 87 96 94 89 78 99 99 100 99 100 95 98 94 99 100 98 95 99 95 98 96 99 97 98 86 82 82 80 77 72 67 66 68 73 84 90 89 86 86 84 79 80
88 90 71 84 90 84 96 99 99 98 94 99 98 99 96 99 100 100 100 100 100 100 100 100 97 84 84 87 80 76 72 70 67 69 77 88 94 97 95 91 90 90 84 81
100 95 90 91 91 95 96 92 92 93 91 98 97 98 99 98 100 99 97 100 99 98 97 96 95 82 96 88 82 77 74 72 77 84 88 97 100 100 99 96 89 88 88 83
86 79 87 92 94 92 91 93 90 93 99 99 99 96 99 100 100 97 96 99 94 95 99 86 78 92 91 86 82 80 80 83 87 87 87 92 98 99 100 99 87 81 79 78
78 69 67 88 87 87 88 84 90 89 99 98 99 99 98 100 99 92 100 100 96 96 90 77 83 92 90 86 84 80 82 83 82 81 81 81 88 100 99 100 100 100 97 91
83 74 60 88 81 81 80 84 92 87 93 98 99 98 100 99 100 100 98 95 87 74 74 76 89 84 81 75 79 74 69 67 69 68 70 72 76 78 79 80 86 94 99 99
81 85 95 82 93 82 82 76 82 90 92 98 100 98 98 99 100 100 95 92 83 79 90 80 86 84 68 56 56 54 36 27 25 32 37 43 50 57 67 74 77 81 89 100
82 82 76 79 76 77 67 74 81 87 88 95 97 97 99 98 100 97 90 86 84 77 80 85 82 76 64 50 42 33 26 22 19 17 20 25 32 46 57 60 70 77 80 91

GFSNW_850_rhum_033.txt.gz
RH
58 47 40 56 17 7 51 70 81 63 65 70 62 74 76 76 59 58 47 47 48 47 48 50 48 46 46 43 39 45 47 58 79 66 52 47 46 45 42 51 63 46 48 35
60 53 49 60 18 8 65 79 70 63 60 70 56 58 58 61 52 52 45 48 47 45 47 54 50 47 47 47 41 42 44 64 88 78 60 53 59 50 46 45 54 69 47 36
68 62 67 60 18 11 70 86 86 65 67 72 48 54 53 56 65 50 47 46 42 45 46 40 51 52 52 49 44 48 41 49 68 58 72 52 67 54 51 55 68 45 36 34
74 76 77 61 20 21 82 88 86 85 75 60 61 63 61 56 57 56 49 48 44 41 47 44 48 49 52 50 56 46 44 91 77 49 54 62 60 54 55 71 54 50 32 30
85 88 85 66 25 22 92 92 97 85 65 66 60 64 60 62 58 60 48 50 43 40 42 38 45 46 46 47 49 47 48 86 77 83 58 61 69 56 51 53 52 44 39 40
89 85 86 80 49 20 76 91 94 95 70 59 57 58 62 64 62 62 61 53 46 47 45 47 46 40 38 40 48 51 53 82 87 72 57 59 69 57 54 51 48 44 50 37
88 85 86 95 80 56 70 54 94 87 59 55 60 64 68 66 67 69 59 61 54 61 58 52 47 44 44 44 43 42 53 70 77 81 68 81 52 44 41 46 45 44 39 35
88 84 83 88 91 83 70 59 63 75 52 41 48 62 67 67 62 63 67 71 79 65 61 52 57 56 53 54 48 46 40 50 71 78 63 45 35 42 52 53 52 42 44 39
85 89 87 89 92 94 87 77 52 80 63 50 66 54 56 69 59 57 66 85 88 77 58 55 61 60 47 61 62 52 47 44 58 61 68 57 46 49 46 44 62 42 40 40
89 91 89 87 90 93 86 85 76 58 70 45 63 50 64 68 72 69 62 74 79 79 62 65 58 54 43 56 63 70 67 60 70 62 62 47 33 54 53 69 63 50 48 50
86 89 90 89 95 92 92 97 77 82 88 77 72 62 56 45 51 63 78 75 80 80 77 66 60 52 48 47 46 54 59 64 64 57 66 72 39 56 57 50 51 52 56 58
86 92 92 91 91 94 99 99 86 88 95 84 71 71 74 68 62 69 69 86 78 79 72 57 53 51 50 50 56 42 58 45 48 47 48 36 42 40 53 57 55 58 62 63
86 93 94 96 95 98 99 100 97 97 98 87 81 82 73 54 57 70 58 60 91 99 100 91 74 67 47 57 53 52 47 42 54 49 40 40 42 53 56 61 62 64 65 62
90 93 98 100 98 96 98 85 100 94 96 96 71 66 66 74 58 58 77 57 79 86 92 99 86 74 47 49 46 47 45 51 56 50 43 52 49 46 48 64 65 64 64 63
88 91 97 94 99 93 78 88 92 95 99 88 85 80 66 58 73 60 64 81 80 75 87 97 100 69 63 57 55 54 51 51 57 52 39 40 41 53 62 69 72 66 64 63
93 91 98 94 98 80 80 99 75 76 80 97 82 81 78 60 60 70 89 88 86 80 75 77 80 88 96 67 57 39 41 48 46 43 53 54 62 69 72 68 72 72 72 69
92 95 92 92 95 87 83 89 81 92 95 96 84 78 70 66 98 99 94 87 89 82 86 66 69 82 99 86 60 42 45 49 59 67 68 65 67 64 72 72 67 57 54 58
92 92 91 81 94 90 94 82 84 88 99 98 89 83 76 85 96 78 87 81 88 78 65 59 61 61 95 99 64 50 56 60 67 69 70 68 67 65 63 59 60 64 62 66
80 81 78 97 98 98 89 88 92 98 99 96 94 92 95 99 98 98 84 79 74 62 70 61 55 74 99 85 67 64 66 65 64 72 71 70 68 65 65 77 80 85 81 74
72 75 92 100 87 87 85 99 98 100 99 98 94 99 94 99 99 98 96 83 96 79 63 68 83 88 84 86 80 70 73 73 70 68 68 64 70 80 87 93 95 98 94 85
95 94 93 78 81 82 97 99 99 99 95 99 98 99 96 100 99 100 99 100 98 100 98 93 100 96 80 84 82 84 80 75 70 66 65 69 81 89 94 99 99 99 96 92
97 84 82 81 94 98 95 94 97 97 96 98 97 89 95 98 100 99 100 100 100 99 100 100 96 82 87 84 86 81 77 74 72 70 74 82 86 92 98 99 98 89 86 90
78 63 73 98 89 88 82 84 82 85 93 93 96 93 91 98 100 99 99 100 95 93 100 79 74 87 90 90 87 81 76 77 78 81 82 82 85 94 100 100 100 98 85 84
82 78 62 86 84 78 80 77 83 90 88 95 94 88 90 98 98 100 100 94 93 91 90 77 79 83 84 89 87 88 85 85 84 83 81 81 86 95 100 99 99 99 100 100
86 80 70 75 72 80 78 75 79 77 78 100 94 95 99 98 100 100 100 98 87 67 72 82 90 89 83 84 86 82 78 75 73 73 73 75 78 77 79 77 78 83 91 97
84 84 92 79 87 83 86 80 92 80 93 97 99 98 98 96 99 100 99 94 88 82 98 90 90 86 75 68 69 58 41 32 34 40 37 37 44 53 56 59 69 77 79 90
89 92 82 90 88 84 77 71 75 83 93 85 93 93 97 93 98 96 84 88 94 98 92 90 90 82 64 52 48 37 26 24 21 19 17 20 26 32 34 33 41 55 69 78

GFSNW_850_rhum_036.txt.gz
RH
55 62 56 55 33 9 40 80 92 66 61 89 64 86 65 66 53 54 46 46 48 47 46 45 46 53 51 41 39 48 50 65 93 92 58 50 67 67 63 85 75 64 68 50
67 75 73 60 21 13 59 88 68 69 61 82 63 57 55 54 51 49 44 46 46 44 43 50 48 52 46 45 46 49 49 76 94 78 66 55 63 54 55 55 74 81 80 52
89 84 71 56 21 25 77 85 89 75 73 63 62 58 53 59 62 50 45 44 42 45 45 39 51 55 51 47 47 44 43 56 78 85 73 67 74 61 57 67 90 61 56 44
87 77 72 65 22 46 93 81 86 81 96 70 65 58 58 54 60 55 47 48 45 42 47 44 48 53 56 50 51 46 52 88 74 50 54 68 64 61 60 76 67 71 42 37
86 79 79 71 42 47 59 94 93 90 73 62 61 69 58 61 57 58 48 52 42 39 44 41 49 50 48 49 52 50 55 93 83 81 55 59 72 64 55 60 60 58 52 45
81 77 82 82 72 27 52 68 92 96 66 58 58 69 66 62 64 60 57 59 57 47 66 56 48 40 37 42 53 56 61 91 92 84 57 61 82 68 62 57 53 54 63 43
78 80 83 87 83 66 56 55 92 74 67 52 63 62 62 65 66 72 61 63 60 58 53 48 44 42 41 43 44 44 61 79 92 94 76 95 54 46 47 53 50 49 44 40
79 90 82 87 83 84 76 57 46 78 59 39 45 52 55 61 59 64 65 77 79 61 62 58 58 60 54 50 47 49 47 65 88 94 89 61 48 53 53 56 55 44 48 42
82 90 84 90 86 87 86 79 72 65 69 50 50 49 42 68 70 57 66 79 81 76 74 66 71 82 56 71 68 54 49 50 65 73 82 75 62 48 44 46 82 46 44 47
78 84 87 86 88 85 90 98 73 85 76 55 61 60 77 67 72 75 61 73 73 78 76 71 71 71 43 61 58 73 75 70 85 78 68 62 58 55 50 84 73 44 41 42
79 85 89 90 92 90 92 91 96 82 88 76 78 67 58 52 44 64 64 75 76 73 83 78 73 67 55 50 46 62 72 79 77 70 74 82 56 60 71 60 53 55 53 55
82 83 85 86 94 91 99 98 99 98 95 70 69 69 66 68 57 66 60 70 76 99 96 81 69 64 52 54 67 48 66 57 63 59 62 45 43 48 54 54 54 58 60 60
86 85 91 96 92 90 97 99 91 97 94 82 79 74 71 66 61 67 65 54 88 93 98 99 95 88 60 67 63 55 48 43 60 52 45 45 42 50 55 59 60 62 63 60
89 91 91 96 93 97 86 88 92 94 92 93 72 70 71 76 77 64 65 66 70 73 77 98 99 89 54 66 59 60 54 52 58 60 51 50 46 46 54 58 62 62 62 60
100 94 94 90 90 90 78 77 73 84 86 89 91 76 72 58 73 74 78 82 80 80 78 90 91 99 88 69 69 73 54 63 73 70 45 45 45 45 48 60 66 66 61 62
98 95 95 93 90 86 82 96 80 70 85 96 90 74 76 65 60 70 80 82 85 82 76 75 71 67 97 99 77 52 43 44 46 49 49 55 57 56 62 65 69 63 65 68
96 94 92 86 79 91 85 80 81 84 88 94 88 85 73 67 85 95 91 90 87 81 80 74 71 64 94 100 94 57 47 40 46 54 57 67 68 67 66 65 66 64 57 55
94 86 81 80 91 88 92 82 88 94 93 90 96 90 81 85 95 91 86 83 89 91 82 72 67 63 68 92 78 77 80 52 56 63 68 65 68 68 66 65 62 61 62 64
83 74 83 93 93 94 88 87 87 98 97 98 93 97 97 99 98 99 96 80 85 68 84 73 64 75 92 74 58 74 88 63 66 68 70 70 68 68 67 73 79 83 83 81
80 81 96 93 79 74 78 98 99 99 99 98 94 95 96 96 98 98 99 97 92 98 80 67 80 79 53 52 81 85 80 70 70 71 75 69 64 75 80 82 82 87 93 91
89 96 95 78 79 86 94 99 98 98 97 98 93 98 98 85 99 100 99 98 99 99 96 89 99 90 82 75 78 79 73 74 73 70 69 64 72 80 85 91 91 91 90 90
91 67 60 75 99 93 92 96 96 95 98 96 98 88 90 91 99 98 99 99 99 99 100 100 99 100 97 98 92 86 87 78 74 74 72 73 80 84 95 99 99 98 90 84
74 62 63 86 84 87 82 92 89 94 95 93 95 91 86 91 99 99 100 100 98 95 100 98 99 90 88 88 88 85 82 79 78 76 79 83 85 85 91 99 99 100 100 96
84 74 66 89 90 89 91 92 96 87 83 83 94 95 85 87 97 99 100 98 99 99 98 94 99 85 85 88 86 83 85 86 87 87 86 84 86 89 89 95 87 93 98 99
89 80 83 91 72 70 67 61 62 67 73 92 93 92 97 94 99 92 99 98 97 97 94 100 96 91 84 84 86 84 84 85 83 83 80 76 73 68 66 68 72 77 79 82
89 84 93 75 76 82 79 78 71 77 66 75 94 98 99 95 99 99 99 99 98 100 100 100 97 98 87 80 78 64 47 41 43 39 34 32 33 32 34 38 44 54 59 76
97 94 81 87 85 77 75 70 72 74 61 97 87 94 95 96 99 98 99 100 100 100 99 99 99 97 98 68 63 48 28 26 22 20 18 18 18 20 18 18 19 30 46 57

GFSNW_850_rhum_039.txt.gz
RH
87 70 59 48 18 10 49 88 96 74 66 93 89 92 70 64 57 55 55 51 54 55 51 53 66 68 57 46 50 72 53 82 99 99 81 71 70 76 65 87 77 74 81 60
81 66 60 49 21 38 77 87 79 83 78 95 81 60 64 63 60 53 52 50 48 47 50 58 58 62 48 47 52 53 55 81 97 99 90 78 90 80 75 67 74 82 78 55
67 65 61 47 17 54 89 86 87 84 89 69 68 66 60 68 58 56 48 48 46 48 47 41 59 66 52 48 49 46 46 68 76 82 72 78 82 73 74 92 96 71 69 47
65 69 66 56 19 40 76 82 90 81 95 82 74 65 63 58 63 61 49 52 49 52 50 48 58 61 60 52 49 48 61 81 69 58 64 69 68 68 69 78 65 70 50 47
68 69 72 67 44 19 27 86 94 87 91 68 67 70 70 74 70 66 57 60 47 43 68 63 54 58 57 58 57 54 66 91 80 76 59 64 71 69 68 64 59 63 61 61
70 72 72 72 67 44 33 47 83 99 78 70 71 74 74 72 73 59 61 66 66 70 66 62 52 44 43 48 63 64 72 87 91 88 62 64 76 72 66 64 58 56 67 51
80 78 70 73 73 69 67 62 71 82 77 51 57 56 63 72 72 76 68 70 67 59 59 53 46 44 45 47 52 53 79 80 91 95 80 96 49 50 55 56 55 57 51 46
86 82 74 74 75 72 69 70 66 74 83 54 48 54 52 58 65 72 73 81 78 67 64 66 64 65 55 55 51 50 63 78 92 93 96 64 54 55 55 65 62 51 52 47
78 82 85 81 78 78 80 80 68 73 77 66 52 52 63 84 84 74 78 74 75 74 85 79 76 86 68 78 69 54 57 56 75 87 90 86 59 47 44 49 73 51 46 47
78 84 88 91 86 84 89 90 87 74 85 68 70 66 79 55 58 77 77 67 70 74 89 85 76 74 47 75 80 65 74 75 87 81 79 66 47 48 49 81 70 49 46 44
84 86 88 91 94 90 93 96 98 94 88 73 76 70 65 56 59 74 62 77 86 84 86 85 81 72 61 58 57 74 76 85 89 85 84 86 59 60 72 61 57 48 45 42
91 88 89 90 88 89 90 98 79 100 95 74 76 79 71 66 76 66 58 64 77 99 98 95 96 78 67 68 76 56 74 69 74 71 70 46 57 52 53 52 54 58 54 57
88 84 88 88 89 93 90 78 89 98 100 79 74 75 69 60 68 72 68 70 87 86 84 98 96 99 78 76 74 58 52 50 61 58 49 48 42 48 53 53 56 56 58 57
94 88 89 88 89 90 88 76 84 96 98 94 73 75 76 74 74 79 69 73 74 75 71 75 94 94 85 87 73 71 60 58 62 65 56 51 46 52 53 56 58 60 62 60
89 96 92 88 93 87 78 70 67 73 74 88 74 80 78 57 62 73 70 68 75 79 75 96 93 94 93 87 83 79 60 66 70 74 50 50 46 43 52 54 59 61 61 61
95 92 94 91 87 86 85 96 88 80 85 95 95 71 73 64 62 73 77 79 80 79 83 82 71 68 91 95 90 48 42 46 54 52 46 48 48 47 50 59 66 66 63 63
85 91 89 83 88 88 77 73 77 84 89 91 93 86 75 77 90 91 89 89 87 80 81 82 74 68 80 97 79 54 55 66 69 62 55 69 64 65 67 66 66 65 66 61
70 69 73 91 89 86 83 85 83 89 90 85 96 91 82 94 96 97 88 86 88 88 85 85 82 73 72 95 64 53 46 60 71 73 58 55 64 66 67 66 65 63 62 64
59 64 82 88 88 92 86 92 97 86 81 94 92 100 97 90 99 99 97 88 98 74 94 83 72 78 92 73 64 56 60 78 99 87 74 70 70 68 68 68 72 76 79 83
56 72 89 93 72 77 85 98 98 92 88 87 92 90 97 90 98 98 99 99 97 98 87 71 82 87 57 56 54 95 77 76 100 90 76 73 72 72 78 82 83 84 85 84
56 75 89 70 81 96 95 96 98 98 94 96 92 96 95 79 98 98 98 95 98 95 95 91 97 99 99 98 76 84 84 82 95 95 79 73 73 80 87 91 92 92 86 82
50 45 47 69 98 92 89 99 92 93 98 94 97 89 86 89 95 97 97 99 99 94 99 99 99 100 95 99 100 98 95 100 98 99 85 77 83 89 96 100 99 98 97 92
57 48 55 83 84 75 75 82 84 90 93 86 86 92 83 83 95 98 100 100 98 100 99 99 100 92 87 91 99 99 99 100 99 100 97 83 89 92 94 94 97 98 99 100
61 66 68 82 89 90 93 91 90 74 79 67 84 99 90 84 97 99 100 93 99 98 98 98 99 100 97 88 90 90 93 98 99 99 99 90 90 90 90 80 76 78 81 85
72 72 74 84 72 78 77 70 60 59 62 78 96 90 94 94 99 93 100 99 98 98 98 99 100 99 99 89 88 84 84 87 89 89 85 81 78 69 57 50 50 56 66 71
79 82 84 82 74 70 73 69 68 72 67 85 99 98 95 96 100 98 97 99 98 95 95 96 99 100 100 98 90 72 48 43 49 47 73 54 40 36 29 25 22 29 42 48
86 87 82 89 90 84 73 72 67 77 64 98 87 96 89 94 97 100 97 97 95 91 90 91 95 99 100 100 94 69 37 33 32 42 35 36 30 20 16 16 17 18 19 24

GFSNW_850_rhum_042.txt.gz
RH
57 56 57 34 14 20 63 80 94 90 85 99 97 92 71 66 59 58 60 53 54 56 53 60 71 71 65 69 61 83 63 91 100 98 84 72 74 85 66 91 90 84 83 62
57 60 55 27 16 46 65 80 83 93 95 96 83 65 67 64 62 57 55 54 51 49 51 66 64 62 54 62 58 68 60 88 98 98 90 84 96 88 72 68 78 82 78 53
60 60 52 30 15 27 76 77 87 78 92 83 78 70 62 71 61 58 51 51 47 50 48 54 66 65 55 50 50 48 50 75 77 81 70 84 98 89 82 80 92 72 81 51
66 57 52 37 19 14 74 77 92 89 92 76 76 72 65 65 66 61 53 53 51 53 54 55 69 65 60 54 51 52 56 80 72 62 68 71 73 77 80 94 69 83 56 60
69 60 53 49 39 21 28 82 93 88 92 80 74 78 81 75 74 69 68 64 68 59 73 64 63 62 62 61 57 56 70 92 75 75 61 65 70 71 75 78 78 78 61 67
74 64 57 58 52 45 53 58 90 98 72 60 75 77 75 76 78 65 69 73 68 70 66 62 60 49 46 50 63 68 74 88 88 83 68 66 76 70 70 70 64 67 72 48
77 74 66 63 62 60 58 64 61 70 76 57 58 48 52 56 71 78 72 76 66 70 65 57 52 48 51 54 57 60 80 80 88 95 75 89 53 49 51 59 60 56 54 48
75 83 76 71 67 69 67 70 65 69 72 61 44 51 54 67 71 74 78 78 79 71 67 69 71 76 58 57 58 63 66 82 93 94 96 69 56 58 63 67 60 52 56 52
78 87 82 78 73 69 72 76 75 76 75 74 70 59 76 84 90 81 79 70 77 74 88 81 81 91 68 75 65 60 60 60 80 92 94 89 52 50 45 50 74 51 52 54
86 85 85 86 83 81 77 86 78 76 81 77 72 72 72 62 57 71 72 59 72 76 90 89 86 82 62 81 83 80 77 75 88 88 83 74 50 48 50 71 61 59 50 49
92 89 87 87 85 84 86 82 76 85 87 72 76 73 78 65 66 79 62 79 82 86 87 87 82 79 67 64 63 75 74 84 90 85 94 88 51 58 69 59 58 56 52 49
89 91 87 88 87 87 84 81 87 99 89 80 79 81 75 76 73 76 63 67 92 99 96 95 98 92 70 72 79 64 73 67 78 77 74 46 48 53 48 54 55 56 53 48
86 89 86 87 89 89 80 75 75 86 88 70 71 75 76 72 70 69 70 74 86 84 78 96 93 97 91 88 83 65 57 56 64 62 51 54 42 52 51 52 52 53 56 56
83 88 87 86 90 82 74 64 67 72 93 94 76 80 80 84 84 76 73 76 76 75 69 70 90 93 90 94 84 82 65 60 65 68 58 54 49 44 44 52 55 56 59 58
69 71 81 85 81 77 76 67 71 75 73 80 73 81 74 68 65 71 82 68 74 80 69 94 85 83 91 85 92 77 62 69 75 74 51 50 44 42 44 54 53 58 61 61
56 61 67 72 72 83 77 97 87 77 77 83 90 65 79 75 70 71 78 81 82 80 81 85 76 69 87 95 87 65 38 39 71 81 70 64 59 44 43 54 57 60 61 61
60 65 60 68 73 68 67 74 80 82 81 77 87 90 74 79 90 94 89 86 86 82 82 88 79 71 84 90 99 45 38 36 42 49 68 73 63 56 49 59 64 68 68 65
60 57 58 58 62 56 74 88 92 90 87 83 95 90 76 92 94 99 90 90 93 91 87 87 93 78 74 93 68 50 48 53 56 66 72 94 76 68 69 70 70 69 66 64
54 63 70 63 64 60 71 80 98 89 86 82 83 99 97 79 89 97 99 95 97 80 96 90 76 78 93 70 61 63 62 96 96 95 97 98 82 75 72 69 68 68 72 75
62 65 65 63 59 75 79 87 98 100 81 77 81 92 98 86 93 96 99 98 95 99 86 74 86 85 54 85 99 93 81 95 93 88 97 99 100 82 76 75 77 77 79 81
53 52 49 63 76 87 93 90 96 96 89 93 90 92 92 80 96 95 93 99 98 99 95 87 97 96 98 100 99 100 96 94 100 100 100 100 100 94 86 87 90 89 86 85
37 37 51 67 93 92 87 100 87 90 92 94 92 93 88 88 92 97 97 98 100 96 98 97 96 99 100 99 97 99 98 100 99 100 100 100 98 97 100 100 100 100 100 99
43 40 53 73 83 62 59 63 76 82 85 85 85 92 84 83 93 99 98 99 96 100 99 99 99 94 100 99 96 94 99 99 100 100 100 100 100 100 100 95 92 90 93 94
48 52 54 78 83 82 91 86 84 74 79 67 82 99 98 87 97 94 100 82 100 98 97 97 86 91 100 100 99 96 91 98 98 99 99 99 99 100 96 84 75 69 67 74
53 55 68 79 76 85 84 76 61 60 62 68 93 89 95 95 97 94 98 98 98 96 94 92 78 97 93 99 100 97 68 69 89 96 98 98 98 98 74 55 45 38 40 46
61 65 79 82 73 62 76 73 69 69 69 73 98 91 90 92 99 96 93 94 94 90 94 79 88 88 95 91 98 99 75 43 45 53 90 91 64 42 32 23 19 23 30 38
68 81 70 78 80 84 74 72 68 72 68 93 94 98 90 91 92 98 96 97 91 76 76 71 68 66 76 90 82 93 97 57 53 69 73 82 54 61 68 31 19 20 21 22

GFSNW_850_rhum_045.txt.gz
RH
48 50 49 29 17 47 82 85 96 96 99 99 98 94 76 67 61 62 61 55 56 58 56 74 72 92 80 70 68 80 68 80 94 92 84 74 77 85 78 90 87 87 84 72
47 48 48 33 16 34 65 78 92 99 100 98 87 70 68 67 65 60 56 57 54 50 53 72 66 64 62 70 70 78 71 91 98 95 93 87 95 90 78 73 80 87 85 68
47 47 46 42 21 22 71 73 92 89 99 95 85 83 66 71 61 59 54 54 49 50 52 63 71 68 57 60 57 54 53 79 77 81 70 86 96 88 86 76 98 80 74 62
49 46 45 50 39 24 65 76 96 90 96 83 80 75 81 70 62 63 56 57 58 54 55 60 74 67 61 56 54 63 60 81 80 68 66 82 88 86 82 90 76 86 61 64
51 50 48 50 47 31 35 70 86 88 86 73 76 79 83 82 76 76 70 71 70 64 72 66 71 66 63 58 58 62 69 89 73 76 62 70 75 78 87 85 76 72 71 76
54 53 54 52 50 46 49 60 87 90 64 56 78 70 81 72 76 70 76 83 68 70 68 67 63 54 51 52 64 72 73 88 87 84 78 66 73 65 72 78 73 76 88 60
55 59 55 56 60 65 57 58 49 64 65 56 47 50 50 62 72 77 71 81 73 77 73 66 55 52 56 57 62 64 78 79 86 93 77 91 56 45 56 63 63 67 67 56
61 57 57 61 65 73 68 64 64 55 73 69 50 57 73 73 72 77 85 76 77 79 71 70 72 77 62 59 63 68 66 82 93 93 96 71 49 58 61 62 58 54 63 57
66 62 66 67 75 77 73 64 67 69 65 83 77 67 72 79 72 77 71 68 74 71 86 82 81 90 71 77 71 60 64 62 80 93 94 91 52 56 48 51 76 51 55 54
73 72 74 73 77 84 78 63 57 72 76 82 78 82 77 61 60 65 68 56 73 77 89 88 90 86 64 84 79 84 81 80 93 89 89 79 55 49 51 70 57 61 58 54
83 78 77 80 81 80 73 69 65 69 78 83 78 75 76 68 66 72 60 79 80 88 88 89 84 86 74 70 66 73 80 87 87 86 93 91 47 58 69 58 56 58 58 54
82 82 77 83 78 75 63 66 68 85 75 80 79 73 76 80 68 68 63 70 96 99 92 91 94 94 83 75 79 65 76 67 74 80 79 49 44 55 49 53 57 55 58 52
79 80 79 85 80 71 60 58 61 66 68 72 73 78 75 72 70 70 69 77 83 82 76 93 86 90 95 94 86 70 61 60 67 64 51 56 44 40 40 50 54 56 57 55
78 70 74 80 70 70 62 60 67 66 74 78 74 84 76 67 70 78 72 75 74 72 70 72 89 90 94 96 91 92 71 67 70 74 62 51 44 46 46 44 48 56 56 58
58 62 65 67 62 67 65 67 73 72 76 70 72 77 82 80 74 73 81 77 75 75 68 90 79 75 89 82 88 94 56 65 82 66 83 85 72 61 59 54 48 53 59 61
50 57 57 58 61 56 58 78 78 73 74 78 89 70 75 77 80 80 79 80 82 77 74 81 79 72 85 92 94 64 52 44 39 57 49 51 52 56 59 64 53 56 61 62
49 49 51 51 52 58 62 67 70 72 70 77 79 85 73 81 89 96 88 84 84 80 82 86 82 70 85 91 91 48 41 43 59 59 65 65 43 71 64 77 67 65 64 65
50 47 40 45 52 59 63 68 64 64 74 79 93 85 77 85 92 99 92 92 92 90 88 87 94 81 76 86 65 52 62 83 86 86 97 92 86 69 78 80 77 71 70 68
50 49 41 44 50 59 71 68 68 66 72 74 81 100 96 80 89 96 99 95 99 87 93 91 80 81 91 80 94 99 100 100 96 97 96 98 97 98 95 90 79 75 70 68
47 49 48 48 61 65 73 78 83 75 76 78 83 96 97 85 85 93 99 98 94 94 86 79 82 79 74 100 100 99 99 100 96 100 98 98 98 100 99 98 92 85 83 80
48 42 46 65 71 74 82 91 89 90 84 89 90 86 85 78 86 95 92 97 97 99 96 84 96 93 76 99 99 95 100 99 99 100 100 100 100 100 100 100 94 98 93 87
38 36 54 68 77 80 76 99 82 86 86 89 94 90 84 85 83 99 98 98 99 97 97 97 96 84 69 99 99 93 94 98 97 99 100 100 100 99 100 100 100 100 100 99
34 36 53 64 70 57 53 54 74 74 77 84 73 88 84 86 90 96 100 98 98 99 98 97 84 62 85 100 100 93 89 73 94 98 98 99 100 100 100 100 98 93 93 93
40 39 56 77 77 78 85 83 81 66 70 66 84 97 98 92 97 93 99 78 98 98 94 90 93 70 92 93 91 99 92 69 55 91 98 98 98 99 99 99 87 68 66 68
41 42 61 75 77 95 90 85 68 62 63 69 88 85 91 86 92 93 94 88 98 93 89 94 61 77 68 63 78 80 88 92 52 59 78 97 98 98 98 89 44 35 44 50
49 57 77 82 70 69 83 72 71 68 74 74 94 86 85 85 93 86 87 86 88 87 94 62 71 72 61 56 63 65 84 96 89 73 47 87 97 96 63 26 24 23 29 31
51 65 58 60 63 63 72 69 65 68 69 85 94 87 73 88 91 93 91 95 90 64 60 68 70 55 55 53 56 59 62 85 100 100 97 98 98 97 96 97 84 27 23 25

GFSNW_850_rhum_048.txt.gz
RH
39 44 44 36 17 33 81 91 95 94 100 99 97 98 80 68 64 66 64 58 58 64 87 92 87 90 77 68 74 77 69 81 95 99 86 80 77 78 75 89 85 89 85 74
39 44 45 40 27 14 70 85 100 97 100 93 89 75 68 68 65 65 59 58 56 51 60 76 69 68 66 69 70 74 75 89 96 98 90 88 93 90 81 76 83 90 90 71
40 44 42 38 35 16 63 82 93 97 100 98 91 84 77 71 64 61 58 57 52 50 64 70 72 70 65 66 60 56 57 82 78 85 71 80 96 94 88 77 94 77 76 67
41 43 41 37 35 23 52 78 96 93 94 90 84 77 82 76 63 65 64 63 66 56 61 66 77 69 65 60 64 73 64 85 80 70 64 88 88 83 87 93 85 87 62 66
43 45 39 37 36 37 34 67 86 90 76 70 80 82 89 86 79 75 80 85 75 65 73 72 73 69 66 66 60 76 69 89 73 76 64 79 85 79 87 81 80 85 76 75
46 47 42 40 38 37 47 68 89 88 63 64 77 63 72 67 77 77 84 84 67 77 80 82 74 61 57 56 67 76 74 88 88 86 78 69 80 69 72 82 80 76 92 66
48 48 47 43 40 40 47 56 46 62 64 56 50 56 54 74 78 78 77 80 70 82 79 70 60 56 60 58 68 66 78 78 85 89 77 89 55 46 55 67 60 71 74 65
49 50 48 46 48 48 48 55 60 49 74 71 58 66 73 71 72 77 86 70 80 80 69 70 72 79 64 61 62 69 66 81 95 92 95 68 46 58 62 64 58 55 65 61
52 54 51 54 51 49 43 43 55 64 64 87 84 72 73 75 71 75 66 61 74 73 83 79 80 88 72 80 73 65 64 64 78 95 94 87 48 56 51 53 72 49 58 63
56 56 59 59 52 49 45 46 46 64 80 84 76 82 78 63 63 68 67 57 73 74 86 88 90 88 65 83 78 83 83 81 94 94 94 80 58 54 53 69 58 56 63 62
57 62 66 60 50 48 48 53 52 59 78 83 77 74 74 66 64 74 61 82 77 90 92 91 87 88 79 74 68 77 83 89 89 89 91 91 48 58 63 54 55 58 58 62
65 66 68 61 50 51 50 54 58 61 67 82 71 75 78 74 70 66 62 77 93 95 89 87 86 95 89 83 80 67 78 69 68 78 75 52 49 56 47 52 57 58 58 58
62 66 72 66 58 53 53 49 58 61 69 75 74 81 73 74 72 74 69 71 82 80 77 92 84 86 92 96 88 77 65 64 68 66 54 64 58 54 60 63 62 62 62 59
67 71 69 65 63 54 54 48 52 56 64 74 77 71 70 71 68 76 74 73 73 71 68 70 88 91 92 97 94 96 79 78 81 80 68 63 54 58 61 54 54 67 64 63
70 71 65 64 64 54 52 51 55 58 61 70 71 78 78 78 72 75 81 77 75 73 68 87 80 78 84 83 86 91 62 72 87 91 70 67 61 47 40 45 52 62 71 67
70 70 60 58 55 61 54 57 52 51 54 55 86 72 75 79 86 91 80 81 80 80 78 82 79 72 78 81 79 62 58 54 60 65 67 80 72 61 50 75 60 51 69 73
72 67 57 53 61 61 61 55 54 52 54 58 80 83 73 86 90 93 86 83 85 82 84 87 80 72 86 91 86 52 59 83 99 94 97 91 86 96 83 85 83 65 67 78
65 57 52 62 61 60 55 50 54 55 55 55 90 82 80 74 88 98 96 95 92 89 90 86 89 79 75 80 62 89 98 99 99 99 99 96 95 98 97 100 99 89 82 82
55 53 57 54 53 59 65 61 56 52 57 64 80 98 95 77 85 91 99 94 96 89 92 89 80 81 95 86 95 99 99 99 100 99 97 96 98 100 99 99 99 100 90 87
44 46 50 51 61 60 61 62 58 60 60 69 89 98 97 82 79 85 98 98 94 98 87 88 92 87 68 74 98 100 100 100 100 98 98 98 98 100 98 99 100 100 98 100
49 43 55 66 69 64 67 73 77 81 82 84 88 87 95 87 94 98 92 100 98 98 97 94 95 96 68 82 98 100 98 97 83 99 100 99 99 100 99 99 100 100 100 100
40 46 61 68 69 68 66 98 77 81 71 92 90 91 79 83 89 100 93 92 98 97 98 98 98 85 57 84 97 82 94 94 71 73 99 98 99 99 99 99 99 100 100 100
45 41 56 58 62 56 44 53 76 74 80 87 71 71 82 89 93 95 98 100 98 99 98 96 86 62 57 74 64 61 70 86 88 63 62 97 93 96 97 99 99 98 98 96
37 34 60 71 72 74 80 75 78 60 72 70 87 97 99 98 98 92 96 82 88 96 98 89 93 54 65 67 62 63 63 70 88 87 69 59 88 93 97 98 98 68 61 62
36 34 53 78 76 92 81 86 67 64 68 74 88 89 85 83 85 87 72 72 88 94 88 91 58 58 47 53 52 54 55 61 67 90 95 90 70 95 96 98 97 34 35 30
40 49 74 81 71 86 91 74 62 64 73 79 89 92 86 80 79 81 84 80 80 87 92 57 48 50 57 50 41 39 44 50 58 73 99 100 99 97 98 97 95 72 72 30
39 49 45 51 49 49 58 61 63 71 76 86 91 81 70 80 90 92 80 88 91 64 46 49 49 44 44 43 42 50 55 61 61 56 69 100 100 98 97 97 97 92 71 27

GFSNW_850_rhum_051.txt.gz
RH
37 38 39 38 30 29 75 82 95 96 99 99 94 98 83 71 67 69 67 60 67 88 81 65 85 87 83 71 74 75 68 83 94 99 86 76 78 75 69 82 82 84 78 65
37 39 37 36 36 16 78 83 95 99 99 89 92 80 72 71 65 64 60 59 55 61 88 93 73 78 70 73 68 74 71 86 96 98 86 83 90 89 76 74 80 90 81 62
38 39 37 36 34 23 69 80 97 100 100 99 97 86 81 74 65 66 60 62 54 54 69 72 76 75 73 69 67 59 60 80 76 81 71 85 97 96 85 77 94 81 69 60
38 38 37 37 34 29 59 71 92 91 97 92 85 82 84 77 72 63 70 66 79 61 68 72 80 70 70 69 78 71 67 87 80 69 64 82 80 80 90 94 83 85 59 62
37 38 38 38 35 36 38 63 86 91 75 70 81 82 87 86 84 84 79 83 78 76 82 77 75 71 72 80 68 88 70 96 73 78 69 80 88 84 88 88 87 84 78 76
36 39 40 38 36 36 34 76 82 69 66 69 77 62 67 69 79 74 86 88 69 88 91 91 82 66 60 61 74 83 82 85 84 80 77 69 76 68 76 80 81 76 87 64
38 41 41 39 40 36 35 40 68 59 67 60 60 60 59 76 82 81 80 77 72 86 83 75 61 60 62 63 76 67 81 78 83 87 72 76 47 47 54 68 64 71 76 66
39 41 42 44 41 37 38 41 36 47 80 65 67 68 72 72 72 81 86 66 79 78 68 70 72 78 64 66 67 70 67 79 94 90 93 64 51 58 59 60 57 53 62 58
39 42 44 49 42 35 35 39 44 42 67 92 85 73 73 74 76 78 64 58 71 71 82 75 78 92 74 83 76 68 64 63 75 94 94 84 47 53 52 52 72 48 57 66
39 43 56 53 45 40 40 42 48 56 78 88 76 78 78 64 65 76 66 62 72 72 82 87 90 88 67 85 82 82 83 82 95 95 92 78 58 54 55 68 63 58 64 66
42 49 59 48 45 44 45 44 48 53 75 86 76 77 73 66 64 81 63 80 81 88 95 89 92 88 82 77 69 78 82 90 93 90 88 88 52 57 69 71 66 69 75 74
44 61 63 46 48 48 44 46 51 50 60 80 77 78 78 75 73 69 72 88 92 95 92 86 84 94 88 90 78 67 79 70 71 76 71 56 62 64 73 58 58 62 67 71
48 64 54 48 49 49 42 44 50 54 72 78 74 76 72 71 73 70 62 74 81 81 78 91 82 85 87 95 89 87 72 74 78 72 68 73 52 65 48 49 51 48 52 56
56 70 54 49 51 49 45 45 49 53 61 73 77 79 78 75 73 74 70 68 70 68 63 70 89 90 91 92 90 94 86 74 83 77 76 56 57 57 71 66 62 69 53 50
60 64 58 54 54 53 50 46 47 50 53 73 79 79 80 81 86 78 81 71 63 66 67 87 83 80 80 82 86 83 70 67 75 78 65 66 67 73 77 80 90 86 87 48
60 66 61 62 57 55 50 46 52 51 53 61 90 76 81 89 91 81 75 72 71 72 74 88 80 78 83 83 73 62 61 87 78 82 96 100 97 91 86 99 100 99 99 83
64 69 60 62 62 59 58 55 47 46 50 56 88 83 82 83 91 88 85 82 81 76 85 91 85 74 80 90 77 58 78 96 100 100 100 97 98 98 96 100 98 98 96 84
72 64 67 73 67 58 57 53 52 46 45 42 86 81 76 74 86 96 96 91 88 88 89 88 91 88 88 82 58 78 97 99 97 100 98 99 99 99 99 99 99 99 100 95
70 68 71 63 60 62 57 49 47 47 47 50 73 87 77 75 78 94 99 92 96 90 92 88 86 94 95 74 74 88 100 100 99 99 98 98 97 100 100 100 98 100 99 99
58 61 58 59 65 61 60 57 56 58 45 54 87 99 97 78 82 87 95 97 96 99 93 93 95 94 66 67 87 95 94 92 99 100 98 98 98 100 99 100 99 100 100 100
60 51 64 69 63 61 55 52 66 65 70 77 84 84 94 83 92 97 95 98 98 98 94 99 99 98 74 67 57 59 60 72 76 84 73 71 98 100 99 98 100 100 100 100
50 48 59 60 61 50 61 94 75 75 70 97 87 90 84 83 90 90 90 86 95 99 98 99 100 90 50 49 61 56 53 57 64 80 84 74 69 82 95 96 98 98 99 98
52 46 49 47 51 53 41 58 77 78 90 95 82 72 82 92 92 99 88 90 96 97 98 95 91 58 43 55 73 67 52 49 47 52 67 78 84 80 78 93 96 97 98 98
33 35 65 68 67 65 74 74 80 71 82 71 76 94 97 100 98 91 75 79 94 98 97 95 94 58 44 43 45 46 39 40 43 44 52 64 83 95 96 97 96 95 95 48
31 28 56 78 80 88 76 77 72 72 71 69 86 90 87 91 81 80 78 68 87 91 91 91 59 43 43 44 43 41 39 41 51 58 59 54 60 86 99 100 100 98 94 86
36 45 74 92 74 100 93 66 64 61 70 74 79 94 96 82 72 76 81 94 91 86 90 48 44 42 43 42 42 40 47 55 58 64 65 65 64 66 98 99 99 99 94 94
37 53 52 44 41 52 57 53 60 68 69 87 87 76 69 78 86 89 77 89 88 66 51 48 46 46 49 48 44 46 53 53 52 52 55 59 58 59 75 94 100 97 99 96

GFSNW_850_rhum_054.txt.gz
RH
36 30 34 35 33 61 86 88 88 91 97 96 85 94 74 71 66 74 66 82 70 62 52 48 63 64 69 65 60 58 56 62 89 98 77 59 54 49 46 57 69 58 53 34
32 31 34 35 35 39 89 96 98 97 99 84 73 68 67 69 59 59 56 58 82 78 75 72 71 71 66 70 58 57 53 72 96 100 86 72 71 61 52 51 61 68 59 40
29 33 34 35 34 26 84 87 94 98 100 98 83 76 71 68 67 64 58 53 48 62 63 60 73 75 69 69 61 62 55 60 67 59 66 62 77 67 63 59 73 54 51 43
29 33 35 34 34 33 76 74 78 88 90 83 73 76 76 68 66 59 63 59 60 51 62 65 69 68 73 69 74 62 55 87 77 56 60 68 66 64 67 86 64 65 48 41
30 34 35 35 34 38 66 71 81 85 72 70 74 73 74 73 76 74 67 65 66 54 60 64 65 66 69 73 71 73 61 90 70 76 62 68 72 62 63 64 61 62 61 62
32 35 37 35 35 38 40 53 71 66 65 61 69 64 62 70 74 72 79 70 61 73 83 86 78 66 57 55 69 82 78 77 80 73 63 60 63 50 52 56 60 60 66 45
33 36 37 36 36 36 40 54 69 56 56 54 56 56 61 71 75 76 73 70 62 82 81 73 61 58 56 55 60 57 66 67 72 77 62 63 44 40 44 48 46 44 46 46
35 36 37 36 34 35 38 49 54 52 54 54 59 62 65 69 75 79 74 66 78 80 71 56 60 61 59 61 59 54 49 55 75 73 61 47 54 52 50 51 55 46 52 49
36 36 38 36 33 32 40 39 34 47 51 66 81 59 67 82 72 72 64 57 69 74 64 59 68 69 62 71 69 59 54 50 54 65 75 62 42 42 50 48 59 59 60 61
36 37 39 38 37 36 39 41 34 45 69 90 72 58 58 65 62 66 60 66 71 68 69 72 71 70 60 67 64 69 67 69 74 70 69 50 51 51 54 65 69 62 60 61
35 38 37 39 41 44 40 45 46 42 80 91 73 69 71 61 61 68 63 74 72 72 78 72 73 65 65 64 61 64 64 66 66 66 69 69 52 55 61 65 51 49 50 55
34 40 38 41 45 41 40 45 50 46 55 87 76 74 66 57 61 62 83 83 86 86 78 72 73 80 74 71 61 58 72 64 63 61 61 61 52 64 64 64 66 62 64 66
36 40 40 45 44 42 39 45 44 42 76 77 78 78 72 68 69 60 58 74 82 82 83 79 71 75 74 69 72 74 66 63 64 55 62 56 52 70 60 67 77 78 84 92
40 39 46 46 41 38 38 42 51 55 61 71 80 79 75 77 77 72 61 67 75 68 60 66 74 72 82 82 76 66 64 49 56 48 45 58 62 62 72 85 86 86 97 100
42 44 46 47 45 47 47 48 50 51 50 72 82 78 82 88 80 78 72 62 60 61 67 69 70 75 66 66 63 58 54 70 78 66 62 74 76 89 98 93 90 95 99 99
45 44 51 50 49 48 49 51 51 48 49 63 79 81 88 89 80 73 69 64 65 67 73 76 82 80 79 59 48 55 64 76 90 86 88 98 98 99 99 97 98 94 97 100
44 50 54 55 57 56 54 50 49 52 51 56 89 85 78 91 91 87 83 80 78 79 88 81 75 73 82 69 57 59 75 89 99 100 99 99 99 99 98 98 99 99 98 100
50 55 55 56 55 54 57 48 48 50 39 32 85 76 81 79 94 90 93 93 82 86 88 89 79 83 81 73 62 64 80 94 100 100 100 100 99 100 99 97 98 98 98 98
53 56 54 57 53 55 55 50 46 39 35 43 63 70 72 74 87 89 97 89 78 86 75 76 81 77 85 62 64 72 83 93 99 97 91 81 90 100 100 100 99 99 99 99
56 50 60 57 61 50 49 48 50 45 38 39 85 90 78 80 87 84 87 98 83 89 76 91 80 74 68 58 62 82 91 82 86 100 98 83 74 88 100 98 100 100 99 99
44 49 66 69 58 50 45 49 58 56 68 73 83 83 79 86 82 81 92 92 87 91 88 82 84 76 65 52 51 52 53 57 62 74 79 88 92 88 90 79 87 97 99 100
40 49 62 59 54 40 61 83 72 62 70 98 83 94 82 93 92 82 88 88 89 93 96 90 96 75 54 39 42 53 62 56 50 48 48 51 63 80 85 88 84 90 94 98
50 40 43 35 41 52 41 52 70 79 96 97 84 84 94 95 94 96 80 92 83 95 93 83 75 63 40 39 36 35 36 36 36 39 50 55 56 59 78 92 96 98 95 96
35 36 60 67 54 51 56 57 75 74 78 69 68 95 94 100 91 85 86 69 91 91 89 86 74 52 40 40 39 40 39 40 41 50 54 57 62 63 63 66 88 99 98 96
27 25 58 72 86 81 74 74 79 73 65 66 84 93 88 85 76 72 69 70 81 77 84 76 51 41 41 40 42 42 43 43 45 52 50 44 42 55 58 57 65 89 100 99
34 43 79 91 74 100 97 74 72 61 68 69 65 88 87 82 76 74 77 85 88 75 82 49 46 44 39 41 44 42 44 44 52 52 37 30 30 34 44 53 57 69 98 100
33 59 46 48 40 49 58 54 56 59 60 78 80 70 64 79 85 84 71 84 75 75 60 59 55 42 47 50 48 44 49 52 50 33 48 69 63 39 32 36 56 60 79 100

GFSNW_850_rhum_057.txt.gz
RH
63 38 30 32 33 52 82 98 78 87 90 95 67 83 66 67 62 70 79 73 62 41 36 42 48 59 58 54 52 60 48 57 75 70 66 53 48 43 42 52 62 43 45 35
62 34 29 32 34 56 86 85 86 87 96 88 64 60 59 58 56 56 56 71 67 59 49 54 55 58 57 60 51 59 48 66 97 92 62 53 58 48 44 39 55 60 53 33
57 31 30 32 33 34 78 83 86 98 97 94 63 58 57 60 61 53 50 46 55 55 54 53 62 64 61 60 55 57 51 50 60 62 60 45 60 50 49 50 69 50 45 36
50 30 31 32 33 30 79 77 59 68 88 72 61 63 57 53 57 53 50 49 49 48 56 57 63 63 65 61 65 53 49 80 74 50 56 60 59 49 48 67 57 58 40 38
44 31 31 32 34 34 76 60 60 75 60 62 60 69 61 54 63 58 53 52 50 44 49 56 59 62 64 65 58 56 52 84 67 82 53 57 64 52 50 51 52 52 47 47
36 32 32 31 34 38 71 53 60 60 62 57 53 54 57 61 60 65 62 52 50 61 71 65 58 53 52 50 58 62 62 69 82 74 54 52 58 44 45 49 46 48 52 38
35 32 32 30 34 36 47 37 69 51 57 52 50 52 57 62 65 63 63 58 52 71 74 68 50 48 48 49 52 54 65 68 68 75 59 67 44 37 40 44 40 40 41 44
35 34 31 32 36 36 39 42 61 47 50 49 55 55 60 65 70 67 62 63 69 74 68 52 58 56 53 53 49 46 44 50 65 71 53 39 51 46 45 48 62 52 54 51
35 34 30 34 33 36 40 49 55 52 49 54 56 58 61 61 62 60 60 58 72 77 57 54 67 72 58 64 63 50 48 44 49 54 60 51 49 43 46 44 58 55 53 50
35 34 33 35 32 34 39 51 44 58 60 75 64 55 61 70 63 55 55 60 63 67 58 64 58 61 49 66 76 68 62 59 69 66 62 46 49 48 50 67 65 50 47 46
35 33 35 37 35 36 38 37 42 53 69 86 83 72 59 61 55 54 59 63 65 61 70 70 64 56 51 53 52 55 60 62 61 54 67 65 46 51 58 57 55 58 58 58
35 32 36 39 40 42 41 41 42 44 63 89 72 64 56 63 64 62 74 71 71 72 67 60 64 66 60 51 57 50 62 52 54 53 57 51 47 49 56 58 61 64 68 68
34 35 40 42 39 40 41 42 46 38 74 77 71 82 64 64 58 60 60 73 80 75 84 62 60 65 62 54 52 58 58 50 57 51 52 50 45 51 58 63 75 77 75 77
37 39 41 39 38 40 40 38 40 52 64 60 82 77 77 79 73 62 51 62 70 72 72 61 63 62 70 60 61 58 54 44 48 40 33 49 50 53 68 85 87 82 80 86
41 42 41 37 40 41 39 44 49 49 66 61 77 84 86 79 78 72 62 66 72 62 61 59 58 60 56 50 46 42 42 48 51 47 64 65 62 72 88 92 90 96 98 98
47 46 39 36 40 42 48 46 48 47 38 66 73 87 97 83 88 83 68 62 75 71 60 63 67 76 71 55 42 46 53 65 73 75 95 97 91 91 93 99 100 100 100 100
51 42 42 38 45 46 46 57 47 52 52 63 84 80 81 87 88 95 88 82 86 75 76 68 61 65 74 61 52 42 59 71 77 91 98 88 87 89 92 100 100 100 99 96
48 45 46 48 47 52 53 49 53 49 34 37 92 86 77 83 85 84 96 80 81 84 76 80 68 74 72 73 54 56 61 70 74 85 85 86 84 81 80 94 99 98 99 100
46 49 54 51 48 49 54 50 48 33 26 62 76 81 75 78 91 94 92 87 71 82 67 65 74 66 82 56 50 52 64 72 76 81 84 84 78 79 83 83 96 100 100 99
48 50 41 44 47 46 42 36 43 34 35 39 77 90 78 80 78 76 78 90 71 84 68 80 71 65 58 59 59 63 68 72 75 83 86 81 79 86 82 77 84 99 100 100
44 39 61 61 48 44 41 53 70 58 71 74 81 80 74 88 76 72 81 83 80 87 81 80 75 65 52 57 59 65 66 66 68 71 75 79 79 80 82 79 80 77 87 96
32 36 54 59 50 42 66 77 74 69 68 84 69 78 77 92 95 70 85 79 84 86 87 85 88 71 60 52 40 42 51 56 49 51 48 57 71 77 78 72 65 63 68 68
33 24 38 42 44 63 61 60 70 77 85 94 83 84 82 92 93 85 74 84 75 86 85 74 72 56 50 48 32 31 32 33 34 34 36 45 53 52 49 52 55 59 63 72
27 37 59 79 65 57 64 62 81 86 92 88 82 85 81 88 81 78 83 62 79 82 78 72 60 54 43 37 40 44 52 42 39 38 41 49 50 34 24 24 25 32 47 60
28 40 61 73 88 93 97 89 87 91 86 72 86 83 74 77 79 64 69 70 75 67 67 76 64 42 42 44 47 47 45 43 43 44 49 52 33 35 58 62 54 33 29 45
35 56 81 85 81 95 91 96 99 70 74 63 74 78 75 80 72 74 77 76 78 69 84 73 48 50 53 49 43 40 42 46 48 50 55 44 42 69 65 59 61 53 34 36
49 82 55 60 56 76 79 71 69 57 77 78 73 64 70 73 80 76 60 77 71 78 64 49 45 44 47 45 43 44 46 46 49 50 43 50 54 53 51 46 39 38 35 35

GFSNW_850_rhum_060.txt.gz
RH
100 96 54 31 32 47 82 88 94 94 89 98 85 83 61 62 66 75 71 74 65 44 38 44 50 71 59 53 54 58 56 63 93 90 76 55 59 54 48 82 74 62 65 48
100 92 42 31 32 45 87 79 90 97 96 96 74 61 60 55 57 62 71 67 63 56 43 56 53 61 55 55 57 62 50 76 96 89 65 58 65 53 50 52 66 73 81 52
100 86 43 33 32 60 82 76 85 96 98 92 84 61 57 62 58 51 48 55 56 53 48 52 58 68 57 58 55 54 58 58 78 91 70 60 67 56 52 59 86 66 64 48
100 83 41 34 32 60 82 77 71 72 93 80 67 61 51 56 59 50 47 50 49 48 57 56 56 60 62 60 58 54 58 80 75 55 58 68 61 56 54 71 66 70 54 47
100 78 41 34 34 62 77 69 66 71 59 57 61 63 57 53 61 62 51 51 48 44 60 62 62 60 58 60 58 55 57 90 72 84 53 56 65 56 50 51 55 56 55 56
100 71 40 35 35 35 73 69 58 58 59 60 60 62 57 58 61 62 59 50 56 68 73 59 54 51 52 52 58 60 63 82 90 77 53 54 70 51 55 52 47 48 62 48
95 49 36 36 34 33 59 51 57 60 68 58 54 52 55 63 62 64 59 56 58 70 64 56 49 47 48 50 55 52 67 72 90 88 72 84 49 42 41 44 47 51 47 58
88 59 36 36 35 43 47 38 60 53 60 54 52 56 62 70 62 62 60 64 68 66 65 61 66 63 58 56 51 47 48 68 85 94 83 54 57 50 49 54 70 59 60 54
76 50 35 37 37 43 45 36 52 47 54 63 53 60 61 72 68 64 60 62 69 72 65 64 75 75 58 70 68 50 49 49 66 64 74 62 60 51 48 45 85 51 48 49
62 42 37 37 37 39 42 39 54 53 66 70 60 65 69 64 60 63 57 60 64 66 72 75 68 77 52 73 74 72 67 64 78 78 79 64 49 47 50 76 77 53 56 56
70 59 39 37 35 39 41 48 54 52 75 82 74 64 65 66 56 66 61 68 66 68 77 76 72 67 59 59 56 56 71 74 76 72 84 80 48 51 64 63 57 61 66 68
75 59 44 36 36 38 48 51 54 47 60 92 71 67 68 68 69 65 71 69 69 74 70 68 70 70 65 60 71 52 71 71 80 66 74 51 46 46 56 64 75 80 80 78
64 52 47 38 39 40 39 40 49 48 71 77 73 75 65 57 59 66 66 72 72 75 74 67 71 68 75 70 72 59 61 50 66 56 58 49 47 59 67 78 85 87 86 83
58 54 50 42 43 44 41 41 44 46 57 70 85 83 74 69 54 46 64 66 67 67 64 64 75 74 70 74 70 70 60 47 55 51 65 51 57 64 83 86 90 91 93 91
67 61 53 42 43 43 43 40 45 50 54 76 84 81 80 78 67 58 72 70 63 60 65 81 78 60 66 54 55 55 44 53 62 75 81 83 75 81 86 88 90 98 99 97
69 60 46 41 47 49 42 47 47 43 44 60 92 93 91 86 79 67 63 66 63 68 62 68 68 66 79 72 59 49 57 60 66 71 81 93 90 84 84 83 86 89 97 99
64 56 47 50 51 46 44 47 47 42 33 47 93 89 86 82 90 90 85 69 67 73 74 69 63 69 74 77 74 50 55 69 74 81 81 78 79 80 79 75 71 74 73 89
61 54 51 49 52 44 48 44 49 29 29 45 95 95 81 85 81 83 88 78 80 78 78 77 72 74 74 92 58 55 61 67 70 78 79 78 75 74 67 56 60 58 57 57
58 48 50 52 46 50 49 50 38 18 17 60 88 95 95 83 89 86 88 82 87 74 78 74 76 82 95 73 57 52 64 68 67 59 49 50 62 56 56 66 65 70 68 69
56 52 44 44 51 53 46 38 23 22 30 42 90 76 96 82 78 76 76 81 75 81 84 76 85 84 62 57 56 62 59 54 56 55 51 51 49 56 54 60 62 68 68 63
53 45 54 56 46 36 33 45 63 61 83 72 82 74 90 88 85 80 76 76 78 83 94 76 77 88 63 58 60 54 62 62 59 48 45 47 49 54 59 53 48 43 44 48
44 35 52 45 38 37 66 90 79 79 84 82 75 79 83 92 81 74 78 79 83 83 86 84 83 85 56 51 44 41 37 33 31 32 35 35 37 48 56 52 35 29 29 27
35 27 37 40 45 79 58 69 85 94 86 86 74 92 88 93 87 77 76 90 92 86 91 78 89 58 50 44 39 39 36 39 38 36 37 38 39 48 50 30 46 67 62 62
24 27 52 71 76 80 90 91 94 90 85 84 76 84 84 83 82 74 88 80 74 77 90 89 90 52 45 40 47 42 39 38 40 44 42 40 41 49 34 39 65 56 48 44
28 36 66 86 93 93 99 86 85 84 79 58 83 77 77 89 90 75 83 82 86 87 87 94 58 40 43 54 49 40 35 33 35 40 44 45 47 42 39 50 53 53 50 47
36 52 84 91 85 96 96 90 93 72 67 64 57 85 90 92 91 86 88 86 89 87 93 74 57 44 55 50 37 34 41 46 49 50 50 49 46 49 53 54 52 47 42 38
59 86 50 74 73 83 77 64 61 56 61 96 81 75 82 83 93 85 79 90 91 69 60 50 48 44 39 37 42 44 46 47 47 48 51 54 54 54 49 46 43 43 44 42

GFSNW_850_rhum_063.txt.gz
RH
100 100 100 88 50 74 85 85 97 95 91 97 92 92 73 57 68 73 73 76 73 68 43 58 73 82 68 55 58 61 64 76 92 86 80 69 65 60 54 82 70 73 74 53
100 100 100 86 49 73 83 90 96 98 99 97 80 66 67 62 64 68 73 70 65 60 62 64 66 69 58 55 63 70 60 78 96 95 74 62 71 59 53 61 70 78 73 53
100 100 100 85 43 70 78 74 98 98 99 93 92 75 74 72 58 59 55 63 64 54 59 54 64 73 60 57 60 57 57 70 74 84 74 73 76 62 58 67 86 66 69 47
100 100 100 64 38 79 80 71 84 75 95 96 87 69 66 72 70 56 52 56 67 54 63 59 69 61 68 62 57 56 66 79 72 62 64 64 62 60 63 71 65 72 57 54
100 100 97 62 40 89 93 80 78 73 79 68 78 69 64 67 72 65 59 58 61 61 74 74 66 58 55 60 63 60 66 88 70 85 56 59 66 61 58 61 62 62 58 58
100 100 96 65 59 86 86 76 65 64 76 79 78 77 60 70 70 63 62 59 75 82 73 59 54 51 53 57 68 71 72 82 92 86 58 57 69 61 56 55 51 57 70 64
100 100 95 63 59 78 72 61 61 62 85 77 75 63 66 72 64 71 64 60 70 68 60 53 49 52 54 56 56 56 75 78 92 89 71 76 52 44 45 66 67 65 67 61
100 100 97 58 47 76 69 54 59 56 84 69 59 63 79 69 63 66 66 66 64 64 66 69 73 71 62 63 62 56 65 80 88 91 90 60 58 53 53 59 76 60 63 56
100 100 83 46 44 61 70 50 56 52 65 76 68 72 72 87 81 71 62 69 65 70 75 74 80 87 67 80 71 54 54 58 75 79 81 71 61 54 51 48 90 54 57 60
100 100 82 46 47 58 59 48 57 53 64 74 67 76 77 66 71 82 62 64 67 69 83 82 80 85 60 82 81 77 75 73 80 83 87 72 55 51 53 72 79 68 72 74
100 95 72 53 48 49 53 44 58 50 73 82 68 65 69 63 62 80 62 67 69 78 77 82 83 77 67 69 72 70 76 82 84 84 90 91 48 56 68 68 77 77 78 80
100 89 65 55 50 50 61 51 59 49 55 86 78 76 73 65 62 62 70 71 77 77 80 79 82 78 77 72 82 58 76 70 80 74 78 54 57 78 80 75 79 85 87 92
95 87 67 50 46 55 54 58 56 48 75 80 68 70 66 63 64 65 64 71 70 73 73 73 81 77 84 79 78 70 66 54 75 67 62 62 80 80 77 78 83 88 86 89
98 98 65 52 53 54 55 56 52 48 54 80 88 78 67 59 56 62 62 62 66 70 64 72 85 83 75 82 76 77 71 52 59 63 70 72 80 78 77 74 73 78 84 91
100 98 82 55 53 48 50 50 48 45 45 90 88 80 81 72 57 62 65 62 61 59 64 86 81 71 68 64 62 66 54 60 64 61 72 71 76 82 80 67 66 67 78 79
99 89 85 55 50 52 51 52 53 50 40 60 97 92 87 81 66 64 64 61 60 65 67 76 71 68 75 76 73 52 62 60 60 81 80 79 81 67 74 73 70 64 62 62
99 85 72 58 61 55 44 40 45 42 34 49 97 96 85 87 79 77 64 54 66 61 72 74 72 70 75 86 80 56 61 72 75 77 65 72 78 72 70 67 59 58 60 61
87 90 67 66 62 51 54 53 42 32 30 40 94 96 83 84 80 82 82 75 74 76 80 74 76 73 79 93 68 63 69 69 69 71 67 62 59 56 45 43 44 47 49 51
84 77 65 54 50 52 46 28 21 17 21 76 84 95 95 83 84 82 80 81 93 76 85 82 80 89 96 72 66 64 66 62 69 55 42 40 40 39 37 40 44 53 48 43
73 66 55 48 48 48 36 34 21 20 29 40 93 79 95 82 78 75 78 74 90 93 87 76 85 89 69 60 62 65 55 40 39 33 32 31 28 29 30 36 44 53 43 27
68 56 55 54 48 38 34 39 47 61 83 72 82 78 95 90 90 84 74 76 79 83 94 89 84 90 74 61 54 50 44 39 34 32 33 36 35 36 39 39 45 47 29 49
51 45 55 43 32 34 60 90 76 80 82 87 80 82 84 88 78 80 78 84 78 79 85 80 81 86 61 58 54 45 34 32 33 34 36 37 38 40 41 49 56 37 67 59
50 38 34 45 44 62 42 63 81 96 94 88 85 95 79 87 78 72 86 91 98 88 97 85 89 67 53 41 36 36 37 35 36 37 40 41 44 44 49 54 40 44 56 53
25 27 51 59 61 75 85 77 85 88 72 72 72 89 83 84 84 83 87 88 83 89 97 93 91 60 45 40 42 44 39 37 39 43 44 44 46 44 42 40 42 51 52 52
34 33 45 87 95 98 99 91 86 86 65 52 73 82 76 94 89 83 86 88 94 90 88 92 63 49 42 46 53 45 39 37 38 43 44 44 43 44 46 49 52 53 50 49
38 57 90 93 89 99 87 88 87 68 56 52 48 90 91 96 93 89 91 87 90 82 94 73 56 43 43 53 43 36 39 41 43 44 46 45 45 46 42 34 36 37 42 41
60 87 71 82 74 89 72 72 64 57 43 88 79 69 74 89 95 90 88 88 85 74 71 70 62 49 45 37 35 39 38 39 40 40 40 38 32 31 31 32 30 35 38 45

GFSNW_850_rhum_066.txt.gz
RH
98 99 99 100 94 78 92 89 97 89 90 98 95 93 74 62 70 69 74 76 75 64 49 67 84 81 70 58 60 70 67 81 95 91 75 74 67 61 60 78 67 78 71 54
97 99 100 100 73 76 83 94 98 100 99 97 90 69 68 61 74 79 80 74 66 64 63 78 73 72 62 59 66 70 59 82 97 85 70 63 69 60 56 62 72 78 70 54
92 97 100 99 83 77 70 80 97 100 100 92 89 80 76 75 61 64 68 65 65 62 62 61 72 75 64 59 59 60 58 76 73 83 72 74 79 67 60 65 84 70 68 50
99 93 98 94 98 85 78 71 88 80 94 96 95 73 76 76 72 58 54 59 67 59 65 65 74 67 71 64 60 57 65 79 73 67 67 66 64 66 68 70 63 68 52 55
100 100 92 100 97 96 75 80 85 78 88 82 96 81 78 73 75 63 62 60 57 59 69 66 73 63 62 67 65 63 71 92 70 86 61 63 66 62 62 64 63 59 60 64
100 100 100 99 96 98 83 86 75 63 86 90 88 78 66 74 72 67 64 64 77 76 68 62 53 52 56 63 69 74 75 83 88 89 69 58 69 57 58 59 60 60 70 68
98 96 100 94 98 100 80 71 68 66 91 83 77 71 70 76 66 74 68 63 69 68 58 56 53 54 57 58 61 63 77 81 89 88 67 80 52 50 59 73 72 68 65 61
100 99 100 98 98 100 71 63 62 57 92 78 67 76 83 70 66 68 68 68 66 60 53 72 75 79 67 64 62 59 70 83 92 87 88 62 56 60 58 62 80 63 64 66
99 100 100 99 98 100 65 62 61 57 73 81 77 78 68 84 81 73 66 71 68 65 75 78 82 94 76 85 70 57 63 70 75 83 83 80 61 56 54 52 84 73 70 75
84 86 100 98 99 100 86 54 62 56 69 82 75 81 78 68 76 85 68 70 68 71 86 83 85 86 63 89 87 77 76 78 82 86 88 75 57 52 56 69 64 74 73 77
91 85 100 98 91 83 96 64 60 54 75 87 74 71 67 65 64 82 67 70 70 83 80 85 84 79 71 76 73 76 79 87 88 86 90 95 51 56 68 73 79 76 72 74
99 99 100 97 82 84 77 52 59 53 60 88 82 77 70 65 64 63 71 71 78 77 85 85 87 82 80 79 88 64 78 72 81 78 79 66 63 64 69 65 67 70 72 78
100 100 99 91 89 82 66 52 56 52 72 78 70 71 69 70 67 66 64 71 72 73 71 77 84 76 84 82 81 74 69 61 75 72 72 87 79 76 71 72 74 78 82 83
99 100 95 81 93 80 68 55 54 51 56 78 86 72 65 62 63 61 57 57 64 68 66 74 87 81 80 84 76 78 75 62 68 80 90 87 86 81 77 73 70 68 69 74
100 99 93 89 93 85 61 58 52 48 43 89 86 76 72 60 61 62 61 62 65 58 62 85 81 78 71 70 67 74 59 65 68 70 74 70 82 81 79 66 63 57 55 51
99 99 92 96 82 57 62 56 52 47 44 56 97 84 82 66 64 64 61 59 57 60 63 79 75 72 72 73 67 55 65 61 59 77 72 73 82 71 71 57 50 50 51 54
100 91 90 86 64 61 52 44 48 45 43 51 99 97 84 79 64 60 56 56 58 54 74 76 72 67 77 86 77 62 68 71 73 72 64 76 70 66 55 43 43 46 48 50
99 94 94 87 79 67 58 53 49 41 29 37 96 99 84 84 79 78 74 68 68 74 77 77 78 74 81 91 72 72 78 75 68 59 46 44 46 45 39 36 37 42 44 47
97 94 90 89 60 55 64 55 44 26 24 66 83 94 98 83 80 81 80 78 92 79 86 85 82 92 94 67 67 74 70 64 64 52 41 37 36 34 32 32 36 43 45 48
82 73 58 51 50 48 38 26 24 25 31 56 98 90 95 82 76 79 80 78 95 96 88 78 84 91 75 64 64 65 64 45 38 37 36 35 32 31 32 34 42 52 56 48
72 63 62 50 36 41 42 38 46 58 80 78 83 90 97 88 90 85 73 89 86 88 92 90 93 94 75 70 66 57 41 37 34 34 34 34 34 36 37 34 36 38 46 38
54 53 57 48 42 39 57 88 77 76 83 88 86 86 91 86 74 82 80 91 88 89 84 80 89 88 66 62 52 47 43 37 36 36 35 34 36 40 41 42 43 46 43 38
55 47 43 42 45 48 39 46 78 98 100 92 88 97 78 76 72 76 87 95 98 86 83 91 88 67 64 59 45 34 37 38 35 34 34 37 40 43 46 45 44 46 48 50
35 30 55 62 62 67 73 77 85 81 80 75 72 92 84 83 86 87 88 89 79 97 100 93 90 67 59 47 35 39 44 42 36 35 40 45 46 44 44 48 50 48 42 36
35 26 39 81 86 100 100 95 87 82 65 46 73 81 74 96 93 85 91 90 98 91 86 89 62 64 56 40 39 49 51 37 37 40 42 43 43 38 30 28 28 33 33 33
40 59 90 97 94 97 90 85 88 64 46 39 39 92 88 96 91 85 89 80 79 74 90 67 62 54 46 40 46 52 38 37 38 40 40 38 36 30 27 27 30 33 34 34
59 94 77 82 78 86 77 71 56 46 31 84 72 58 61 90 94 89 88 83 78 47 64 61 56 48 41 44 48 36 37 38 38 42 45 44 41 32 29 28 24 30 32 37

GFSNW_850_rhum_069.txt.gz
RH
69 97 97 98 96 96 99 94 98 98 92 98 94 97 77 67 77 70 75 71 74 61 54 74 85 81 76 61 63 74 69 83 87 89 72 73 73 63 61 76 71 80 70 58
75 99 98 100 96 94 98 98 99 100 92 99 96 72 72 66 76 80 79 75 70 66 61 80 76 76 66 62 67 70 60 85 92 76 64 64 72 62 62 67 74 78 75 63
82 95 100 100 99 100 100 94 97 100 100 98 85 79 82 79 63 73 72 66 65 64 64 71 74 77 72 61 63 63 59 78 71 85 68 72 78 68 62 67 82 73 67 62
78 98 100 99 97 100 100 83 87 83 97 99 93 78 74 80 79 61 66 67 65 60 68 71 74 70 70 65 64 63 63 82 78 73 70 68 68 69 67 73 59 66 57 60
77 99 98 89 93 97 100 95 87 80 77 88 92 85 81 75 73 64 64 66 61 60 66 63 73 65 68 69 67 69 73 94 72 85 64 63 68 64 65 66 62 61 63 65
89 99 100 100 100 96 100 97 78 72 83 96 94 87 80 73 73 68 63 64 75 74 68 63 56 54 63 65 67 77 75 84 87 89 71 58 71 57 61 64 76 67 77 65
98 98 93 84 94 100 99 90 74 70 95 91 89 74 68 80 67 75 72 63 68 69 60 55 53 54 58 60 65 67 77 84 87 89 68 75 52 56 59 76 70 67 64 62
98 97 95 91 99 100 94 76 69 63 97 82 75 75 82 71 68 71 71 69 68 59 53 73 75 80 66 67 68 76 72 82 92 83 86 61 60 65 67 68 74 63 65 66
98 99 100 100 100 99 86 71 60 64 76 86 85 77 70 83 82 76 72 76 68 64 80 76 82 92 76 83 70 61 65 70 79 84 85 81 56 60 56 56 78 70 67 72
99 94 97 100 99 98 97 68 59 58 76 88 82 80 75 69 76 87 76 71 68 68 85 84 84 87 71 88 84 78 77 80 83 84 89 74 57 52 57 67 60 72 71 72
99 96 88 97 100 100 100 86 61 56 80 89 78 73 70 67 64 82 71 70 69 84 81 83 86 80 78 79 74 75 80 86 86 86 89 85 54 57 68 69 75 72 73 73
95 99 95 98 100 100 99 88 63 58 64 88 82 77 72 65 62 65 74 70 78 75 87 87 88 84 82 82 88 71 77 71 78 79 78 74 68 66 69 68 67 75 75 80
97 98 100 100 99 98 95 77 57 57 75 80 71 70 71 70 67 65 64 72 71 71 68 79 85 75 82 84 82 74 70 68 77 74 75 84 79 76 71 68 67 70 70 65
100 98 100 98 88 82 69 54 57 57 61 77 85 71 67 68 66 61 56 55 62 66 67 74 87 78 83 85 76 78 75 66 76 82 88 85 78 78 73 67 61 56 52 49
100 98 97 88 87 83 69 58 55 52 49 85 82 70 70 69 67 62 59 62 64 60 61 86 83 84 75 74 73 79 65 72 76 78 66 71 72 73 73 58 51 46 40 38
100 99 89 87 90 82 71 62 56 50 50 56 94 80 76 72 69 64 62 62 58 56 62 82 77 76 70 74 70 53 60 61 58 62 71 67 72 77 74 55 50 44 43 47
100 98 89 85 83 72 62 53 53 50 45 47 94 93 80 68 62 60 58 56 54 53 73 77 70 70 74 82 72 59 71 71 71 74 73 78 80 65 64 50 42 42 43 44
100 95 89 75 77 73 62 53 54 47 37 47 98 97 84 76 71 70 63 59 60 69 77 78 77 75 82 90 70 67 79 78 68 61 53 47 59 52 42 38 38 36 38 39
94 90 79 84 79 67 60 61 54 41 26 59 87 97 100 80 82 80 76 75 90 81 88 88 83 90 93 62 67 76 77 67 60 51 40 39 38 36 33 33 32 33 31 36
86 80 65 68 58 60 61 49 30 24 33 60 97 96 93 83 83 87 80 82 94 94 91 83 86 89 72 65 64 63 68 66 56 42 43 37 33 33 32 32 34 38 40 44
78 68 69 62 62 50 45 46 44 56 79 78 90 92 99 84 91 95 77 94 94 95 88 90 95 94 79 66 64 68 68 48 40 36 33 34 33 33 34 34 36 43 45 47
65 67 62 49 41 44 56 78 82 72 77 91 90 90 90 83 73 81 80 92 91 89 83 81 93 84 67 67 68 62 46 45 40 35 35 35 34 36 39 41 45 45 43 44
63 53 41 46 52 43 46 45 78 98 100 93 95 98 77 78 71 82 87 95 96 77 85 94 90 68 65 64 56 53 50 38 38 37 35 32 33 40 46 45 47 49 46 39
55 40 51 61 60 70 70 74 83 82 83 82 71 99 83 79 87 88 88 86 77 94 100 94 89 59 60 63 58 45 38 40 44 40 33 36 42 43 42 39 32 32 32 32
46 35 48 80 68 100 100 92 90 84 70 54 79 81 72 95 95 86 82 88 100 92 80 86 55 56 60 62 51 39 41 49 48 36 35 39 41 38 32 28 28 31 32 30
46 58 90 99 94 100 95 90 84 67 50 43 40 86 83 97 91 87 91 79 76 70 89 52 60 58 62 60 47 40 49 51 38 36 37 38 42 43 40 34 32 34 33 32
67 90 84 80 79 85 84 75 59 54 35 75 69 54 62 90 91 81 85 77 74 38 43 58 59 56 54 46 41 46 48 38 37 35 42 48 50 52 51 45 40 36 36 37

GFSNW_850_rhum_072.txt.gz
RH
83 67 81 99 100 91 100 98 100 100 94 97 89 94 85 71 79 71 77 68 71 63 61 81 88 86 78 66 66 75 71 81 96 90 74 74 77 65 58 79 69 78 69 61
80 70 81 97 100 97 99 100 100 100 100 98 96 86 75 70 74 77 76 74 69 69 66 85 79 80 68 63 67 67 62 84 91 76 65 63 72 65 67 67 74 77 76 66
79 80 80 98 100 100 97 98 99 99 99 98 86 86 83 81 68 79 72 66 66 65 68 72 83 81 72 63 69 67 60 79 69 80 64 71 77 69 62 64 79 75 64 68
85 80 95 100 100 97 95 99 99 96 98 96 95 76 78 84 83 67 71 70 65 61 73 67 80 77 71 63 66 66 65 85 81 75 73 70 71 72 67 73 60 63 63 67
88 80 98 99 98 97 96 97 98 83 70 88 90 81 77 79 77 72 70 70 68 59 67 60 65 71 70 74 67 73 74 94 72 83 67 64 71 67 72 65 63 62 63 62
85 65 100 98 100 100 100 97 92 78 78 95 91 84 76 75 71 72 64 67 72 69 67 62 66 64 70 71 69 78 76 83 86 86 72 59 70 58 64 71 75 67 75 62
77 91 98 99 97 97 99 98 85 79 85 93 89 80 71 80 68 78 75 65 68 69 58 56 54 54 58 62 75 70 77 82 87 89 68 79 54 63 60 69 71 68 67 66
69 99 100 98 91 98 99 96 84 79 83 87 78 79 86 74 71 76 75 74 70 60 56 73 76 82 70 71 75 78 72 80 92 84 86 60 60 72 73 66 67 64 66 67
99 100 89 99 95 98 96 72 67 74 82 84 91 78 71 84 82 80 79 80 67 62 80 75 81 92 75 84 72 62 67 73 80 83 82 72 56 62 58 56 72 69 65 69
99 99 93 99 100 100 76 67 62 67 82 91 87 80 78 69 77 90 79 72 68 64 83 85 85 89 71 86 85 79 81 83 84 85 88 72 56 54 56 66 59 71 68 71
100 99 97 96 99 97 91 72 60 62 82 89 84 76 72 68 66 82 74 70 68 83 81 82 86 81 81 79 73 75 80 87 87 88 88 79 62 59 63 65 75 71 71 70
95 99 92 96 97 98 91 78 65 68 67 85 81 78 74 69 65 67 73 70 77 74 87 87 89 82 84 82 82 73 77 71 77 77 76 71 72 71 69 68 67 71 69 69
100 98 99 98 99 98 92 84 65 69 74 78 71 73 74 73 68 67 63 71 70 69 66 80 85 75 81 86 84 76 72 72 78 71 74 76 78 74 70 68 66 69 71 66
100 92 98 100 100 98 98 84 67 62 66 77 81 71 70 70 66 62 59 58 61 63 62 73 86 76 84 84 78 80 76 71 78 78 77 81 76 74 70 68 62 59 51 44
100 99 98 98 96 93 84 69 57 53 53 83 76 69 72 69 65 61 62 66 62 60 61 86 81 86 78 79 79 85 72 75 80 78 63 67 63 65 69 65 54 47 42 37
100 99 100 98 83 69 68 53 56 51 56 61 86 77 73 68 66 64 63 63 59 56 61 81 78 78 71 79 79 54 57 60 57 58 59 67 66 71 72 66 52 46 40 39
100 100 92 92 85 65 53 54 56 50 48 52 88 90 72 66 63 60 58 55 53 53 68 73 69 77 74 78 67 49 64 66 63 63 71 77 76 70 74 63 46 36 34 32
98 100 93 87 74 62 61 56 56 50 42 49 97 96 80 66 64 63 56 54 57 65 76 76 74 77 82 88 66 62 73 75 74 76 73 57 54 61 59 48 35 32 30 30
99 89 78 69 67 67 64 62 57 41 29 64 86 95 95 78 80 75 72 69 86 80 88 88 84 86 87 57 53 66 73 70 63 61 50 46 48 44 38 32 30 30 28 30
90 72 57 62 66 61 64 54 43 28 29 55 91 93 98 84 86 89 78 82 92 92 91 86 90 91 66 60 58 56 65 69 61 57 49 43 36 34 33 32 30 31 34 38
64 57 62 64 60 63 47 40 43 48 72 73 92 87 98 81 90 95 80 95 96 95 88 92 95 94 79 64 64 62 71 70 58 44 31 32 32 33 33 31 30 35 42 47
59 54 62 68 55 49 53 76 77 76 64 91 94 88 83 81 74 80 83 93 91 90 83 90 96 84 66 66 66 67 70 64 43 37 34 34 35 35 33 33 39 47 49 50
53 46 42 48 55 50 51 45 71 93 96 94 97 97 78 75 73 86 87 94 94 75 85 94 89 62 65 67 70 68 58 48 45 37 36 38 36 34 40 45 49 47 39 32
58 50 58 67 70 73 69 68 82 69 77 87 74 98 81 76 88 87 89 78 76 95 100 85 87 51 58 65 64 56 50 48 39 40 46 40 34 36 41 42 46 45 36 30
54 42 56 82 58 96 95 81 87 87 82 66 74 83 73 96 96 84 82 91 100 89 72 82 47 49 56 61 63 60 50 40 41 50 46 36 37 39 41 47 51 53 49 41
45 54 76 93 98 97 100 97 85 79 62 52 46 90 84 92 89 90 86 72 67 66 88 45 57 54 56 61 64 58 46 44 51 48 38 36 40 50 53 53 53 55 56 53
62 82 73 73 82 82 88 82 75 64 54 73 75 52 58 90 86 72 83 75 72 33 39 56 58 57 60 62 58 47 46 51 41 38 38 45 51 54 55 53 49 54 58 62

GFSNW_850_rhum_075.txt.gz
RH
84 80 85 89 98 100 100 98 99 100 100 99 88 98 84 74 79 72 74 70 69 62 66 86 90 86 81 72 68 76 72 80 94 91 74 75 80 68 57 71 67 69 68 62
82 83 86 80 99 98 98 99 100 100 100 100 98 84 79 73 75 73 70 77 68 66 73 85 82 82 70 67 71 68 62 83 91 79 64 62 74 68 68 67 69 72 68 65
82 84 84 94 100 97 94 98 99 100 100 97 87 96 80 82 70 78 67 74 67 65 73 73 85 82 72 66 73 69 60 82 70 82 68 71 74 71 65 62 70 66 60 70
85 82 74 100 98 100 93 99 100 96 99 96 94 88 76 84 82 76 68 71 64 64 73 67 85 78 70 62 68 68 67 86 81 75 74 73 73 72 67 70 59 58 57 67
82 80 67 100 99 99 98 99 99 97 76 84 96 85 76 82 76 75 74 79 68 60 65 60 70 71 70 78 69 75 74 92 73 83 65 65 74 72 70 65 63 61 64 59
86 81 96 99 98 100 98 100 98 85 86 91 95 82 75 75 75 75 69 71 72 74 70 61 67 65 73 76 72 76 76 82 86 86 71 58 71 64 71 72 74 65 62 62
78 81 100 98 93 100 97 98 89 71 96 86 85 75 73 73 75 82 76 66 69 70 62 59 57 58 62 68 79 72 76 79 85 88 69 79 56 68 63 66 70 69 68 74
73 100 94 90 84 98 98 98 84 74 85 88 80 77 81 74 73 81 84 81 71 62 56 74 77 80 66 74 76 78 72 77 88 82 85 56 60 68 67 64 64 66 70 72
85 97 95 88 86 94 90 68 68 75 83 90 94 80 74 83 84 85 82 80 64 59 78 73 79 89 77 83 74 62 67 74 75 79 78 61 54 61 59 58 61 66 64 72
93 97 99 98 93 95 77 64 64 70 87 94 88 84 80 72 79 92 81 72 66 60 82 84 84 89 74 83 84 82 84 85 84 86 84 69 57 57 57 62 52 70 66 68
97 99 95 98 96 88 69 67 66 66 84 92 86 80 75 70 69 84 74 72 68 80 80 80 86 82 82 79 73 76 80 86 86 86 84 66 62 62 61 60 71 69 68 66
100 100 95 100 95 91 69 64 66 69 66 84 82 80 75 72 71 70 71 70 76 74 88 88 88 80 85 82 75 75 77 72 75 75 72 63 62 67 64 62 63 69 66 64
99 96 99 100 96 84 68 68 66 69 71 76 74 75 74 74 70 65 60 69 69 65 65 78 86 76 82 83 84 77 72 74 78 71 70 75 67 66 67 65 64 62 61 61
98 97 95 97 94 88 75 74 62 64 68 77 80 72 70 70 66 61 57 55 60 60 60 71 85 75 83 85 77 82 75 75 78 79 70 73 68 69 67 67 64 62 57 51
92 87 94 96 96 92 83 77 57 49 55 78 73 71 70 69 66 62 62 62 60 59 60 85 79 85 82 83 83 89 75 77 80 77 61 64 60 58 68 68 63 58 52 48
100 97 99 100 92 89 80 68 57 53 61 62 86 76 70 67 66 67 65 62 58 57 60 80 79 79 71 82 84 58 61 60 59 57 57 62 64 62 71 71 65 56 50 43
97 98 100 91 76 71 64 48 54 52 50 55 84 83 69 65 62 60 57 55 54 53 65 71 71 81 79 78 70 41 47 55 62 61 65 71 69 69 71 72 66 50 38 37
91 98 98 86 71 64 53 50 54 50 45 49 96 95 74 68 62 61 56 52 55 60 73 73 72 76 83 89 64 55 61 68 68 69 73 63 54 65 62 68 56 37 30 31
95 92 96 90 81 60 53 56 55 42 34 53 81 93 91 71 75 69 64 60 81 77 85 86 82 82 83 56 45 58 64 66 64 74 73 54 49 56 46 35 31 32 32 34
91 84 72 66 59 57 60 56 50 42 33 47 85 87 98 80 85 85 76 81 93 91 88 87 95 93 62 54 49 47 56 67 62 62 56 44 38 34 33 32 34 37 39 42
80 72 63 67 62 60 48 43 42 39 54 63 88 84 94 77 88 94 80 94 96 92 86 93 95 94 76 64 63 59 59 70 67 60 39 30 33 34 35 36 36 37 44 48
73 66 67 68 60 51 56 76 68 76 55 86 94 86 78 77 74 80 86 91 90 83 84 89 97 83 59 66 66 65 68 74 69 51 37 35 34 38 38 36 38 45 45 35
69 58 58 47 54 58 56 49 67 92 87 89 97 96 75 74 74 85 87 92 89 84 91 95 85 57 63 67 68 70 72 70 55 42 37 35 42 42 36 37 42 41 43 45
70 54 52 69 76 77 73 71 79 55 70 85 77 92 80 77 87 85 89 80 82 99 100 78 86 47 54 64 68 68 62 53 46 40 38 47 48 37 35 38 45 53 56 59
68 55 69 84 57 69 78 60 74 72 70 76 67 81 72 96 96 82 88 92 100 86 65 79 43 46 53 60 64 63 58 54 43 41 46 49 39 37 39 46 53 58 61 56
53 60 67 78 86 95 100 91 83 82 82 53 47 89 86 90 91 93 85 67 62 63 88 42 52 51 54 60 63 64 62 50 44 49 46 38 38 44 50 52 54 53 55 56
67 72 68 69 76 63 71 73 70 79 59 77 74 57 50 85 85 72 82 70 70 33 43 53 56 54 57 61 65 62 49 46 47 37 36 39 44 49 50 50 46 43 46 52

GFSNW_850_rhum_078.txt.gz
RH
79 77 84 88 98 100 99 98 99 100 100 99 98 86 74 68 66 71 61 56 52 52 60 69 69 77 79 63 62 64 58 59 81 71 58 60 66 54 43 45 55 54 42 51
78 78 83 100 98 99 98 99 100 100 97 98 94 78 73 64 63 62 60 63 56 51 63 70 69 72 63 65 62 59 52 63 80 67 54 54 56 52 48 45 47 54 46 52
76 78 91 100 99 100 86 98 100 100 100 98 62 94 68 65 71 64 63 64 54 54 60 62 73 68 62 63 65 68 51 58 65 59 68 63 58 54 50 46 53 40 43 57
81 73 96 99 98 96 86 98 100 99 100 94 83 87 63 64 65 69 61 56 51 51 61 63 69 64 57 56 64 56 51 78 73 58 59 61 61 61 54 60 47 44 44 43
82 74 98 97 97 99 97 98 98 98 76 85 97 79 60 63 71 67 60 57 55 48 53 52 62 57 56 64 52 57 54 79 65 75 49 54 62 60 57 53 52 48 43 50
72 84 97 97 94 97 98 98 91 80 80 76 93 79 64 65 62 67 66 52 53 59 63 60 63 60 63 60 58 57 58 67 75 75 53 49 50 56 59 60 57 49 45 53
71 90 90 85 87 88 83 90 81 67 80 63 94 74 63 68 69 66 71 65 55 67 61 58 55 53 53 52 53 55 56 61 70 74 56 63 48 54 58 55 58 56 55 60
77 91 91 88 86 83 79 83 77 70 77 74 80 70 68 67 71 75 80 81 66 61 59 54 58 55 53 57 55 51 48 50 62 61 56 47 51 57 55 53 51 54 55 58
88 88 94 85 84 82 66 66 72 61 64 84 96 74 66 61 66 70 78 71 66 62 52 51 63 62 66 66 61 53 51 47 47 53 54 41 46 53 56 56 45 54 55 56
89 84 95 81 86 73 62 64 70 66 84 92 88 76 75 75 70 72 73 72 65 59 56 59 61 66 64 59 64 67 63 61 62 60 57 48 45 53 57 52 44 58 58 58
94 93 90 89 87 70 65 63 62 62 81 88 84 80 76 72 72 60 71 64 59 60 61 59 65 58 62 61 62 63 62 61 61 63 64 50 54 57 52 49 63 62 65 66
99 91 93 88 75 70 65 63 68 64 62 80 79 78 74 73 73 74 66 66 70 66 58 62 61 59 64 61 52 63 62 54 49 52 44 51 60 59 60 58 60 68 68 63
94 96 91 85 84 77 64 66 65 63 68 74 71 74 74 74 72 69 65 65 63 62 60 61 61 61 57 56 57 61 60 63 56 56 52 55 61 59 60 62 64 62 64 63
93 93 85 91 90 80 68 58 61 63 66 69 74 70 69 68 65 61 59 58 58 57 58 63 60 56 71 58 58 58 56 64 58 57 53 62 61 62 60 62 64 64 64 64
87 90 96 90 84 86 81 61 51 52 58 71 73 68 68 67 65 62 62 64 59 58 64 65 61 70 66 66 66 62 61 53 53 43 53 54 57 57 60 65 67 66 61 56
90 83 89 88 86 88 78 64 53 54 62 61 75 73 68 68 67 68 66 62 58 57 66 71 78 74 69 63 55 45 60 58 58 50 55 59 60 57 61 72 72 66 58 54
96 80 85 86 86 86 68 51 54 51 49 56 82 78 68 66 63 60 58 56 54 54 66 69 68 79 81 62 55 41 45 62 61 60 60 64 64 68 68 73 72 66 54 43
92 82 88 82 74 71 62 50 53 49 44 47 92 85 70 68 64 66 56 54 55 60 76 70 62 75 76 67 50 55 50 54 61 63 67 61 58 62 66 70 71 52 38 36
91 88 83 78 74 62 53 51 54 46 38 48 76 85 82 69 70 64 61 57 60 72 66 68 73 60 68 47 44 53 53 60 60 68 72 67 52 51 51 43 37 36 37 36
97 87 77 71 70 61 53 53 51 46 39 39 73 74 83 73 81 77 72 78 68 77 70 88 76 64 60 49 46 40 45 60 60 69 63 54 42 35 33 35 37 38 37 36
80 67 65 66 64 61 53 49 51 46 51 54 80 82 84 75 76 71 80 82 83 79 77 79 74 67 61 59 59 53 51 63 62 60 48 32 31 32 35 38 39 36 37 38
64 64 69 68 65 58 59 70 59 67 56 78 86 85 76 74 70 74 84 80 84 78 83 85 74 63 55 63 65 63 59 69 68 64 45 35 34 37 42 41 36 35 34 42
59 64 66 69 60 63 68 61 68 76 78 88 96 90 73 76 74 82 75 82 79 81 87 74 60 55 55 64 65 66 70 75 73 58 43 37 39 47 43 36 36 41 48 51
61 67 65 75 78 76 73 65 70 49 60 81 79 94 80 78 76 75 79 73 72 96 87 64 61 44 50 62 66 67 69 71 60 48 41 39 48 46 37 36 46 52 53 53
70 60 77 80 66 70 67 53 63 62 64 74 70 77 74 84 87 72 80 91 96 74 61 60 38 40 49 62 66 66 62 56 53 45 42 48 46 36 32 42 49 52 50 46
71 61 72 66 80 80 83 71 75 71 78 57 50 82 82 81 82 91 89 72 64 63 76 37 40 43 50 57 62 62 60 58 49 45 48 41 35 36 42 46 48 41 38 42
96 74 59 55 57 64 63 69 60 68 68 76 71 67 59 82 84 79 69 74 64 44 38 43 43 43 49 58 62 63 61 50 47 43 35 34 40 46 47 36 33 41 48 56

GFSNW_850_rhum_081.txt.gz
RH
81 85 98 98 96 83 64 90 98 100 100 98 98 100 71 49 54 54 49 44 41 43 48 55 57 77 78 56 54 55 50 54 70 61 48 50 54 41 36 47 51 43 43 58
77 94 99 98 98 80 88 97 100 100 97 99 99 71 58 49 48 52 51 50 46 43 51 62 55 59 53 55 54 54 44 52 76 60 50 43 46 40 36 36 42 45 46 54
78 83 99 98 97 87 84 97 100 99 98 98 64 57 46 55 60 55 53 51 43 44 51 47 58 58 54 54 54 61 50 50 62 65 70 56 52 43 35 43 53 32 42 52
78 86 92 84 75 83 83 97 97 98 99 66 70 54 42 50 58 54 48 45 41 42 54 50 55 48 48 47 53 48 44 68 67 48 49 52 50 48 41 51 37 41 39 42
87 86 78 71 85 75 65 88 80 77 72 84 68 58 44 51 57 56 48 46 40 37 49 43 53 41 42 50 38 46 44 72 60 70 43 47 55 49 45 45 40 37 37 43
84 94 88 69 76 86 95 81 76 67 65 70 59 47 45 52 50 57 48 41 45 58 56 48 47 46 45 46 47 46 49 59 74 68 45 45 47 51 52 53 48 45 41 46
89 90 84 74 68 68 79 78 78 47 58 58 72 52 50 56 52 57 60 53 48 62 57 49 45 44 42 41 40 42 46 52 66 71 53 60 44 44 49 50 50 48 50 48
84 77 76 75 74 74 70 68 76 49 66 62 55 52 55 57 60 65 67 68 60 62 55 47 51 47 48 47 46 42 38 39 49 57 43 39 41 46 47 49 45 45 48 49
80 78 72 72 71 66 64 64 63 60 55 76 82 57 49 48 52 57 64 67 65 66 42 41 49 52 52 51 46 43 43 39 42 40 46 34 41 45 48 47 42 44 47 50
78 85 75 74 74 66 66 61 60 72 74 85 82 62 63 63 54 55 60 60 57 59 44 45 47 52 52 47 48 52 50 47 50 45 47 40 40 46 50 49 48 46 49 50
79 83 82 78 72 66 62 60 58 63 74 84 82 76 72 67 60 49 60 60 56 46 47 46 49 43 46 48 46 47 50 49 46 49 53 50 43 52 50 46 53 51 54 54
74 77 71 73 67 66 61 62 62 58 61 78 74 73 71 69 71 71 63 59 56 52 44 46 45 45 47 46 38 49 48 47 43 44 41 42 45 47 58 57 51 58 58 62
74 77 76 75 64 64 66 63 57 57 68 73 74 76 70 70 70 67 66 60 65 64 57 47 48 49 45 41 40 47 47 49 48 48 38 43 47 51 59 62 61 66 68 68
89 76 79 78 72 64 58 58 60 58 65 57 69 65 65 66 65 63 62 64 63 58 63 52 47 47 55 44 48 48 46 53 47 46 39 47 50 54 57 64 65 65 65 66
90 89 81 78 79 75 61 55 53 52 67 62 67 68 66 65 63 62 63 65 66 64 60 58 51 55 56 52 56 50 48 42 48 34 44 45 52 60 60 68 72 74 71 67
77 72 78 78 77 75 68 69 51 59 59 74 70 67 66 66 65 65 65 62 59 63 62 59 64 70 65 60 45 34 44 51 52 42 55 60 57 54 56 72 75 71 67 64
84 77 81 76 79 76 73 62 53 50 52 66 80 76 66 64 63 61 60 58 56 62 66 61 58 68 77 62 51 37 42 53 60 60 57 64 61 66 62 70 72 69 65 52
90 80 84 80 77 81 66 51 50 50 44 50 100 91 70 67 66 62 57 60 62 68 64 65 56 64 66 68 45 47 50 55 66 68 62 62 56 60 66 68 70 64 45 36
91 87 87 79 78 70 62 53 52 51 41 71 84 97 90 68 75 72 67 60 62 67 60 56 64 54 73 48 41 45 57 56 62 69 67 64 61 56 55 52 39 34 43 40
90 90 78 74 70 70 58 49 50 50 43 40 71 78 82 75 70 66 64 67 60 85 60 74 68 60 48 49 40 42 50 58 57 70 74 65 54 42 41 34 34 37 39 37
86 71 60 60 66 56 54 59 65 58 67 64 77 84 77 73 74 65 69 85 76 81 77 70 67 59 47 55 56 52 43 53 59 60 54 48 36 34 33 36 40 40 36 37
68 56 58 60 61 61 74 84 64 68 67 73 75 78 79 70 65 67 75 82 78 79 74 78 74 60 59 54 60 58 53 59 60 60 52 39 34 33 38 43 41 35 33 41
59 60 59 60 71 77 74 70 73 74 67 89 90 85 77 72 76 76 72 85 80 70 81 74 64 55 59 61 59 60 62 64 67 65 54 42 36 40 46 42 35 34 41 47
59 57 71 84 82 71 72 62 78 73 83 90 84 86 74 76 74 66 80 62 64 82 86 69 68 50 53 57 59 62 64 69 72 66 50 41 39 46 45 35 36 42 46 46
67 67 82 83 68 69 60 49 56 60 88 87 74 78 66 77 81 62 76 83 88 74 69 75 56 42 46 53 58 64 68 71 69 55 47 40 45 45 34 34 41 44 42 34
74 75 84 70 76 84 87 71 77 55 88 70 61 78 80 78 74 83 86 73 74 75 85 55 38 41 45 49 57 62 64 59 55 51 44 46 40 30 34 39 39 30 33 42
97 93 70 66 65 71 65 68 64 48 76 80 74 77 68 77 79 76 66 80 80 60 41 37 36 35 40 48 56 59 58 59 54 46 44 32 31 37 39 31 29 36 45 50

GFSNW_850_rhum_084.txt.gz
RH
75 97 100 90 74 76 77 85 97 99 97 96 98 100 84 47 50 48 48 43 50 57 51 72 69 78 80 54 54 56 50 65 80 59 48 47 59 45 41 77 61 64 72 77
82 88 92 88 81 75 88 96 100 100 97 100 100 88 54 55 48 53 48 49 46 43 54 83 62 60 50 52 53 61 54 62 91 68 59 50 47 41 45 43 64 58 79 80
93 84 84 80 74 67 78 88 99 95 98 92 93 57 53 61 55 52 46 47 42 45 51 48 56 62 52 51 52 53 60 59 72 89 74 61 60 49 45 59 79 62 64 69
82 82 77 78 69 62 67 83 91 92 99 74 57 43 49 59 57 46 42 43 41 43 51 54 55 50 56 46 47 52 52 72 70 49 50 53 54 53 52 56 43 62 59 60
83 82 74 79 78 63 69 82 86 82 67 74 50 48 54 55 57 54 46 49 48 48 56 51 53 43 52 56 41 46 47 75 65 62 46 51 59 56 55 56 51 44 49 55
76 66 70 86 81 66 70 68 65 59 65 60 47 50 52 59 51 53 55 50 58 66 59 46 42 41 41 43 50 51 54 74 89 78 48 47 64 56 58 55 55 55 61 51
72 66 63 79 78 69 72 66 67 54 66 61 53 49 56 63 59 62 60 54 54 59 56 49 42 41 41 42 44 40 48 60 86 88 68 75 48 45 49 53 50 50 55 50
80 68 64 70 70 63 54 61 67 54 65 52 49 49 56 57 60 64 68 64 61 58 56 54 55 53 50 48 47 49 46 50 71 85 65 43 46 49 53 62 55 48 54 52
92 72 73 69 65 63 60 58 62 60 61 76 73 54 48 54 59 61 62 60 52 57 56 48 54 68 50 53 46 41 45 44 59 58 58 45 48 49 47 48 64 48 48 52
87 82 77 74 67 65 62 65 62 66 74 77 76 68 70 59 55 66 59 58 57 55 61 58 64 66 51 59 51 57 59 58 63 58 64 52 49 48 49 57 64 47 49 51
84 88 77 67 64 63 58 64 68 64 71 77 76 68 68 64 63 63 61 63 62 62 58 60 57 57 55 57 46 51 59 68 61 59 62 67 47 50 52 54 51 51 53 55
83 74 69 68 63 62 58 57 64 63 61 71 68 67 65 64 65 65 59 61 57 65 66 58 55 57 54 51 54 50 61 57 63 53 60 46 45 52 55 51 52 56 56 59
70 74 71 67 67 64 61 60 58 59 62 68 69 72 68 68 68 66 68 61 62 64 58 62 63 63 57 57 53 47 48 48 64 56 45 48 45 47 52 53 56 57 59 63
65 70 72 74 76 66 56 56 58 60 64 66 69 64 63 65 64 62 60 61 62 58 57 60 66 62 54 62 60 60 56 56 56 56 47 47 46 49 52 56 58 60 63 66
72 63 67 71 74 71 58 54 55 52 69 70 69 64 64 64 65 64 62 62 62 66 67 81 75 59 66 60 68 75 54 61 68 58 47 48 55 54 54 61 64 67 71 69
76 69 64 67 67 72 67 68 52 60 61 77 90 67 61 62 65 66 64 62 60 60 65 66 64 65 68 85 72 41 39 41 45 48 49 52 54 51 52 64 70 70 70 68
76 70 66 64 66 70 70 58 52 52 52 69 86 86 68 65 64 63 63 60 59 60 66 67 62 70 66 85 85 41 42 46 50 52 51 58 58 62 59 63 68 70 68 61
87 75 76 76 73 70 71 56 45 51 45 50 98 98 72 67 68 66 58 61 60 63 65 64 65 67 72 91 65 40 39 48 55 57 59 59 58 62 62 64 67 66 48 34
89 90 88 79 78 75 68 59 50 49 46 64 91 99 98 69 72 68 61 59 86 69 80 68 67 80 88 68 52 47 46 42 47 64 59 60 59 62 56 56 49 33 37 39
92 97 82 83 74 70 63 53 46 50 47 44 86 78 94 75 72 71 70 66 90 91 82 72 88 87 53 46 45 41 42 46 54 61 72 66 62 55 47 38 35 35 39 40
93 80 70 60 66 64 53 52 66 62 72 61 74 84 87 75 92 90 68 97 94 95 92 87 93 89 64 45 49 37 38 45 50 54 52 54 52 44 39 35 36 41 40 35
82 66 60 62 63 59 69 88 76 79 85 71 79 75 78 66 69 74 74 94 91 93 79 94 96 85 56 50 51 49 44 49 58 58 52 45 38 34 34 37 41 41 35 33
62 60 61 69 67 88 82 79 87 90 69 76 80 89 72 67 70 78 84 96 94 70 95 94 81 63 58 55 56 59 61 57 60 58 54 47 41 36 38 42 41 34 33 40
59 59 74 82 91 89 88 88 91 71 74 75 85 80 78 75 84 78 93 76 71 92 98 82 88 52 48 55 58 57 60 60 63 63 60 52 41 37 43 43 32 33 38 40
64 70 86 90 68 73 69 59 49 45 63 83 78 77 70 90 90 79 87 86 97 90 81 84 62 50 43 51 56 57 56 61 67 68 62 49 40 42 44 31 33 38 34 28
72 77 93 77 79 90 70 56 68 57 82 72 63 87 92 93 93 90 91 88 82 74 88 51 44 48 46 45 50 52 56 64 67 64 52 46 45 43 31 34 36 27 28 36
90 98 78 78 70 77 59 55 57 54 77 95 86 86 72 88 95 94 84 87 81 64 36 37 38 40 41 44 48 54 60 62 55 53 49 45 38 29 33 34 26 28 38 40

GFSNW_850_rhum_087.txt.gz
RH
94 89 85 80 81 81 76 90 94 91 90 96 99 100 96 89 62 55 50 53 59 60 74 87 77 85 85 67 58 74 71 71 89 60 50 51 60 66 51 78 65 78 84 96
92 80 79 83 71 68 85 96 99 95 98 98 100 95 74 63 58 58 54 52 49 48 73 74 69 66 53 54 57 63 59 71 91 76 60 57 57 51 53 54 68 77 89 96
89 85 73 77 74 68 77 84 98 90 96 97 95 73 59 66 53 54 47 49 45 49 57 58 64 66 54 52 53 54 61 67 76 90 74 67 65 61 57 61 82 78 81 89
79 62 70 67 66 65 78 75 92 86 99 94 97 57 63 68 69 54 43 49 46 47 63 59 59 54 57 51 48 53 60 72 70 54 54 58 63 67 66 70 54 70 78 79
69 61 64 58 61 60 67 68 82 87 77 74 61 58 68 68 65 65 68 71 66 63 70 62 62 53 56 58 53 49 59 72 74 68 52 52 57 64 66 66 63 61 61 62
67 72 78 61 52 56 67 68 71 71 69 72 65 67 69 67 54 59 62 62 68 69 65 60 57 43 44 46 51 59 60 79 91 77 57 52 64 60 63 63 62 58 67 57
69 66 71 67 56 54 58 64 67 64 79 70 66 66 68 74 71 68 65 58 63 57 55 49 44 43 45 47 52 49 55 67 92 84 70 70 52 48 51 54 56 60 61 65
79 65 67 61 57 52 60 62 65 63 76 66 59 61 66 63 62 68 68 59 56 54 58 62 62 63 53 49 48 50 54 62 75 79 77 47 49 52 55 56 61 54 58 61
82 74 67 59 56 54 53 60 65 66 62 77 76 71 58 68 71 71 60 54 56 55 69 59 56 72 57 58 55 46 50 54 69 66 62 51 47 52 49 50 70 50 55 59
74 79 69 64 61 59 53 63 63 58 65 73 73 78 75 64 68 78 64 58 54 59 72 67 70 73 53 66 59 54 68 68 68 69 69 58 49 51 49 54 50 50 52 55
78 73 70 72 67 62 61 60 62 60 61 67 68 68 67 66 68 76 63 65 65 74 70 70 68 68 62 62 50 52 66 74 73 68 68 54 50 53 55 52 52 51 54 55
76 64 66 73 66 60 57 58 62 61 59 64 66 65 64 64 66 68 63 65 68 70 79 74 71 65 66 59 59 55 55 59 64 59 61 47 47 51 51 49 49 54 55 58
71 60 62 69 68 61 62 63 59 58 60 64 64 64 64 64 64 66 69 66 63 67 62 73 74 69 70 67 68 53 53 55 60 54 46 49 44 50 51 51 54 59 60 63
75 63 58 60 65 60 56 58 61 61 63 70 64 60 62 65 65 63 61 60 63 59 60 69 79 74 61 71 64 68 57 59 63 66 54 48 47 47 48 52 56 59 63 63
79 70 66 61 62 60 54 55 55 54 69 71 62 61 62 62 64 64 65 65 63 67 68 85 80 72 71 76 76 87 61 68 69 63 47 49 52 52 54 56 59 62 64 67
78 72 69 67 64 63 58 57 51 55 57 72 90 69 66 62 64 63 64 64 63 62 67 72 69 67 67 89 89 57 47 43 40 46 47 48 51 53 52 56 62 67 68 68
81 68 66 65 65 64 61 52 47 47 49 58 83 92 73 67 67 65 63 62 61 60 67 69 71 70 67 90 92 51 38 44 44 46 47 54 54 53 55 60 65 66 66 64
78 78 72 72 71 70 70 61 43 42 48 47 98 94 72 68 69 66 62 61 61 62 64 70 68 70 76 92 72 55 45 48 50 49 51 52 53 59 60 60 62 64 59 38
74 91 79 77 74 70 68 64 52 49 49 48 96 91 90 70 74 71 64 63 86 74 81 79 72 84 90 67 54 50 43 42 42 55 56 59 60 57 60 61 61 49 34 35
88 97 83 79 75 72 69 62 52 48 50 49 77 81 87 71 72 75 75 73 93 90 82 76 87 87 56 40 44 40 44 46 42 56 65 61 62 60 58 53 40 33 34 38
100 86 77 72 64 72 59 56 60 67 66 59 63 82 84 75 89 91 73 97 96 90 86 83 90 91 76 46 44 46 44 45 42 42 40 44 48 52 51 42 35 36 39 39
86 74 64 63 65 63 66 83 78 79 78 72 72 73 76 69 78 79 78 90 92 87 84 96 96 82 59 54 53 47 41 41 45 47 46 50 51 47 41 36 37 40 40 32
77 60 62 71 69 81 76 75 84 92 73 75 81 82 68 68 72 82 87 92 94 74 97 92 84 56 52 53 52 49 49 48 51 54 51 46 42 39 36 37 40 40 30 33
58 60 73 82 87 89 86 86 82 61 58 63 71 78 76 78 82 85 82 80 76 92 100 80 84 46 52 51 50 55 58 60 58 54 52 49 46 41 38 41 40 29 32 36
63 69 82 90 63 79 74 69 48 51 56 68 77 77 72 92 91 85 86 89 93 88 72 81 51 42 46 52 51 53 58 60 60 59 59 57 47 39 41 40 29 32 31 25
74 78 94 85 82 83 67 65 47 45 64 73 69 90 96 92 92 93 89 83 77 67 88 34 34 34 42 48 51 54 56 57 61 65 65 56 46 43 40 28 32 27 24 33
99 98 76 70 67 68 62 52 46 53 78 91 88 85 70 84 98 98 88 86 78 45 33 29 28 26 34 46 51 55 60 65 68 68 60 50 46 40 27 31 27 23 32 35

GFSNW_850_rhum_090.txt.gz
RH
72 76 74 79 70 70 59 76 94 81 85 88 100 99 97 90 84 69 76 56 57 73 87 90 84 83 86 68 68 82 82 77 93 63 52 52 60 70 58 76 65 85 84 95
76 71 74 69 63 64 65 86 84 82 91 95 97 87 89 79 61 58 54 52 49 58 74 78 72 69 57 60 61 63 57 74 91 70 52 56 66 60 62 61 72 83 85 86
65 66 70 66 63 59 68 73 94 78 83 97 92 87 63 67 54 53 49 51 48 52 63 61 67 66 56 54 54 55 60 70 76 84 74 69 72 70 66 61 84 80 88 93
63 60 61 63 60 60 69 72 90 85 97 86 98 93 67 71 76 57 58 61 64 50 65 61 63 55 54 52 51 54 56 68 70 57 58 56 62 71 72 76 61 66 84 86
72 68 60 56 61 56 63 63 74 83 80 77 66 70 74 72 69 70 67 72 70 70 74 74 68 63 58 58 53 54 64 69 74 67 51 52 51 65 69 71 67 73 67 66
72 74 62 60 62 58 59 67 68 76 71 67 72 76 70 69 56 64 66 67 64 68 68 65 60 59 50 49 53 57 64 80 90 69 65 61 54 55 64 64 65 60 66 58
61 69 58 48 56 61 63 64 64 64 76 72 72 66 69 75 72 66 64 58 58 56 54 47 48 47 47 49 50 53 62 74 91 80 67 53 43 49 52 56 61 60 66 70
54 62 58 52 48 52 60 60 64 64 77 79 66 67 68 62 62 68 63 56 57 56 54 60 62 65 53 48 48 51 57 71 77 76 76 46 48 50 56 58 60 56 65 67
60 58 61 52 51 51 55 58 62 62 61 72 76 76 66 71 73 68 57 53 57 58 70 59 57 64 58 58 57 45 56 63 70 73 60 50 41 52 51 49 63 54 58 64
70 61 58 54 53 53 52 58 62 57 58 69 71 77 76 71 73 75 70 61 56 59 71 67 70 75 55 66 60 51 68 71 68 73 72 58 48 53 49 55 35 52 55 56
78 66 66 61 59 54 48 61 60 61 55 66 65 67 70 69 72 74 65 68 64 74 71 72 71 74 65 61 56 51 56 73 76 74 71 54 52 57 52 43 54 50 55 56
69 68 68 64 57 54 52 51 56 58 59 59 63 62 61 60 64 68 67 72 73 75 82 79 80 70 74 64 56 55 67 59 62 61 58 42 50 45 45 44 46 52 52 56
75 70 70 67 60 53 46 47 57 57 60 62 63 63 62 60 59 61 66 68 64 72 66 77 82 74 75 71 73 56 54 59 67 55 40 54 44 47 49 48 49 52 53 56
78 69 71 71 69 60 56 54 55 54 59 70 62 58 61 65 68 65 59 57 62 62 65 72 83 80 65 75 66 73 57 62 65 68 57 51 48 46 47 51 51 55 59 62
81 77 71 70 69 66 58 53 53 52 51 63 55 56 61 62 62 66 68 68 68 68 71 88 82 75 78 79 82 90 65 70 65 59 42 45 46 48 50 52 55 58 61 64
77 78 74 73 70 66 62 57 52 49 53 55 85 68 70 67 65 66 66 67 66 65 70 72 73 71 67 87 90 60 48 45 42 42 38 44 48 53 54 56 58 62 65 68
73 82 82 76 75 71 66 54 46 40 47 53 68 80 73 66 66 66 65 64 63 63 67 79 74 72 73 90 91 48 35 39 43 45 47 55 53 50 51 54 60 66 68 67
72 75 71 75 76 77 75 68 56 39 47 45 94 91 70 68 67 68 67 64 66 67 66 78 75 73 83 94 72 55 48 46 48 49 50 48 48 54 57 62 63 63 63 58
57 79 75 76 76 73 75 72 64 51 45 47 88 82 77 69 74 74 71 68 86 77 84 82 77 84 89 68 58 47 44 46 48 55 55 55 55 57 60 60 62 60 52 34
64 80 83 79 75 76 72 66 59 52 50 52 77 67 92 68 76 76 78 79 94 91 81 80 94 90 61 51 52 53 46 47 49 57 67 65 65 61 58 56 55 44 32 35
84 86 78 74 64 73 64 59 65 60 70 58 60 75 86 76 88 91 80 94 96 92 82 87 90 89 75 50 48 44 44 49 46 46 39 40 42 48 55 55 44 35 35 39
76 74 70 58 67 66 67 85 77 86 79 78 76 80 73 74 79 79 84 88 91 90 84 96 95 79 41 45 48 50 55 53 48 46 42 39 45 50 52 46 37 36 40 40
82 64 58 63 73 81 81 74 86 94 72 78 82 91 69 72 75 85 87 90 94 79 95 91 81 45 34 44 51 49 51 54 52 50 47 48 50 50 45 38 37 40 40 29
63 59 74 81 91 92 85 81 80 53 59 72 68 81 76 79 85 86 81 76 79 93 100 73 82 28 37 37 55 53 51 54 57 53 50 47 45 42 39 38 40 38 28 31
61 68 84 90 66 66 66 59 68 69 58 62 70 80 71 94 91 88 87 91 93 86 72 78 24 31 30 34 49 48 50 56 58 57 52 49 48 45 39 40 39 28 30 25
75 76 93 85 85 87 83 81 49 54 64 61 63 93 93 90 92 93 92 84 76 66 86 24 23 21 22 27 39 44 49 54 58 57 56 56 54 47 42 42 29 30 25 24
100 97 79 72 70 66 64 62 59 52 66 89 86 83 70 89 98 98 85 84 76 32 22 18 19 17 17 22 36 43 46 52 58 60 62 63 56 47 45 31 28 27 22 31

GFSNW_850_rhum_093.txt.gz
RH
77 66 60 65 59 61 60 59 88 67 60 80 91 99 96 86 78 70 74 64 60 73 84 85 86 87 81 69 78 91 84 82 95 67 52 54 60 68 70 82 72 84 78 91
69 70 61 58 62 60 60 63 68 62 58 95 96 82 86 85 68 64 58 54 51 63 80 81 76 72 59 67 68 69 63 77 92 58 50 56 67 64 66 68 74 82 83 77
59 60 63 54 52 65 68 63 87 60 69 93 91 93 74 70 58 58 54 59 50 57 66 65 69 66 57 57 56 56 59 73 76 83 74 69 72 70 71 64 85 81 86 90
59 45 50 52 48 52 61 65 89 87 96 83 92 87 70 72 78 64 59 62 74 60 66 62 67 60 56 54 54 60 58 66 73 60 62 58 58 71 76 82 72 66 75 78
72 49 43 51 44 48 58 64 71 77 77 80 66 76 73 72 69 72 68 71 69 68 74 72 69 69 58 58 54 56 66 66 72 71 57 62 58 55 67 71 67 71 69 66
72 54 40 47 50 42 54 68 70 69 72 72 74 81 75 72 62 66 66 69 62 64 64 64 62 64 60 54 55 60 67 79 89 69 68 62 52 47 63 64 65 61 65 57
73 63 44 40 50 60 58 60 60 58 77 80 81 74 72 77 77 66 62 58 56 56 55 55 56 58 54 52 52 56 65 77 90 83 63 61 36 51 54 60 63 62 65 68
73 61 53 41 40 48 52 58 58 59 78 80 69 73 72 62 60 69 65 57 62 62 54 58 58 62 46 46 49 53 59 74 78 78 77 46 44 50 61 62 57 61 66 68
74 69 60 52 43 40 40 52 56 58 59 65 69 76 74 77 78 64 54 54 54 57 64 61 56 59 58 52 58 53 62 68 71 75 61 42 36 53 53 48 48 59 63 70
78 70 66 61 56 45 44 48 55 54 55 64 70 72 71 72 76 78 70 63 62 58 72 67 70 78 58 62 61 50 63 72 73 76 79 59 45 54 48 40 29 54 57 58
79 72 71 65 64 59 50 48 51 53 53 55 61 63 66 72 74 77 63 69 67 75 74 74 75 77 70 71 57 52 51 69 77 77 74 53 54 58 48 38 51 49 54 56
73 70 71 67 63 63 59 51 46 50 51 53 56 58 56 56 60 66 67 68 72 74 84 84 85 74 79 68 63 51 68 59 56 64 57 40 51 42 41 43 43 48 50 53
70 67 72 72 62 59 58 55 51 55 54 57 61 58 58 59 59 58 61 69 66 72 66 77 86 84 79 77 77 59 57 60 70 57 39 56 44 44 46 46 44 44 47 50
73 72 67 71 69 59 57 58 59 59 59 69 59 58 60 59 61 62 62 61 62 66 67 73 87 83 65 80 66 74 55 65 68 72 60 50 42 44 42 48 50 51 53 56
71 73 70 68 68 64 58 55 55 54 57 63 54 53 57 62 65 68 68 67 66 69 78 92 88 74 82 85 87 94 68 69 64 59 41 43 36 37 44 48 49 51 54 57
55 76 79 75 72 68 64 59 57 49 54 58 86 65 66 68 70 72 70 73 74 70 73 75 74 75 68 88 90 60 50 44 41 41 38 39 42 43 47 50 52 56 58 61
41 80 88 83 76 73 71 63 52 41 48 56 66 77 76 72 71 71 71 71 69 70 69 82 79 73 74 92 89 48 37 39 42 45 50 52 48 47 50 52 55 60 64 67
39 82 89 81 75 71 73 70 61 51 44 48 90 86 70 74 69 71 72 70 70 70 68 79 84 79 88 97 76 57 54 49 44 42 51 50 47 50 52 56 59 64 66 64
41 70 90 88 80 74 71 72 72 68 49 49 77 83 77 73 75 76 75 72 89 78 88 85 81 89 94 74 62 52 49 49 49 54 59 57 54 51 55 59 64 62 61 60
81 70 88 82 78 75 74 72 69 66 60 56 78 66 92 70 79 80 83 84 93 93 84 83 97 93 64 51 49 49 50 51 52 60 65 61 59 57 58 57 57 57 56 42
98 84 86 77 72 74 69 65 71 64 73 60 62 65 86 70 88 90 82 94 96 93 84 90 93 90 72 41 38 41 46 51 53 49 47 44 42 48 57 60 60 56 38 34
94 80 79 72 62 73 74 88 77 90 78 79 82 82 70 77 77 80 88 90 92 89 88 96 99 80 34 35 35 42 49 54 57 56 51 42 37 41 53 56 54 41 35 37
91 75 60 68 75 83 92 88 87 99 81 87 90 97 66 78 77 86 87 93 95 83 96 93 84 44 28 32 35 46 49 52 55 56 53 44 42 46 51 52 43 37 37 39
77 72 80 85 94 94 86 85 84 56 64 74 71 86 73 77 88 86 84 77 81 96 100 76 80 22 25 30 36 49 48 49 52 52 48 45 46 48 50 43 38 37 38 32
68 65 85 90 67 70 70 62 66 68 66 66 70 82 70 97 92 90 87 92 96 89 77 79 21 20 23 22 30 44 48 52 52 52 50 48 46 46 43 40 39 39 34 25
83 77 94 80 85 81 83 66 66 64 67 56 58 95 91 88 90 96 90 85 83 72 86 26 19 18 17 17 21 32 41 48 55 56 55 50 47 48 47 42 41 39 28 26
100 99 78 69 73 75 74 63 56 58 62 86 87 83 70 89 97 95 85 85 77 41 20 20 17 17 20 22 19 22 34 42 49 59 59 54 52 52 50 45 43 32 28 21

GFSNW_850_rhum_096.txt.gz
RH
59 51 48 43 49 54 50 56 84 55 52 78 90 97 94 82 73 71 71 61 64 74 83 75 84 86 78 69 81 93 80 88 98 67 55 56 60 67 75 87 74 85 81 91
58 48 43 44 44 51 43 52 58 58 48 94 98 80 84 84 70 65 61 57 56 66 79 78 81 76 59 70 79 75 74 79 93 56 49 56 67 64 68 74 78 80 87 79
57 46 45 37 38 44 43 52 87 54 60 88 88 91 77 69 63 65 61 65 54 61 69 69 70 67 58 63 68 59 59 75 77 80 68 70 71 66 74 70 87 78 81 82
58 46 43 41 34 41 44 56 86 82 94 81 81 79 74 74 82 65 60 63 75 70 64 61 65 62 59 56 54 64 61 69 76 69 72 66 62 60 74 79 71 63 70 76
66 50 46 42 36 40 46 58 69 74 76 73 72 83 82 79 73 72 71 70 68 70 70 71 68 72 58 58 55 58 68 69 75 83 57 63 66 59 65 69 69 71 75 68
66 57 48 48 46 37 46 57 62 59 76 74 78 86 78 80 72 67 66 68 65 63 64 66 64 65 66 64 60 62 68 78 89 75 61 65 55 49 61 64 68 61 67 56
70 59 52 49 52 53 47 48 48 52 76 82 82 76 71 72 75 68 60 60 58 57 63 59 67 68 66 63 59 61 67 77 90 86 60 51 34 51 54 62 65 66 67 68
69 65 56 51 48 46 46 44 44 51 75 79 68 72 74 63 63 65 65 59 60 61 55 58 57 59 46 53 51 55 64 74 77 78 81 45 41 49 59 60 52 67 66 69
69 66 64 55 50 48 50 46 46 45 54 61 62 73 75 80 81 67 53 56 56 57 63 61 52 54 56 50 55 62 65 70 72 75 61 37 28 52 54 43 45 52 63 71
76 67 64 64 56 53 53 55 52 50 49 51 58 68 67 70 78 80 67 61 62 56 72 67 67 77 60 63 64 48 62 72 73 78 78 63 43 54 50 36 26 53 58 61
78 70 67 66 65 59 58 57 56 52 50 48 46 53 58 68 74 75 59 64 67 73 70 73 75 80 73 75 61 51 52 64 76 79 76 55 53 57 45 36 47 48 52 54
79 72 70 66 64 64 60 56 54 55 58 52 50 51 54 57 57 59 63 63 66 67 84 86 86 79 83 71 64 56 68 56 48 63 58 38 49 41 39 42 42 44 47 50
79 73 67 69 63 60 59 59 59 59 58 55 57 50 51 54 58 62 64 69 66 68 64 74 86 84 82 80 84 64 58 61 68 58 42 58 41 40 42 43 42 40 41 44
58 79 71 67 68 63 58 58 59 63 64 71 54 54 60 57 61 64 67 69 69 70 71 75 88 85 65 77 67 70 52 66 68 76 60 50 41 39 37 42 46 47 48 49
30 68 80 71 68 68 66 60 57 60 63 70 54 54 56 61 64 68 72 72 71 75 80 92 89 76 81 86 90 96 69 66 64 56 39 39 34 34 36 42 43 47 49 51
33 37 76 83 77 71 69 64 64 53 54 58 86 63 66 67 72 72 76 78 80 77 77 77 76 78 69 90 92 61 52 48 44 43 42 43 39 39 39 45 50 52 53 55
38 36 68 91 88 78 75 66 60 49 46 53 68 73 78 77 76 75 74 77 77 76 72 87 81 77 80 92 92 52 40 39 41 45 50 54 44 42 45 49 52 54 56 59
37 37 70 89 89 80 74 69 70 63 51 50 86 83 70 78 73 74 77 76 77 75 75 83 87 82 91 98 75 57 52 49 49 50 49 53 50 49 49 52 56 58 60 62
40 40 68 94 90 83 74 71 74 76 64 51 77 85 77 78 77 78 82 75 92 80 91 88 84 91 96 75 66 54 48 48 48 49 49 56 60 55 54 55 57 59 58 60
51 52 80 90 82 77 76 72 74 77 71 64 80 66 91 74 87 88 85 86 93 94 87 87 99 94 67 53 47 48 48 51 52 63 61 63 63 56 53 50 52 56 59 58
92 70 72 81 78 77 74 70 78 71 76 62 69 64 90 68 90 91 80 94 96 97 87 94 95 94 77 38 31 36 36 40 45 49 53 51 48 48 50 53 57 61 60 57
91 70 78 80 73 76 80 91 78 90 81 73 78 70 73 74 73 82 96 94 94 95 89 98 99 83 39 35 31 32 35 44 51 54 53 55 48 40 41 50 57 58 57 42
93 82 72 70 74 90 99 99 92 98 75 80 90 95 71 79 79 87 91 96 97 85 99 94 84 48 32 30 28 29 40 49 51 50 59 58 49 43 42 52 57 54 46 37
100 88 86 88 95 94 87 88 84 60 62 78 76 81 79 80 90 88 88 81 83 98 100 83 84 36 21 22 23 34 38 47 53 54 56 55 50 44 44 51 56 49 39 37
100 87 89 91 69 69 68 63 57 61 67 75 72 79 73 96 92 90 86 92 98 91 80 81 33 21 19 18 19 28 35 41 46 51 54 52 47 47 50 54 48 40 38 38
100 94 92 84 82 84 76 74 74 69 75 59 55 93 89 86 90 96 90 86 83 75 88 36 20 18 18 20 19 20 29 38 43 46 47 50 50 48 48 46 42 41 39 38
100 99 92 70 71 68 67 64 61 68 63 85 84 80 69 90 97 95 84 85 78 42 31 26 18 17 19 23 25 24 24 28 35 40 46 50 52 49 46 46 47 44 41 32

GFSNW_850_rhum_099.txt.gz
RH
39 40 40 39 41 41 46 51 85 49 46 72 92 94 88 80 74 72 69 61 68 75 80 78 85 82 76 69 81 91 80 83 98 73 59 57 63 68 74 87 76 83 82 76
42 41 33 34 36 35 37 45 50 49 42 92 98 76 82 79 74 73 64 62 63 69 78 78 80 76 62 73 83 80 82 84 91 55 49 55 64 64 66 75 78 80 80 70
51 43 38 35 42 42 42 47 84 49 56 82 83 83 80 70 64 66 65 67 59 64 71 70 72 67 60 70 74 66 65 78 76 76 59 70 75 63 70 78 83 74 77 79
64 50 42 36 41 41 45 52 82 77 88 77 80 78 76 75 82 66 62 65 75 67 65 61 66 63 60 60 58 69 66 76 80 75 74 71 73 65 62 78 70 64 59 84
62 57 53 42 37 39 39 52 63 68 78 74 72 83 83 84 76 72 70 69 68 66 69 68 69 72 60 59 57 62 71 76 77 86 66 67 71 66 64 73 73 77 77 76
63 57 57 56 44 39 41 45 51 52 77 77 77 85 77 76 76 65 67 68 67 60 62 64 62 63 65 64 62 65 71 79 87 76 61 64 63 61 63 66 68 63 74 56
60 59 54 55 54 50 49 42 42 45 73 80 80 74 73 69 71 69 59 60 62 53 62 65 73 77 77 76 68 65 70 75 89 89 62 44 32 51 53 60 61 70 67 65
55 59 59 53 50 50 52 51 46 43 71 73 70 70 71 65 62 68 66 58 57 60 57 58 54 56 48 58 59 72 69 75 78 79 78 41 35 45 60 61 42 64 71 67
60 59 59 60 53 50 52 57 54 50 50 59 53 68 72 72 75 68 53 54 59 61 64 59 48 48 52 50 54 71 72 72 73 79 61 36 21 48 54 44 43 44 64 71
65 62 62 60 61 55 50 58 60 57 50 48 52 66 67 65 77 78 66 60 65 58 70 63 66 71 62 64 59 49 62 74 80 79 78 60 42 55 50 37 20 48 59 62
71 68 64 64 65 64 60 56 61 62 56 50 48 52 56 65 70 72 56 60 63 72 65 70 73 80 72 76 65 53 51 69 80 82 80 54 51 59 44 34 39 46 52 54
55 74 67 62 65 62 62 60 60 58 60 55 52 48 51 58 59 60 65 62 66 67 76 81 85 81 86 70 58 60 63 51 45 58 51 36 48 39 35 36 36 38 39 42
28 69 72 63 62 66 62 61 63 62 63 56 57 51 49 52 57 63 62 70 68 73 71 74 85 83 83 81 86 66 60 61 66 55 41 56 38 36 40 42 40 39 39 41
32 34 66 68 65 64 65 64 60 63 69 77 54 49 54 53 57 63 65 66 68 70 73 73 87 84 66 77 67 72 50 66 68 74 59 44 34 36 34 35 43 47 46 44
35 31 48 65 67 64 64 63 64 61 67 78 62 55 54 57 63 66 68 71 72 72 78 92 89 79 82 84 91 97 67 66 60 54 38 37 33 34 38 34 37 41 48 48
44 37 30 62 70 68 66 67 66 69 53 58 87 62 67 69 74 75 74 75 78 76 78 81 78 78 70 91 94 65 54 48 41 41 40 41 40 41 40 37 37 44 51 52
81 36 35 50 78 75 74 66 63 57 46 53 68 69 80 81 80 81 81 81 83 83 76 90 81 78 80 95 86 53 39 38 42 43 48 56 47 44 41 43 45 50 54 57
99 45 38 53 87 86 78 71 71 73 73 51 89 82 61 84 80 80 84 83 84 80 79 89 91 87 92 97 73 56 52 50 48 48 52 53 54 50 48 49 50 54 57 59
99 54 48 60 93 88 77 73 72 74 70 51 78 86 76 82 82 82 86 82 95 85 94 92 88 92 98 79 66 56 47 49 46 49 50 51 52 54 58 55 56 58 58 60
99 54 60 87 87 82 80 76 77 82 80 75 84 67 85 74 88 92 87 89 95 96 88 92 98 91 70 55 52 50 46 49 52 56 50 44 54 52 57 55 56 57 59 61
96 72 64 78 82 81 79 76 83 80 84 72 76 65 86 68 89 92 83 95 96 99 89 97 95 95 80 50 42 42 45 44 42 38 42 50 56 57 57 56 56 58 61 59
98 81 81 84 80 79 85 94 84 93 86 77 81 74 71 73 74 81 97 94 97 99 92 100 98 86 48 42 37 35 33 31 37 49 53 54 54 56 52 48 54 58 60 59
100 99 99 78 80 95 100 98 97 97 80 81 89 96 68 79 83 89 93 98 97 88 99 96 85 50 34 31 25 24 32 39 50 46 45 51 55 53 46 40 46 58 58 56
99 99 98 94 96 95 90 89 87 67 63 76 76 84 82 81 92 89 92 84 86 100 100 89 86 40 27 18 17 21 27 29 36 47 50 56 56 52 45 41 47 54 54 51
99 100 95 96 74 70 67 70 57 60 63 72 72 79 76 95 95 91 87 95 99 91 81 83 38 24 17 16 16 17 21 26 31 36 46 52 54 49 45 44 48 53 54 43
100 99 98 88 86 84 74 73 66 64 71 65 61 92 93 86 91 98 92 85 82 74 88 38 26 18 17 18 18 18 20 21 23 26 31 37 41 43 45 47 50 50 45 39
99 99 99 73 73 64 63 61 60 77 80 88 86 89 74 90 97 95 85 84 79 45 30 30 22 16 18 21 23 24 23 24 26 26 26 27 30 37 43 44 44 46 44 43

GFSNW_850_rhum_102.txt.gz
RH
47 42 43 42 28 36 42 46 87 49 45 77 88 89 75 73 66 72 60 54 58 60 64 64 66 64 62 63 69 69 68 70 84 60 51 49 54 55 52 68 70 61 61 55
50 40 37 44 40 28 31 43 47 46 42 83 80 68 68 68 61 62 55 58 58 61 65 65 63 63 58 69 66 63 66 71 75 54 51 52 56 54 52 58 62 67 63 47
55 50 40 41 40 40 36 43 89 46 55 81 65 63 65 64 65 61 61 57 54 57 58 58 61 58 60 71 67 69 65 64 62 48 44 51 57 53 55 60 69 50 48 46
49 53 47 39 40 37 41 46 74 67 76 59 64 61 65 64 67 59 57 52 59 58 54 52 55 54 50 64 64 65 59 72 65 54 49 54 56 53 50 67 54 54 39 52
43 46 53 44 37 38 39 54 68 64 72 73 60 60 67 68 65 64 55 54 57 53 52 54 52 57 49 48 50 57 60 73 63 78 51 56 60 50 48 47 50 58 51 53
52 43 45 52 48 41 43 48 48 52 71 62 51 62 62 64 70 63 64 60 56 51 55 60 59 60 60 56 53 52 58 63 69 61 46 44 46 38 43 44 47 45 52 36
56 49 43 41 47 50 52 54 50 47 49 54 55 65 68 60 64 64 60 63 57 58 62 60 67 73 70 68 62 58 56 60 70 75 48 46 28 42 44 42 42 45 46 44
60 59 50 45 41 42 50 54 54 49 46 61 62 66 62 63 63 62 64 57 60 59 58 48 42 43 47 51 57 59 55 54 60 63 48 27 29 35 43 42 27 32 42 42
62 60 61 55 47 42 42 50 57 54 49 42 52 59 67 51 52 53 54 54 56 58 51 46 42 31 40 38 44 57 59 57 56 57 50 22 17 39 47 43 32 32 44 42
32 68 64 62 54 47 44 45 54 58 59 47 50 55 54 62 67 53 60 60 66 59 49 43 43 42 51 43 42 50 57 58 64 57 51 33 27 47 48 33 15 33 49 48
29 56 67 64 61 59 56 50 54 60 59 51 49 50 54 61 67 51 56 57 59 59 49 48 45 52 46 56 45 39 36 44 50 54 58 52 43 56 37 26 29 43 54 56
31 37 67 69 65 63 58 56 56 55 58 54 50 51 49 53 54 56 62 59 62 59 48 56 56 53 59 46 32 47 44 32 28 37 29 32 47 39 39 32 39 39 43 42
50 32 52 68 66 66 64 59 58 58 58 57 57 52 53 54 56 61 64 66 59 67 63 59 59 59 53 49 51 50 42 46 41 40 26 37 35 31 33 36 38 38 38 39
77 37 34 58 69 65 66 66 62 58 60 75 58 49 52 53 55 63 68 65 66 68 71 69 61 58 56 48 45 46 30 48 40 42 34 34 36 40 36 39 37 40 46 45
71 60 38 36 63 74 70 66 63 63 57 69 63 53 53 57 60 62 69 74 76 75 79 77 70 67 66 62 69 63 46 40 41 34 28 28 29 33 36 36 38 40 46 47
73 70 40 39 43 80 83 70 66 68 62 56 72 58 66 69 69 74 77 78 81 76 81 75 78 75 68 69 64 47 53 45 38 32 34 35 36 39 39 40 40 40 41 50
93 90 58 38 40 80 86 75 62 54 50 51 67 71 77 80 81 84 84 84 85 83 83 86 79 79 80 76 61 40 43 42 42 41 46 52 44 48 46 46 45 44 49 56
100 95 88 43 40 65 83 79 80 80 77 61 89 84 63 86 87 84 85 91 90 87 84 90 84 86 85 86 58 55 53 53 50 46 46 47 49 51 54 52 51 53 57 56
100 100 95 46 48 70 82 79 80 78 74 63 81 83 78 83 86 86 90 87 84 88 81 80 85 75 95 69 59 60 54 52 52 48 51 51 49 44 48 53 55 57 58 58
100 100 71 54 86 83 82 82 83 87 82 81 87 68 78 79 91 88 86 93 78 91 73 93 89 80 67 59 50 52 48 50 52 57 55 51 45 37 46 51 56 57 57 59
100 98 86 73 84 86 84 83 87 86 91 81 86 75 79 67 82 78 85 88 86 93 81 87 83 81 69 52 50 40 42 50 45 46 42 39 37 42 53 52 54 56 56 56
99 99 99 94 81 85 90 91 86 92 87 79 84 80 70 72 70 76 92 85 90 96 85 94 94 75 52 45 41 36 30 28 26 26 34 44 48 44 52 51 51 54 56 58
100 99 100 100 92 97 100 98 96 94 83 84 88 88 71 77 80 87 82 99 94 83 92 86 70 54 37 32 31 28 26 31 40 45 40 41 48 49 53 49 43 45 52 56
98 99 98 95 97 92 88 82 82 70 68 77 74 87 84 82 87 80 91 75 80 96 99 84 74 41 31 29 23 23 27 30 36 43 42 43 46 52 50 47 43 42 44 50
100 99 96 97 81 72 68 69 67 62 67 72 74 78 77 86 89 84 83 92 97 82 77 72 44 35 23 16 16 19 23 24 23 23 26 31 37 42 46 46 42 41 46 53
100 99 99 98 90 88 77 70 71 61 65 66 63 81 85 83 82 93 93 81 81 73 84 42 34 21 16 16 18 18 20 22 24 24 25 25 25 26 30 36 38 41 46 52
99 99 94 92 78 64 59 64 62 64 79 84 84 90 78 85 86 89 77 84 75 46 34 30 30 20 16 18 20 21 23 24 27 28 28 29 30 32 32 32 32 41 50 53

GFSNW_850_rhum_105.txt.gz
RH
42 45 38 32 28 37 39 57 82 48 51 69 63 82 65 62 57 58 49 46 47 47 51 53 51 52 52 54 57 56 54 56 65 51 46 46 48 50 43 59 61 54 54 52
35 41 43 38 33 31 36 51 56 43 51 79 68 53 57 56 52 54 49 52 50 51 52 53 49 51 52 56 56 54 52 59 69 52 48 46 54 45 44 45 53 63 56 42
33 35 38 39 36 32 36 55 85 57 58 71 48 50 53 56 60 51 50 48 47 46 46 45 50 50 54 58 58 64 59 53 56 55 44 43 45 44 45 50 66 45 41 31
33 35 36 37 38 34 35 53 65 64 61 48 46 47 50 52 55 48 46 43 47 47 41 41 43 45 46 58 63 58 53 62 58 50 41 39 42 44 41 56 54 50 30 36
40 36 35 36 36 37 39 51 53 58 50 55 41 44 51 52 54 49 44 42 44 38 41 45 44 44 39 38 45 47 51 64 55 76 40 44 49 41 40 40 40 42 39 40
45 42 39 34 35 36 45 49 48 54 51 44 38 40 46 51 55 56 50 47 45 41 45 50 48 49 47 44 42 43 48 56 61 59 38 37 38 30 35 36 33 34 39 28
49 45 42 40 35 34 40 44 49 47 35 40 41 47 51 47 50 51 48 53 46 54 57 60 65 58 53 50 49 47 47 52 57 76 48 51 26 32 36 31 30 29 32 29
42 55 50 46 42 39 37 39 44 54 34 42 43 49 47 48 49 53 54 50 58 59 54 40 35 40 44 46 49 50 47 48 56 65 41 27 20 29 37 40 26 25 32 29
29 56 60 55 49 42 41 40 42 44 45 36 48 43 50 41 34 36 46 54 52 59 41 37 37 25 30 32 42 46 50 49 54 44 47 24 20 29 36 35 30 20 26 26
30 45 66 63 57 55 49 50 50 52 52 48 46 38 43 55 48 39 44 48 57 55 38 35 31 32 40 34 33 54 55 54 63 55 53 34 23 35 40 33 23 25 31 32
57 27 50 70 63 61 57 56 56 60 65 56 43 42 54 57 54 37 48 49 56 49 46 37 32 38 32 40 28 29 32 40 47 43 47 58 36 45 32 25 30 36 40 40
67 44 26 54 67 68 68 59 58 58 61 65 48 46 44 44 46 52 57 53 47 45 40 38 37 38 36 31 25 31 38 23 22 28 30 28 38 26 32 35 34 39 39 45
71 69 32 26 52 66 66 71 65 60 66 64 65 55 44 46 51 49 50 59 57 65 66 48 42 50 36 36 34 29 29 27 35 28 20 23 25 28 33 42 41 39 44 44
89 67 60 32 27 52 70 67 68 73 64 76 57 49 48 47 51 58 60 62 61 63 66 57 52 48 40 37 31 38 26 35 33 30 26 26 26 28 30 33 35 37 39 47
98 83 72 50 31 29 54 68 69 71 74 76 67 61 55 58 61 59 64 71 78 73 73 70 64 49 56 44 48 53 33 34 37 30 24 23 24 32 32 37 38 38 38 46
98 97 79 74 40 29 54 82 67 69 77 69 73 70 68 68 69 78 81 88 86 79 72 65 62 69 55 57 47 31 36 34 31 27 33 34 35 34 36 40 40 41 40 40
100 98 96 89 59 37 51 79 63 52 60 60 78 72 70 80 82 93 94 88 90 84 77 73 63 70 74 67 53 27 36 39 41 40 42 47 44 45 42 43 46 45 44 46
100 100 98 95 82 49 44 48 75 76 75 73 98 88 65 83 82 78 91 87 92 86 76 80 76 74 77 78 49 42 37 43 46 46 45 42 44 45 44 46 49 50 50 51
100 100 100 98 75 60 73 72 78 84 79 89 88 91 91 78 86 88 90 89 81 81 80 72 76 68 92 66 58 51 49 55 54 49 54 55 54 48 47 48 48 54 56 56
100 100 98 68 71 80 83 86 90 94 89 87 90 79 83 75 81 78 76 83 77 88 71 82 82 78 58 55 58 56 55 55 56 56 55 50 52 48 50 42 41 55 57 59
100 98 98 90 79 84 87 94 94 89 94 88 89 87 73 64 80 72 76 89 81 92 82 83 78 76 58 54 58 58 57 55 53 62 59 53 52 54 50 45 54 57 58 57
98 99 99 98 98 99 98 94 88 92 86 78 81 79 78 81 67 72 86 86 85 94 81 87 91 70 53 52 44 45 37 28 30 43 46 41 34 41 41 44 53 53 54 56
100 99 100 98 97 100 96 96 93 90 81 92 87 85 77 74 75 76 78 94 91 73 85 79 71 53 44 35 35 32 26 24 26 31 34 32 34 42 44 46 50 46 44 50
98 100 100 99 97 92 84 76 82 79 80 92 85 86 78 78 82 70 92 68 71 87 97 78 67 49 42 35 30 25 23 25 29 32 30 30 34 37 43 47 48 45 41 42
100 100 98 97 86 83 74 75 72 65 76 80 78 80 73 83 86 73 82 83 93 76 73 74 55 36 35 30 19 19 22 23 24 24 25 28 32 34 36 39 43 46 46 45
100 100 99 99 97 93 90 71 78 65 67 72 70 85 86 84 82 86 88 76 79 78 88 42 32 30 25 19 18 19 20 22 23 24 27 29 29 29 30 31 33 35 38 42
99 98 75 90 75 71 73 76 72 66 80 86 89 96 86 82 83 81 69 80 81 50 40 34 35 37 29 20 19 22 22 24 24 26 29 30 30 30 32 33 33 42 38 41

GFSNW_850_rhum_108.txt.gz
RH
28 30 32 31 35 44 49 53 94 51 60 76 61 93 62 56 53 53 47 46 51 51 46 47 51 56 56 55 54 54 58 66 81 65 52 47 51 57 54 76 78 73 66 76
30 27 27 31 29 31 34 55 56 54 55 93 83 56 57 55 50 52 48 52 49 48 50 57 50 53 51 55 54 65 57 68 85 59 53 47 57 53 54 47 67 81 81 68
34 31 27 27 30 30 34 54 91 58 49 54 51 53 52 57 55 48 45 46 44 44 45 42 52 55 55 57 57 60 60 60 68 82 56 45 54 50 52 56 90 73 66 52
37 34 31 28 29 30 38 51 70 62 85 55 48 46 48 50 53 46 44 43 44 45 42 40 46 44 55 59 62 60 59 72 61 62 56 52 51 49 50 61 61 69 45 46
42 36 32 29 28 29 36 56 61 50 48 48 51 44 51 51 51 52 43 42 41 39 42 47 44 42 41 40 57 54 56 75 62 86 54 49 57 50 46 45 49 55 54 55
51 46 36 30 27 26 34 41 47 51 44 42 44 50 50 52 56 53 50 50 50 41 54 53 53 52 48 46 43 50 52 68 76 81 55 58 62 43 43 45 42 43 54 42
31 51 50 42 32 30 33 39 46 52 47 42 47 44 48 46 49 60 48 50 48 58 46 52 54 59 53 50 49 47 53 58 70 92 71 73 37 33 39 38 36 39 36 34
23 38 52 52 45 37 34 36 43 55 55 39 43 46 44 43 45 53 52 48 52 50 53 56 47 55 50 53 52 54 52 59 78 89 72 49 30 40 39 43 36 34 33 33
42 26 48 53 50 46 42 39 41 48 55 44 39 41 43 48 37 49 48 46 46 52 52 47 46 39 34 46 58 45 52 57 74 65 63 52 28 31 34 33 41 29 27 32
61 32 34 54 54 50 49 54 51 49 65 48 38 44 48 47 48 50 44 46 60 52 56 55 47 52 41 47 40 71 75 76 87 86 78 60 32 36 37 31 30 26 29 30
69 60 28 36 59 52 49 55 58 59 71 57 50 42 42 47 45 47 51 58 62 60 62 48 46 51 44 45 34 48 61 73 78 70 69 73 38 45 37 30 31 33 32 36
84 69 56 28 32 60 58 51 53 59 60 51 50 45 45 46 48 52 49 57 46 47 58 54 48 54 45 42 45 31 43 34 39 50 56 35 36 28 29 27 32 34 33 31
94 83 66 53 30 28 58 64 63 60 68 67 70 55 52 48 46 48 52 52 54 57 59 62 60 67 51 55 51 34 33 27 45 34 26 24 23 25 24 34 37 34 38 37
99 97 88 68 50 30 28 52 66 73 71 87 62 56 50 46 45 49 59 60 66 65 62 65 74 67 40 54 47 44 37 35 42 44 32 27 25 23 24 26 29 34 34 32
89 92 94 87 71 45 29 43 67 77 76 89 73 61 60 61 61 56 60 63 69 73 73 85 86 57 57 59 64 57 37 34 43 34 27 27 27 25 24 28 28 30 32 34
99 96 96 93 85 66 37 77 64 65 73 76 96 72 70 62 64 70 71 69 78 78 77 74 65 61 58 82 76 44 34 33 29 31 27 27 29 33 31 31 33 38 44 45
95 98 99 96 93 85 49 69 67 58 72 72 85 85 80 74 82 85 90 89 88 84 79 77 70 70 64 91 68 37 30 30 29 32 31 36 38 37 36 39 42 45 45 47
99 100 100 98 97 92 79 63 52 79 82 78 98 97 71 77 85 86 92 91 93 90 85 79 80 75 80 97 64 53 46 40 37 39 39 40 42 42 44 46 46 46 41 47
99 100 100 99 95 79 78 72 73 75 79 97 99 99 96 75 84 86 84 86 86 80 91 82 82 90 97 78 67 63 57 51 48 48 47 49 49 48 47 49 49 46 40 46
99 100 99 98 67 70 78 88 90 95 95 91 100 86 96 72 82 83 79 86 86 84 83 78 91 88 68 56 55 53 55 57 54 55 56 49 48 45 43 44 48 50 41 45
99 99 97 91 86 90 89 95 95 95 98 94 95 88 89 65 92 92 74 97 85 91 93 94 93 92 73 55 49 43 47 57 57 56 58 61 58 54 52 52 47 44 52 53
97 96 92 97 94 100 99 98 94 94 89 83 87 82 83 79 70 81 83 96 91 94 85 90 94 83 50 45 40 40 39 34 32 34 45 52 55 53 50 42 40 51 57 58
98 99 100 100 99 100 98 96 93 92 80 83 80 88 79 74 69 82 89 99 92 73 95 93 87 59 44 38 44 29 27 24 26 31 39 40 38 38 41 43 43 49 48 48
99 100 98 98 98 96 91 90 93 77 81 85 82 88 80 76 87 81 100 82 77 95 94 90 88 52 35 34 37 35 24 26 28 33 38 36 36 38 39 41 44 45 45 46
99 100 98 95 87 87 83 79 78 64 74 76 82 83 76 93 98 88 92 90 96 92 88 88 50 34 34 24 18 18 20 22 26 28 28 30 31 31 33 35 40 36 39 39
99 100 99 96 98 96 94 73 70 71 66 75 77 88 96 96 95 98 96 92 90 80 88 37 34 34 29 25 23 16 18 20 22 24 25 28 32 33 34 33 34 36 41 49
99 99 97 96 86 81 79 74 73 73 73 96 94 99 91 97 98 97 87 90 82 51 36 30 27 34 33 33 34 30 18 18 21 22 23 25 30 32 31 32 38 52 67 77

GFSNW_850_rhum_111.txt.gz
RH
34 30 30 32 34 41 50 54 75 59 66 65 77 91 69 56 55 53 51 54 60 54 49 50 64 68 63 56 58 65 61 72 93 74 61 57 63 68 68 85 83 74 82 78
33 30 27 29 30 29 32 53 56 55 68 87 91 62 59 59 58 54 54 56 52 50 54 63 57 64 56 57 58 66 62 77 89 73 61 53 60 62 61 59 73 81 89 75
32 30 28 28 29 31 39 49 78 53 50 56 58 60 57 61 53 50 47 48 50 50 49 46 59 67 58 58 61 60 61 74 74 80 62 59 69 62 64 66 94 78 84 70
31 30 28 26 27 29 39 46 62 65 82 56 61 53 55 54 61 49 44 45 48 50 48 46 52 55 60 61 65 62 68 81 69 68 68 65 64 59 58 76 64 75 56 59
29 30 29 26 23 27 36 48 56 52 50 49 50 52 55 60 56 56 51 51 48 44 52 54 58 52 50 62 69 63 64 74 71 84 63 66 72 64 58 54 59 59 56 56
18 31 31 28 23 21 27 40 46 49 45 52 54 58 57 58 57 54 50 52 54 50 56 53 50 54 56 54 61 66 72 78 80 74 71 69 53 52 52 52 52 50 64 48
20 24 38 36 34 29 29 34 46 53 57 53 54 47 49 48 51 59 52 49 52 54 50 48 55 59 61 59 58 53 62 65 80 90 75 58 27 32 39 47 43 42 43 44
36 22 32 45 40 34 36 38 50 54 70 46 48 48 48 46 47 54 52 51 50 52 47 60 53 63 56 60 60 62 60 70 79 86 85 56 35 41 38 42 32 40 41 37
56 30 23 34 48 42 38 38 43 53 62 51 40 44 45 58 54 56 51 48 44 46 64 58 51 48 37 53 63 50 58 66 80 82 74 60 26 29 34 30 31 26 38 41
61 53 30 25 44 47 46 44 41 45 66 53 46 44 54 49 52 58 48 49 57 53 70 64 57 59 41 40 48 74 80 80 90 92 92 76 48 32 36 20 14 26 27 28
86 59 52 31 25 42 50 52 50 48 52 40 54 48 44 46 50 53 48 48 60 70 65 62 58 56 49 48 45 70 75 89 94 89 93 81 39 43 32 23 31 25 25 25
87 87 63 55 33 25 37 52 55 55 55 46 46 52 50 45 50 50 51 49 54 54 70 65 64 55 58 54 44 37 49 53 66 69 66 39 35 30 24 26 25 24 29 28
84 92 89 68 58 40 28 38 52 57 62 60 62 58 56 56 53 54 53 49 43 56 55 65 71 71 66 62 64 42 34 32 41 33 29 32 29 28 28 28 31 29 31 32
94 88 83 89 80 62 44 32 45 69 70 86 57 61 57 52 53 52 56 58 62 66 66 63 82 76 54 66 51 54 42 37 43 46 33 29 23 24 25 24 24 24 28 37
83 89 81 86 91 85 62 55 62 67 75 82 62 62 65 66 58 61 61 66 72 69 69 82 90 73 66 68 75 59 44 39 46 39 25 26 26 27 26 24 25 27 33 32
87 85 86 91 92 87 82 75 65 55 62 67 94 70 77 65 64 66 71 72 75 74 76 82 72 64 61 89 91 59 35 35 34 33 28 29 28 31 31 32 32 31 33 34
82 92 91 94 96 90 85 66 70 67 70 78 85 80 82 71 76 80 84 86 88 84 80 85 78 73 68 92 94 43 39 38 39 39 40 40 35 35 35 36 37 39 41 44
72 96 94 99 99 94 91 86 81 63 67 78 99 96 81 75 84 86 89 89 89 89 86 86 84 76 82 97 72 57 53 50 48 40 46 45 42 42 42 43 45 47 47 46
67 94 100 99 95 88 79 73 74 74 73 96 99 100 91 73 84 86 86 86 92 83 96 88 86 92 98 82 71 66 62 64 62 60 58 55 50 46 48 50 50 51 49 48
99 98 97 93 81 72 81 94 92 94 94 93 100 97 95 70 81 87 89 86 84 96 86 81 92 90 70 51 51 51 45 50 51 63 66 58 55 56 55 52 51 52 52 47
99 85 83 88 89 90 93 96 93 95 99 94 96 90 90 72 88 91 81 97 87 89 84 94 91 95 77 50 45 41 43 45 39 53 61 62 61 63 64 63 60 58 43 52
96 93 95 80 91 99 99 98 96 97 85 84 93 84 85 83 75 80 83 94 86 95 87 92 94 84 42 47 36 39 31 31 28 30 30 36 44 51 52 47 44 40 49 51
97 92 94 98 100 99 99 98 95 96 85 85 86 82 78 79 72 83 92 96 94 80 97 95 88 50 39 32 31 24 22 21 27 30 35 36 38 40 41 43 44 50 50 48
99 98 89 98 97 94 93 92 91 76 84 81 78 82 80 82 90 87 100 85 83 98 99 88 87 35 34 34 27 20 18 19 19 21 23 28 34 41 41 40 42 41 41 43
88 100 94 92 88 90 85 82 79 69 75 72 83 81 82 93 99 97 96 96 99 94 86 85 38 32 36 35 36 35 31 23 19 19 20 22 27 30 33 35 36 37 42 45
98 100 96 94 94 92 95 82 74 74 67 72 78 90 96 97 97 98 100 97 95 77 88 37 31 33 34 34 41 40 41 40 37 22 22 22 22 25 29 32 33 36 37 43
98 98 99 91 93 82 77 78 71 71 70 89 91 99 92 93 99 99 92 92 77 46 37 38 48 49 47 41 44 43 44 44 42 40 33 29 37 39 37 32 33 30 34 42

GFSNW_850_rhum_114.txt.gz
RH
32 32 32 30 31 47 56 59 76 66 69 64 83 91 68 57 56 56 55 56 58 56 58 60 72 71 64 56 59 67 63 77 97 84 64 65 68 78 74 86 78 82 83 79
29 29 32 33 32 30 42 51 58 56 61 86 91 64 60 58 60 56 55 60 56 51 57 63 63 66 60 59 61 65 62 76 89 80 64 55 68 69 66 67 75 80 91 73
30 26 28 31 33 36 44 51 76 52 50 62 63 61 61 59 53 51 48 50 50 52 50 53 62 67 59 60 64 60 59 78 73 74 58 68 72 70 72 69 90 80 80 71
36 27 23 25 30 38 48 41 64 66 77 57 57 56 56 57 61 52 47 48 48 51 51 49 56 63 63 63 66 64 70 83 76 76 74 71 70 65 69 80 69 70 51 70
25 35 24 20 22 30 43 47 48 54 52 52 50 58 58 59 59 55 53 50 53 47 50 50 57 52 64 69 73 72 72 70 74 83 65 70 79 70 66 63 67 67 60 59
20 34 35 22 18 20 29 41 48 52 53 57 56 57 57 58 59 55 51 52 56 54 52 53 50 53 58 58 68 75 75 80 80 77 66 72 54 53 60 61 60 52 66 50
34 24 40 37 22 19 22 31 45 54 56 59 55 51 50 54 53 56 54 52 54 54 53 49 56 62 63 65 63 58 71 70 84 90 73 46 24 34 40 51 46 46 45 40
53 29 27 43 39 25 24 26 33 45 64 56 50 50 49 49 50 52 49 51 50 52 46 57 51 59 55 62 65 68 63 75 82 88 89 57 26 42 48 45 38 41 42 38
59 50 28 29 43 40 33 30 33 39 47 40 44 48 48 56 60 57 53 52 49 46 64 60 46 39 40 53 68 56 74 72 78 85 81 51 21 28 35 26 25 18 40 44
85 60 48 28 30 43 42 40 37 38 50 47 48 44 48 52 56 58 53 50 59 54 73 64 61 60 41 47 56 77 82 85 93 93 95 81 53 36 34 24 14 25 30 31
84 88 66 52 33 28 42 47 47 46 42 38 52 49 49 55 53 51 45 51 58 74 67 65 60 61 52 51 48 72 80 92 97 92 97 80 46 43 31 25 24 25 22 23
76 84 88 72 58 41 32 36 41 46 48 47 51 54 54 53 53 53 53 45 56 51 71 74 70 61 66 59 42 53 55 52 69 73 68 42 38 30 24 27 29 28 26 23
69 72 78 87 81 68 54 42 38 42 54 54 52 64 61 58 55 52 57 55 53 57 58 63 74 70 67 64 68 45 39 42 51 42 36 40 36 31 28 26 27 27 29 31
69 71 71 78 88 85 75 63 54 53 60 79 57 63 63 58 56 58 57 57 57 63 66 63 78 75 56 65 53 55 41 40 46 50 35 28 24 24 24 23 25 26 26 27
54 65 78 79 85 92 87 70 58 57 62 65 57 61 64 65 61 59 64 62 69 68 70 84 87 77 77 76 82 90 51 50 54 43 28 30 29 29 29 29 28 28 29 31
46 67 80 81 91 95 91 73 62 59 64 62 84 65 70 66 63 65 70 74 79 75 72 78 72 70 66 90 93 60 48 41 39 40 37 42 43 42 40 37 33 34 36 35
41 53 92 91 95 96 91 83 80 84 72 69 77 78 82 76 71 78 83 84 86 82 79 90 85 77 74 92 97 52 45 47 46 44 50 52 48 54 51 44 40 40 42 43
48 56 90 97 94 97 89 87 89 84 70 71 97 91 83 75 81 83 86 88 90 89 88 88 90 75 86 98 75 61 54 50 45 46 55 58 53 55 56 52 51 51 52 50
53 71 93 100 94 99 89 78 78 75 75 93 99 100 91 73 84 86 86 86 90 86 97 93 88 92 98 81 71 56 50 61 59 49 46 57 64 62 60 58 56 54 50 48
82 95 91 90 87 87 80 92 93 93 92 92 99 97 98 71 82 88 90 89 86 86 90 84 96 94 69 54 47 53 49 46 51 53 39 32 36 49 57 62 62 61 57 55
98 83 87 96 94 90 95 95 94 94 99 94 94 95 92 79 86 90 86 96 90 96 91 94 90 94 74 45 49 36 38 34 35 35 33 35 40 46 49 50 54 58 56 45
90 88 90 88 92 94 99 98 97 99 90 84 93 89 88 86 78 82 87 91 88 95 90 93 95 84 34 39 29 19 19 21 23 29 31 36 35 37 39 39 39 39 44 46
87 96 91 93 94 100 100 100 94 95 87 89 91 84 82 85 79 83 94 98 95 84 99 98 86 46 34 39 36 36 36 37 35 31 24 25 32 35 32 35 37 38 38 39
91 100 97 95 95 83 92 93 90 74 86 83 82 80 81 84 90 88 98 89 87 100 98 85 85 35 42 39 38 42 41 42 41 40 40 39 26 27 33 33 36 37 40 46
98 99 93 82 76 87 91 85 81 74 82 76 86 82 84 95 98 97 97 99 97 98 89 86 42 45 40 41 44 46 44 45 47 43 43 44 41 39 28 31 37 38 34 34
98 96 98 83 97 85 94 91 87 76 70 74 76 93 97 97 98 98 95 97 99 84 89 44 45 47 44 44 47 51 51 52 51 48 45 48 47 46 43 33 31 34 38 40
98 95 91 80 92 85 96 87 77 75 73 86 89 99 91 94 98 96 94 94 87 50 42 32 33 48 45 48 54 46 47 44 42 43 47 49 52 53 51 49 46 42 38 40

GFSNW_850_rhum_117.txt.gz
RH
33 28 31 33 35 48 56 62 74 62 58 62 83 91 67 58 58 58 57 60 57 60 59 62 73 68 66 59 60 69 66 80 96 82 65 67 70 78 77 86 76 86 84 77
34 31 29 30 35 36 39 55 58 59 58 85 91 66 60 58 58 56 55 60 56 53 59 67 67 68 64 62 65 68 63 75 88 74 67 66 76 76 72 71 78 84 90 60
33 31 29 27 32 38 48 53 75 52 53 63 66 63 62 59 54 52 50 51 51 50 53 59 67 67 62 62 67 61 58 79 69 64 49 69 79 73 75 72 92 83 84 72
27 32 29 25 28 37 52 42 65 67 75 60 61 58 56 60 58 53 48 48 49 52 52 53 65 67 67 66 67 67 69 74 82 79 78 71 70 69 77 83 70 76 56 69
20 32 31 26 25 32 45 43 48 54 55 55 52 58 58 58 60 54 51 48 52 48 51 51 59 61 64 64 75 70 76 70 74 86 68 80 82 77 74 72 74 73 69 70
27 22 32 27 25 29 34 38 45 44 60 61 57 56 55 55 59 54 53 52 55 56 51 52 52 53 56 59 77 79 80 82 80 78 62 72 56 62 58 63 67 59 72 51
45 27 23 33 25 25 31 35 44 46 51 62 57 51 51 54 55 58 56 52 54 52 56 52 56 62 64 65 64 63 79 72 85 91 71 37 22 37 48 56 51 53 48 41
53 44 28 25 30 25 29 37 39 42 58 54 53 53 49 51 51 53 49 52 52 55 49 57 49 58 60 67 68 73 67 76 82 88 89 51 21 41 50 46 29 43 47 43
71 54 44 28 26 29 31 32 38 44 40 40 43 50 50 56 59 54 55 54 53 48 63 58 41 34 40 61 71 76 78 75 77 86 79 38 17 28 36 30 24 15 38 44
76 73 59 50 34 28 28 37 38 38 48 44 45 45 49 50 57 57 53 54 61 56 71 60 58 59 42 51 62 84 87 89 93 92 93 80 54 36 34 23 14 22 30 28
75 80 75 64 57 47 37 37 36 43 43 39 54 51 52 60 56 50 47 51 56 74 64 63 61 60 54 52 47 72 83 94 98 92 98 71 46 45 29 23 20 26 26 26
72 77 78 76 73 66 58 49 46 40 45 45 48 55 57 53 52 49 50 44 57 53 70 76 70 62 73 60 41 59 55 56 69 76 67 42 40 36 27 30 35 31 28 27
63 70 76 74 76 76 71 66 60 52 53 52 53 58 57 54 57 58 54 58 54 58 57 60 74 63 67 61 67 46 45 46 54 44 30 46 28 26 29 28 27 26 27 28
53 55 69 75 80 80 79 74 59 51 54 75 56 64 66 62 58 59 64 62 63 66 66 64 77 70 56 64 55 55 42 44 47 54 38 28 23 28 34 39 37 33 35 32
57 51 54 82 84 88 85 77 58 60 62 69 61 65 66 67 63 61 63 63 64 67 69 83 87 75 82 81 84 89 53 49 50 49 40 44 44 46 44 47 49 45 42 35
54 47 44 69 97 93 88 72 61 64 82 67 84 64 71 69 67 66 68 71 78 74 70 76 72 71 71 90 92 59 51 45 47 50 53 52 42 41 49 57 53 51 46 42
46 41 47 65 96 93 93 87 84 89 91 72 78 76 80 77 72 77 82 84 83 80 76 90 88 80 80 92 96 56 48 52 53 49 56 49 44 57 60 63 57 55 50 49
41 39 55 96 98 96 89 91 95 88 81 76 96 90 82 78 80 82 85 89 90 90 88 90 93 80 87 98 74 59 55 53 42 47 52 55 46 36 44 61 63 60 58 55
41 45 66 94 96 99 98 86 80 80 75 87 98 100 92 77 85 86 88 87 93 89 93 93 90 92 98 80 67 55 53 62 50 32 32 34 38 37 40 46 52 62 60 60
56 64 70 96 91 93 83 88 86 92 93 90 99 100 97 75 84 89 90 89 94 97 88 87 98 93 69 58 50 52 37 36 36 33 28 29 29 39 42 46 48 54 56 56
80 82 85 95 95 94 93 88 94 91 93 94 97 97 94 82 86 91 89 96 93 91 92 95 94 93 71 50 40 27 27 32 33 35 35 33 32 32 34 33 37 40 40 41
80 78 90 87 94 94 98 99 98 99 93 88 97 94 91 88 81 83 92 93 86 94 93 96 93 85 48 43 40 41 43 43 43 45 46 44 43 42 35 28 32 36 38 37
85 83 85 86 90 99 99 97 96 97 86 90 95 89 86 87 84 87 94 97 94 86 96 97 88 56 44 41 40 37 40 43 44 46 47 47 44 39 45 43 34 31 37 39
88 93 100 91 94 90 91 94 89 77 85 89 86 83 85 86 89 89 98 93 91 94 99 88 85 46 45 46 44 44 39 37 34 37 41 46 51 42 42 45 46 46 33 32
92 90 94 96 70 75 84 93 89 82 88 82 85 84 86 96 97 93 97 99 94 96 92 87 48 40 38 43 47 44 40 42 38 37 44 38 35 40 42 44 42 43 49 47
93 92 94 77 84 83 82 89 94 84 77 78 77 95 95 98 99 99 94 95 91 85 90 50 50 54 54 59 61 57 52 43 44 46 48 50 48 40 41 41 40 40 47 49
97 88 88 90 93 88 86 97 92 86 80 88 89 98 95 93 100 97 93 95 88 55 56 49 46 47 46 49 60 59 49 47 51 54 54 50 46 43 41 42 38 55 58 61